GFSMA_prec_cthk_000.txt.gz
RH
19 21 25 32 49 69 87 84 80 87 90 86 82 75 77 79 81 84 88 92 92 77 67 59 54 48 42 33 23 22 19 16 10 10 10 10 10 10 10 11 11 11 11
14 16 18 22 28 35 44 56 67 73 76 83 83 81 83 80 75 76 74 83 88 85 68 62 60 57 51 35 31 23 19 15 10 11 11 11 11 11 11 12 12 11 12
16 15 15 16 19 21 26 34 40 54 55 65 64 73 74 70 70 66 71 69 78 89 77 65 62 61 66 41 32 30 25 20 12 12 12 12 12 12 13 14 14 13 13
19 20 20 18 17 17 18 23 28 32 42 60 56 57 54 63 64 68 66 73 78 81 88 72 59 55 66 63 43 35 30 24 21 15 13 13 13 14 13 18 18 16 17
25 26 26 24 22 19 17 19 24 30 30 31 40 48 48 44 51 60 59 66 74 82 89 88 69 50 63 62 58 43 34 21 23 23 19 16 14 15 18 20 22 18 18
31 32 32 29 29 28 25 21 20 22 28 31 30 31 36 42 51 49 50 59 70 78 89 94 85 59 54 51 59 53 43 26 22 24 23 23 20 17 20 20 22 23 22
39 39 38 38 34 32 31 30 27 25 23 24 25 31 31 33 42 46 44 53 60 73 86 94 94 81 63 47 53 57 51 33 29 24 25 25 25 23 23 23 23 23 23
49 47 46 45 42 36 34 33 32 31 31 29 25 23 31 37 40 44 43 46 47 62 79 89 96 90 73 61 53 54 50 39 35 26 24 25 25 23 24 23 20 21 21
57 56 53 50 47 47 45 39 37 36 34 33 33 33 29 34 36 40 43 48 51 51 64 78 95 95 80 63 63 54 48 47 41 37 25 25 25 25 23 20 18 18 19
60 56 54 54 53 52 50 50 47 41 39 38 36 35 37 30 27 25 37 48 47 52 57 70 82 94 94 74 61 60 49 40 44 42 37 26 27 26 25 19 19 20 21
59 57 57 60 60 57 57 55 53 49 47 45 42 40 37 37 31 31 25 29 48 54 57 66 79 89 97 90 69 61 52 41 41 45 56 39 34 29 26 20 21 23 24
64 62 61 60 60 59 59 58 54 54 52 50 49 48 44 40 36 33 38 30 27 40 52 60 70 81 91 98 88 72 57 45 44 42 52 52 47 43 37 32 27 26 27
64 66 66 62 58 55 51 49 48 46 43 41 44 45 46 42 42 37 34 31 25 27 36 50 65 85 92 97 97 82 69 55 45 44 42 49 53 53 51 48 43 36 30
64 62 58 54 48 42 38 35 32 31 33 33 35 38 43 42 39 39 36 33 32 26 27 29 55 76 91 98 97 96 85 70 60 49 48 43 46 50 59 57 54 51 45
67 63 56 48 40 36 35 35 33 35 35 33 32 36 41 47 48 39 39 38 36 33 31 28 28 56 84 96 98 98 96 91 76 64 56 50 46 44 44 52 55 56 53
67 60 49 43 40 37 35 33 34 34 35 33 35 37 40 46 52 42 39 42 42 41 37 34 30 34 53 87 99 99 98 98 93 83 71 62 53 48 46 44 46 53 59
59 50 44 41 39 37 35 36 34 32 34 34 34 37 40 42 51 53 43 43 45 43 42 39 37 33 31 69 88 99 98 98 98 96 90 75 64 54 47 43 50 53 62
51 46 44 41 37 34 32 30 28 27 30 31 32 34 36 38 44 46 45 41 42 42 41 42 48 39 33 36 48 79 97 97 98 98 98 93 82 71 56 49 50 59 69
49 44 39 36 33 30 29 26 25 27 34 35 37 40 40 44 47 44 44 41 41 41 42 36 45 47 40 34 37 49 79 96 97 98 98 99 92 87 75 63 64 69 76
42 37 35 32 29 26 26 27 31 37 39 42 46 48 48 51 52 53 54 51 47 46 48 46 40 49 43 43 36 42 59 83 97 98 98 98 98 94 91 87 82 83 85
35 32 29 25 26 29 30 34 41 50 59 64 68 71 72 71 72 71 65 59 53 51 51 53 52 44 50 43 33 38 49 70 90 97 98 98 98 98 97 98 98 98 97
27 25 25 26 30 32 38 49 61 67 76 81 86 89 91 92 90 89 85 76 65 59 51 51 52 50 48 47 42 35 45 51 76 93 98 99 99 98 99 98 98 99 99
23 25 27 32 34 46 63 75 85 88 89 88 88 90 91 91 92 92 95 96 92 72 59 48 52 56 47 58 48 40 38 45 57 76 89 99 99 98 98 98 99 99 98
27 28 33 38 53 68 77 83 88 88 89 88 90 94 96 95 96 97 95 93 95 92 75 55 42 43 52 53 64 53 40 42 47 68 85 99 97 99 98 99 99 98 99
30 34 39 55 69 74 80 82 84 86 88 91 94 98 98 98 97 98 96 93 91 76 83 72 53 42 47 55 61 73 54 41 53 53 70 90 96 98 98 98 98 98 98
35 40 55 71 78 80 84 87 91 94 95 97 97 97 98 97 98 98 96 96 90 71 80 80 71 58 45 45 49 54 69 50 46 53 54 73 93 98 98 97 94 97 98

GFSMA_prec_cthk_003.txt.gz
RH
13 14 13 14 16 17 19 25 52 69 90 89 86 92 92 88 83 80 75 73 79 81 82 82 70 66 70 66 51 35 22 17 17 19 16 12 12 12 11 10 9 9 9
16 24 21 19 20 21 23 25 29 46 61 61 82 85 89 90 88 81 77 75 75 78 78 87 85 74 73 74 55 44 28 18 17 18 16 12 12 12 10 10 10 11 11
20 19 23 26 24 20 20 20 21 23 28 47 56 73 82 81 76 79 76 70 65 65 69 72 78 80 75 79 76 49 38 26 19 19 16 12 12 12 11 11 13 14 15
23 23 28 27 25 26 25 23 24 23 26 29 36 47 59 58 71 62 66 60 66 64 62 63 69 77 83 77 82 71 52 37 23 20 18 13 12 12 12 13 14 17 16
29 29 32 32 30 34 32 29 29 26 27 33 31 33 41 41 59 50 56 54 49 48 58 62 67 72 75 76 74 83 69 49 33 25 20 19 14 13 12 14 16 18 17
40 40 40 40 42 43 41 39 37 34 31 29 28 24 27 33 35 45 39 50 51 45 47 55 66 74 77 75 69 76 85 64 44 33 24 22 21 15 13 14 17 19 19
45 46 49 50 50 51 51 50 47 44 40 37 34 30 27 23 24 32 53 47 62 51 42 46 50 64 80 84 78 68 74 84 59 45 30 25 25 23 19 15 17 20 19
56 57 57 58 58 57 58 56 53 51 48 45 42 39 36 34 38 43 41 51 61 55 49 48 46 49 61 83 83 79 66 81 76 58 42 29 27 25 25 23 20 22 21
64 67 70 70 68 67 66 64 62 59 52 51 49 46 42 40 38 35 40 44 46 52 55 52 44 46 50 63 80 87 73 67 81 71 56 38 30 26 26 24 24 23 23
72 76 77 77 76 76 75 72 68 64 62 58 55 53 48 44 42 35 32 28 32 42 50 57 49 46 48 51 60 83 89 72 70 77 66 46 36 34 32 31 25 24 24
81 79 81 81 79 77 76 73 72 70 69 65 66 61 56 51 48 43 36 34 32 28 38 54 55 56 50 52 55 67 84 95 77 70 68 54 43 36 34 30 26 25 24
82 81 81 82 81 77 76 74 72 69 67 64 62 62 61 59 56 53 44 40 37 36 41 33 51 56 56 52 52 60 74 86 95 83 66 57 47 41 37 37 32 26 24
74 77 77 71 70 69 68 64 62 57 52 51 51 49 47 45 47 49 48 42 39 33 32 30 28 39 53 68 59 61 69 81 92 90 75 60 50 45 44 42 40 32 22
79 75 72 71 72 70 66 61 53 47 42 40 38 36 36 36 35 36 44 44 43 36 31 27 28 28 32 44 55 62 66 82 93 96 83 69 59 48 55 55 50 42 24
79 78 77 75 71 68 63 54 46 44 42 40 38 37 36 32 31 33 37 44 45 43 36 28 29 30 28 29 42 63 66 73 85 99 96 79 68 59 54 68 64 59 42
83 82 77 75 69 61 52 46 45 44 41 39 37 36 35 34 36 37 38 43 49 46 39 34 30 31 37 32 33 47 74 73 84 99 99 94 80 72 57 68 79 73 68
83 80 75 69 61 53 48 46 43 42 42 40 38 37 33 34 36 44 52 59 71 70 55 34 37 34 38 40 36 36 67 87 83 96 99 99 91 80 68 62 77 80 86
81 77 72 66 58 53 48 44 40 37 37 36 34 34 35 37 37 34 41 57 65 75 74 55 42 39 45 46 42 40 36 50 75 93 98 99 95 88 75 67 68 80 82
80 75 67 58 50 44 39 37 37 36 37 36 37 41 42 45 46 46 49 55 62 69 64 63 47 41 43 48 51 48 43 32 48 80 96 98 98 96 88 79 67 70 80
78 68 55 45 38 35 34 34 34 35 39 42 46 48 47 50 52 56 59 56 59 68 69 66 55 48 44 41 47 49 48 41 29 55 77 96 98 98 98 94 83 70 74
71 56 38 31 32 33 32 34 37 39 42 45 50 56 61 67 72 73 74 72 68 64 67 69 64 60 61 57 56 51 61 52 31 40 57 79 97 98 98 98 98 87 77
54 31 30 31 32 34 35 38 40 46 56 63 68 74 81 85 85 87 87 86 84 82 76 78 77 70 62 55 67 62 69 62 43 32 48 62 83 98 98 99 97 98 88
31 29 30 34 36 39 42 44 54 67 77 82 83 86 87 90 90 89 92 91 90 91 91 89 82 73 73 62 61 69 70 71 53 36 41 56 79 94 98 98 99 98 96
27 30 36 40 42 45 47 61 76 81 83 84 85 86 86 89 93 96 97 95 93 91 90 93 90 87 77 63 74 80 81 84 74 49 40 53 82 89 95 98 99 99 98
30 36 40 44 46 53 68 78 83 85 85 86 88 93 96 96 97 98 97 95 95 94 96 95 93 89 89 82 62 66 66 82 81 62 45 46 66 92 98 98 99 99 99
37 38 40 49 62 72 77 85 89 89 90 93 96 96 96 97 97 98 97 97 97 97 97 97 95 87 86 85 80 66 71 76 74 71 51 46 56 84 97 96 97 97 98

GFSMA_prec_cthk_006.txt.gz
RH
16 16 15 15 15 16 17 17 17 18 20 31 52 87 82 89 92 89 85 84 82 82 84 82 83 72 72 72 70 67 62 47 33 24 20 19 20 19 20 21 18 16 13
21 26 25 23 21 20 21 25 27 27 25 25 31 43 67 75 85 89 91 88 83 84 82 81 83 74 74 76 70 66 66 56 42 27 22 17 17 16 14 17 15 13 11
23 24 25 28 28 23 23 22 23 26 29 30 27 34 50 61 72 76 82 91 91 84 82 81 80 79 77 81 82 70 72 63 51 35 23 20 17 15 14 13 14 13 10
31 31 34 33 30 33 34 32 30 29 30 31 33 30 31 42 57 71 75 78 81 87 78 77 75 72 75 79 78 80 73 73 56 47 30 24 19 16 14 12 12 14 13
41 42 43 42 40 41 41 41 40 40 40 36 34 35 36 33 37 53 52 65 66 70 62 67 64 65 66 72 69 67 79 80 75 53 44 36 23 18 14 13 13 15 16
43 44 46 47 47 48 47 48 48 48 47 46 43 37 31 27 27 31 32 41 49 58 53 52 53 51 57 63 69 71 71 86 85 75 53 45 35 23 16 13 16 17 17
48 49 52 53 54 55 56 55 54 56 54 53 50 47 42 36 33 30 28 30 38 54 60 55 49 47 49 57 57 63 69 73 91 91 71 57 48 30 19 15 17 23 20
52 57 58 59 63 64 64 64 65 63 61 59 56 53 49 46 41 41 41 42 45 56 68 67 66 53 45 47 54 58 64 70 77 93 92 75 61 37 25 17 20 24 24
62 66 69 72 72 71 72 72 70 68 67 67 65 61 56 52 51 45 43 42 45 48 52 61 76 70 57 55 50 56 69 65 71 78 89 94 75 52 35 26 24 25 25
70 73 76 77 80 78 80 82 80 77 74 69 66 68 65 60 58 53 50 45 41 39 39 45 56 61 65 59 52 49 57 67 69 75 80 88 91 72 53 38 27 27 25
75 75 79 85 88 88 83 82 74 69 71 72 70 68 66 64 63 60 53 52 48 42 38 32 34 43 52 70 57 52 56 58 63 68 83 87 92 95 69 54 37 29 26
76 81 83 86 83 80 81 72 70 69 68 68 68 64 61 61 61 59 55 51 51 47 42 38 34 33 35 48 60 60 58 59 67 62 74 85 82 84 91 69 51 36 29
78 79 79 84 83 82 74 73 73 70 67 64 61 57 53 50 50 51 49 45 43 41 39 38 35 33 31 33 43 57 57 60 66 64 67 80 91 86 89 84 69 48 38
81 83 87 86 81 82 85 79 74 69 65 60 55 51 49 49 48 46 46 49 48 41 40 40 42 37 33 31 28 32 54 60 66 63 69 71 84 98 92 89 83 62 45
85 89 92 88 92 83 79 75 70 64 60 55 52 49 45 44 46 48 44 44 46 46 43 45 43 38 36 36 38 33 30 37 54 67 69 76 73 89 99 94 88 78 54
95 95 94 92 85 80 77 73 68 60 54 49 45 42 40 39 38 38 40 41 44 50 51 39 39 43 39 32 33 41 38 31 29 44 64 71 78 80 92 98 95 86 62
96 97 94 84 82 80 74 67 59 54 48 41 38 36 34 32 31 30 29 30 36 40 47 35 39 40 41 37 29 33 39 41 32 33 47 62 69 83 83 95 98 93 82
96 91 86 86 82 76 67 58 49 44 41 38 35 32 30 29 30 30 29 26 28 30 41 36 40 44 48 47 37 30 34 40 42 35 38 65 66 75 82 90 98 97 92
91 88 88 85 77 65 53 42 39 34 31 31 31 32 32 32 32 31 30 32 35 38 42 47 38 45 47 52 49 36 32 39 42 42 36 47 60 74 75 91 97 98 99
90 89 88 77 62 46 34 30 32 35 36 37 37 37 37 38 41 44 45 42 43 43 44 51 48 46 52 49 51 43 36 33 35 43 40 35 36 47 70 86 97 97 99
91 85 67 50 32 29 29 35 39 37 36 37 38 40 44 53 61 64 65 60 62 60 58 56 54 50 54 54 49 42 45 41 38 32 37 39 32 49 60 69 93 98 98
72 51 33 29 27 29 35 37 40 41 44 45 50 61 71 79 82 84 84 82 80 77 75 77 70 62 63 71 67 61 57 50 51 51 52 52 44 43 52 68 82 97 98
41 29 27 27 31 35 38 41 47 50 55 66 74 81 85 88 90 89 89 90 89 86 86 89 82 77 73 71 80 88 78 68 64 66 66 56 50 44 51 52 77 91 95
29 26 28 35 36 36 41 48 57 70 77 81 84 86 87 87 89 90 89 86 85 88 88 89 88 87 82 84 85 92 95 83 68 70 75 68 58 45 50 52 72 88 90
27 31 36 37 37 45 54 71 79 81 85 88 89 91 94 93 94 96 96 94 94 93 96 93 91 91 90 90 91 94 90 96 77 77 89 82 67 45 56 48 75 87 94
33 35 37 41 50 58 75 81 84 86 88 90 91 92 95 96 97 98 96 94 90 92 96 95 94 94 95 95 96 96 95 91 91 69 84 91 72 54 59 59 78 91 96

GFSMA_prec_cthk_009.txt.gz
RH
20 19 19 20 20 20 20 21 21 22 23 27 29 30 38 56 70 82 86 83 83 80 82 86 90 85 82 82 78 75 74 70 68 52 39 35 29 23 22 24 24 23 22
28 26 28 27 27 27 27 27 28 28 28 27 29 35 40 40 47 56 73 91 93 87 89 90 89 86 87 85 80 77 76 75 72 68 52 37 33 25 21 21 23 24 22
33 33 35 34 34 34 32 32 31 31 32 34 34 33 33 34 48 51 61 69 81 97 94 91 88 84 84 88 85 80 78 78 72 72 69 48 36 32 23 18 19 21 20
36 37 38 39 39 39 40 41 40 38 36 36 35 37 40 39 35 45 55 64 70 86 95 96 91 91 85 89 84 86 86 82 80 81 82 64 40 36 30 21 15 19 18
38 39 42 42 43 43 45 49 51 50 47 44 42 41 40 39 36 33 34 43 61 69 78 93 95 94 89 87 87 83 80 83 89 91 86 83 55 35 34 27 19 15 15
44 44 46 49 50 51 52 53 54 55 55 54 52 49 48 47 44 40 32 26 31 53 63 72 83 85 87 88 87 81 82 75 87 91 92 88 80 49 38 32 25 18 16
53 53 53 53 54 57 59 61 60 60 61 61 59 57 54 52 52 48 46 40 33 35 41 64 67 72 72 72 77 75 77 76 83 83 89 89 93 70 48 38 30 23 18
56 55 58 59 60 61 64 66 68 68 67 66 64 61 58 56 55 54 51 49 46 41 37 41 60 76 73 69 65 62 71 75 76 79 87 93 89 87 65 49 38 30 22
61 61 63 66 67 69 69 71 73 74 73 69 68 66 64 63 60 61 57 53 52 49 46 45 45 67 75 80 70 60 55 62 67 67 73 84 96 98 91 68 49 39 26
64 66 68 73 74 74 74 75 76 75 77 74 65 66 64 63 64 61 62 57 54 53 51 48 45 53 68 77 73 75 60 59 58 67 77 81 88 94 96 90 67 50 34
68 72 76 79 79 80 81 85 84 81 80 76 65 68 70 67 66 64 57 60 57 51 51 50 46 50 54 64 69 71 66 62 59 58 74 81 86 95 98 99 88 71 48
73 75 75 79 82 85 88 91 91 88 81 73 70 66 63 61 59 61 58 55 58 54 48 44 44 44 40 39 48 64 66 67 67 60 62 76 88 96 98 96 97 91 75
77 80 83 87 89 88 87 88 91 89 87 82 71 66 60 56 54 51 52 52 51 52 53 48 45 39 37 38 35 35 49 51 59 61 60 64 70 84 99 97 96 97 94
77 82 88 92 92 89 92 94 96 86 80 77 71 67 61 56 53 52 54 56 52 49 49 52 47 51 48 42 39 38 37 40 56 53 56 60 62 69 70 96 95 96 96
79 85 90 93 92 95 97 90 86 82 76 69 63 60 57 56 54 51 50 53 55 54 51 49 55 50 43 53 51 42 36 34 36 41 42 53 57 75 67 75 96 97 94
87 91 97 97 97 94 91 87 84 77 71 66 59 54 51 47 46 48 48 50 54 57 54 53 53 58 64 58 52 52 45 36 31 32 35 43 47 56 61 65 84 97 98
97 95 97 95 93 91 90 86 80 72 65 56 50 46 43 42 42 41 43 42 42 43 44 42 42 45 47 50 51 51 50 43 38 33 36 38 49 54 56 62 71 92 99
90 94 94 93 91 90 88 81 72 61 50 44 40 37 32 28 26 25 26 27 29 32 35 35 40 39 41 43 44 44 48 51 46 41 35 37 41 46 40 44 63 70 95
91 90 88 88 87 81 70 58 46 39 34 29 28 29 29 30 29 27 27 28 29 29 28 28 32 34 36 36 35 34 39 47 45 43 38 34 31 37 33 34 50 71 80
87 86 85 79 65 54 43 35 30 30 31 33 34 37 38 38 38 37 36 34 35 38 39 36 31 31 34 34 40 39 38 42 41 42 40 31 28 28 33 31 29 45 77
89 87 77 62 45 32 28 30 35 36 37 36 35 37 39 41 43 48 53 52 57 56 55 50 38 39 36 36 39 46 48 47 47 42 36 32 26 24 29 30 27 29 40
88 75 54 33 28 29 33 36 38 37 38 41 42 46 53 61 66 71 75 77 79 77 71 64 52 50 47 44 45 47 53 57 49 45 43 33 30 28 30 34 30 27 28
62 40 29 27 29 33 37 39 39 43 47 56 66 70 74 77 80 81 82 82 82 86 87 86 72 67 66 63 60 50 48 59 52 46 47 40 33 31 33 33 31 28 22
37 29 27 30 34 38 39 41 49 57 70 76 79 81 82 83 84 86 87 86 85 85 84 81 75 75 76 80 78 73 64 57 60 58 59 50 41 40 44 45 37 29 27
29 29 31 35 37 37 44 51 63 77 80 82 84 87 87 88 86 88 88 87 85 86 90 88 84 79 83 83 87 88 81 74 60 63 69 69 58 53 65 58 46 31 31
32 32 33 36 43 45 51 63 82 88 88 88 89 90 91 91 92 95 96 95 91 91 91 90 88 88 91 93 92 89 92 84 78 69 71 80 73 69 82 71 53 33 36

GFSMA_prec_cthk_012.txt.gz
RH
29 29 28 27 27 26 26 27 27 28 28 28 26 25 28 31 37 45 58 63 78 73 77 86 84 88 91 92 86 85 80 76 72 72 70 52 47 43 41 38 31 28 26
33 34 34 34 34 33 32 32 30 31 31 31 31 31 30 32 41 43 50 54 61 71 86 80 84 87 89 94 96 93 88 84 83 77 71 68 52 44 38 39 29 28 27
34 35 36 38 39 40 41 40 40 39 39 39 38 39 39 37 37 38 43 50 54 59 67 80 85 89 90 89 91 94 93 90 90 89 84 81 74 55 42 37 33 28 26
38 38 39 42 42 42 43 43 44 45 45 46 46 45 45 43 39 36 33 36 47 55 66 71 80 93 93 93 90 87 91 96 90 91 89 88 78 76 56 40 36 33 28
45 44 44 46 48 48 48 48 50 50 51 52 53 53 52 49 48 45 41 37 33 43 53 64 74 84 94 94 95 91 90 92 98 84 80 79 76 79 73 49 39 37 31
52 53 52 52 54 54 55 55 56 56 57 57 56 57 57 56 53 52 49 46 45 38 35 46 67 74 85 96 97 95 92 92 88 89 98 80 74 79 86 70 43 39 37
56 57 58 58 58 58 58 59 60 61 62 63 64 64 63 59 59 58 55 52 52 50 46 36 36 61 76 82 96 98 98 97 93 86 84 87 98 78 86 87 60 41 38
59 61 63 63 63 62 62 62 63 63 64 67 67 66 64 59 56 56 57 58 54 52 55 53 46 39 53 64 86 97 98 96 96 90 81 78 80 83 86 90 81 56 45
60 62 64 65 66 65 65 67 67 67 66 68 70 71 68 63 56 56 57 59 62 59 53 53 56 51 44 47 69 87 94 95 93 90 83 79 87 99 98 90 91 79 55
62 63 65 66 67 69 73 74 73 70 67 68 74 78 77 73 67 56 57 57 58 62 60 54 53 57 52 45 48 74 84 89 90 89 82 85 76 80 86 98 95 97 77
66 66 66 68 69 72 74 74 75 76 75 76 75 79 81 74 73 67 52 47 48 55 60 63 54 50 55 51 45 52 86 84 86 79 73 73 83 83 86 93 97 97 97
66 68 69 70 72 73 78 82 84 84 85 88 88 85 81 78 71 66 60 50 43 44 53 59 62 54 49 48 43 41 65 81 88 90 74 68 70 80 84 96 99 96 97
75 77 74 74 78 79 79 88 89 92 96 93 94 81 78 77 73 67 61 53 48 44 46 53 61 60 54 50 48 41 41 64 82 86 82 64 65 64 78 93 96 99 96
77 76 78 83 78 84 93 95 94 98 98 96 91 85 79 75 72 67 63 58 51 48 44 47 56 60 63 53 45 50 44 41 60 73 70 67 64 63 63 92 92 96 99
71 76 82 84 90 98 99 98 95 91 91 89 83 78 75 71 66 63 60 57 54 55 53 53 57 62 63 63 57 51 53 47 42 43 52 59 59 57 57 66 85 96 97
73 78 85 94 98 97 96 94 91 88 86 82 78 74 69 64 58 54 53 52 53 52 50 51 51 54 57 56 56 57 54 52 52 47 45 43 46 48 46 50 55 85 98
76 86 92 93 92 89 89 88 87 85 81 75 69 63 55 49 48 46 44 43 42 43 42 44 45 48 52 57 57 56 57 52 51 48 45 45 45 42 43 46 45 50 72
84 86 87 88 83 80 81 78 74 69 61 54 47 42 39 37 36 33 32 31 31 30 32 35 37 38 41 49 56 60 56 57 50 43 46 41 41 42 37 35 36 37 44
81 87 87 83 79 78 75 66 56 47 41 37 31 27 26 28 28 30 32 33 32 31 30 33 34 36 35 36 42 49 55 56 55 55 45 43 39 38 34 32 31 28 31
87 90 85 80 78 69 56 45 38 31 26 27 29 32 34 35 35 36 37 37 37 35 31 32 31 34 37 36 36 37 40 45 49 49 55 55 49 43 38 32 27 25 31
92 86 82 73 61 53 41 31 28 29 30 31 31 31 32 35 38 40 42 39 42 40 36 35 33 37 36 39 40 37 35 35 38 46 51 51 56 48 41 35 30 27 23
86 81 71 59 45 34 28 29 32 34 34 33 32 37 44 53 60 63 64 65 65 63 61 61 58 56 52 52 50 48 43 40 36 36 44 48 54 55 48 44 36 31 29
76 62 49 41 30 28 29 31 34 34 34 38 47 61 68 73 75 76 76 75 76 75 76 77 76 76 73 69 65 58 55 49 39 33 43 46 48 47 48 46 44 37 33
52 45 38 30 28 28 30 33 35 37 42 54 70 76 79 80 82 84 83 82 81 77 79 79 78 81 85 88 84 76 68 61 52 43 39 42 43 40 36 35 36 36 36
43 36 30 28 27 28 32 37 42 46 58 76 84 87 87 87 88 91 87 83 83 82 85 84 84 86 88 86 85 84 78 75 64 59 55 43 40 40 35 28 29 28 34
37 32 29 29 30 30 36 43 53 72 82 85 87 88 91 92 93 97 99 97 92 91 93 92 91 88 91 95 93 84 82 80 80 75 69 62 55 52 44 32 33 36 36

GFSMA_prec_cthk_015.txt.gz
RH
31 31 32 31 31 31 31 31 30 30 31 30 30 31 31 31 29 30 31 37 45 48 48 61 64 72 78 79 79 84 88 88 87 82 80 75 57 45 46 47 42 40 41
37 35 35 34 35 35 36 36 36 35 35 34 33 33 34 34 34 33 39 43 46 54 53 57 65 73 82 82 84 89 92 91 89 85 83 78 75 63 48 50 46 39 40
40 40 41 41 41 42 42 41 41 40 40 40 40 39 39 39 39 39 37 36 38 43 50 59 62 71 79 83 88 86 90 94 95 92 87 83 75 75 64 51 50 46 40
43 43 42 43 44 45 45 45 45 45 45 45 45 46 46 46 46 45 43 41 38 35 32 44 54 58 70 80 82 88 90 89 89 98 91 87 86 81 73 67 53 47 44
46 46 47 48 48 49 50 50 50 50 51 51 50 51 51 51 50 49 48 47 44 43 42 39 31 49 62 77 83 83 85 87 86 87 96 98 95 91 87 81 75 61 50
49 50 52 52 52 52 54 54 54 55 56 56 55 55 55 56 57 55 53 51 49 48 47 46 45 37 47 62 72 83 89 93 88 87 90 98 95 96 94 92 84 79 59
51 52 53 55 56 56 56 58 59 59 59 59 58 58 59 59 59 57 55 54 53 51 49 49 51 50 43 40 54 71 87 88 96 92 94 97 98 98 99 92 88 84 78
54 56 58 60 61 60 59 59 59 59 61 62 60 60 57 58 59 61 59 56 53 51 51 50 49 53 54 50 39 45 64 87 84 94 97 96 100 96 98 95 94 91 86
54 56 58 60 61 62 61 61 61 58 59 61 61 62 61 57 58 61 62 61 59 52 50 48 49 50 51 54 54 44 43 61 87 95 96 96 98 99 99 94 90 94 90
58 59 60 62 63 65 67 68 66 66 67 67 67 67 66 61 60 57 60 60 60 62 55 49 46 46 50 53 58 59 48 46 66 87 97 97 96 99 96 96 95 98 88
59 62 64 65 64 71 73 76 74 72 76 76 78 81 79 70 67 63 55 57 61 62 62 56 49 46 46 51 56 55 59 49 44 65 90 95 98 97 98 97 92 93 95
58 62 68 70 72 71 73 83 79 79 84 80 87 90 88 86 78 77 66 53 54 56 60 57 51 48 45 42 51 64 60 55 49 45 63 89 93 96 97 98 96 92 95
57 58 63 67 70 75 79 82 81 92 87 90 93 92 93 92 94 90 78 66 60 58 57 55 53 50 48 45 39 49 62 64 55 47 48 69 86 92 94 96 94 92 99
55 54 56 63 70 79 79 90 94 92 96 99 98 98 93 92 89 82 79 74 64 60 57 55 53 51 50 48 46 41 57 66 65 58 50 59 88 87 90 88 85 89 99
50 54 61 65 71 75 82 91 94 91 94 94 93 90 87 83 79 77 75 72 70 60 56 54 52 50 48 46 44 43 45 68 70 68 59 53 74 84 92 90 85 73 85
56 61 67 75 81 87 90 93 92 90 90 90 89 88 84 81 79 76 72 69 66 61 54 53 50 48 48 48 48 49 43 55 69 76 69 56 58 74 80 84 83 69 66
65 69 73 79 83 81 82 85 84 81 77 76 74 71 66 63 59 56 53 51 49 49 48 45 46 44 44 45 46 44 46 46 58 68 73 66 54 58 67 73 76 74 65
73 81 79 74 77 79 83 81 77 76 71 64 57 51 47 43 40 38 37 38 38 37 39 38 39 41 38 38 40 44 46 49 54 60 65 67 60 49 50 60 67 62 61
82 82 82 81 86 88 85 79 75 68 56 48 44 38 33 31 29 27 28 30 31 31 33 35 36 38 38 33 31 32 38 41 44 50 54 60 59 52 44 48 55 52 40
88 90 93 94 91 87 80 70 57 47 40 35 30 26 27 28 28 29 29 28 29 30 30 33 31 34 35 35 32 28 27 31 36 41 49 51 58 60 52 43 44 42 40
93 91 86 82 77 68 58 52 47 40 34 29 26 26 27 28 30 35 39 39 43 45 46 46 44 41 40 40 39 36 32 27 28 32 37 47 50 55 63 61 48 45 42
93 89 82 76 68 56 50 43 37 29 26 24 24 27 30 36 41 48 56 63 68 70 69 68 63 57 53 52 50 49 45 41 34 32 33 34 44 49 55 64 66 53 43
89 81 67 57 50 44 38 31 26 25 25 27 32 36 41 51 64 69 72 74 75 77 80 81 80 79 76 76 71 63 62 56 47 44 45 39 37 41 48 59 64 64 57
67 58 53 49 43 35 29 25 24 24 28 35 42 56 70 76 80 81 82 82 82 84 87 86 85 85 81 80 80 79 73 67 59 54 52 42 33 31 37 50 58 62 62
57 54 49 42 36 29 26 25 27 30 37 48 72 82 84 85 88 91 92 91 90 91 96 90 86 84 84 86 84 82 81 81 72 65 64 52 43 37 37 38 46 49 54
54 49 42 37 32 29 29 30 33 40 54 77 86 87 90 91 93 96 97 95 93 94 98 98 97 95 91 89 91 90 89 83 78 74 76 67 60 56 44 30 34 42 44

GFSMA_prec_cthk_021.txt.gz
RH
42 43 43 43 42 41 41 41 41 41 40 40 38 36 34 32 31 29 28 27 25 26 29 31 32 34 36 40 61 68 79 81 86 86 83 77 76 76 73 71 59 47 47
42 42 42 43 43 43 43 43 43 43 44 44 43 41 40 39 37 36 35 34 32 30 29 29 33 36 40 40 41 41 55 70 81 84 87 86 87 84 83 78 72 59 49
42 42 42 43 43 43 43 44 44 45 45 45 45 45 44 44 43 42 41 40 38 37 36 34 33 29 29 36 43 45 46 49 60 69 80 89 88 89 87 85 79 74 62
46 44 44 44 45 45 45 46 47 47 47 48 48 48 48 48 48 47 46 46 45 44 42 40 38 37 35 33 31 35 52 57 55 64 74 83 92 90 91 90 86 82 77
50 49 49 48 48 48 48 49 49 49 49 50 50 50 52 52 51 50 50 50 50 49 48 47 44 41 41 41 40 36 35 52 60 63 70 79 83 88 93 93 93 88 85
55 51 50 49 49 49 50 50 51 51 51 51 51 51 52 54 55 55 55 55 54 53 53 53 53 50 45 43 44 44 42 40 48 57 65 77 82 87 89 94 94 97 94
60 59 54 50 48 49 52 52 52 53 53 56 55 54 53 54 55 55 55 55 55 54 54 54 54 54 52 50 48 46 46 45 42 39 43 66 75 82 86 88 90 92 93
56 53 52 50 49 49 49 50 54 53 55 58 56 58 57 55 58 60 59 58 56 54 54 54 52 52 52 50 50 48 46 46 46 46 44 38 48 69 82 83 85 92 91
59 58 57 56 55 54 52 53 54 57 57 59 62 62 61 56 60 58 64 62 61 59 57 57 53 53 51 49 46 47 46 44 44 46 48 48 44 42 57 70 78 80 81
58 58 57 54 51 51 49 52 55 54 59 61 62 64 61 60 61 61 64 73 67 67 63 62 60 56 54 51 47 43 42 43 42 41 43 47 50 47 43 49 56 66 74
55 52 50 48 44 43 43 45 48 48 52 57 63 71 64 65 64 64 64 73 70 70 69 69 67 65 63 58 51 45 42 39 39 41 40 39 42 49 48 44 42 52 64
52 50 48 44 42 42 41 41 43 47 49 56 59 66 68 69 69 68 71 77 78 78 76 76 74 69 65 63 56 50 44 40 37 38 38 39 39 39 44 49 45 43 52
45 43 42 41 40 36 36 38 45 49 54 59 64 65 68 76 78 85 86 79 84 88 82 76 75 74 68 61 56 52 47 42 40 38 37 38 39 41 39 44 50 47 49
47 45 46 44 43 45 47 46 51 59 60 67 72 76 80 84 92 91 98 89 89 89 84 81 71 69 67 66 58 48 45 43 40 39 37 37 40 46 47 43 45 53 51
41 41 44 45 49 54 57 58 62 68 75 77 81 88 90 98 93 97 95 96 96 85 83 78 75 75 70 68 62 54 48 42 38 36 37 38 38 44 52 48 43 47 54
44 46 53 56 57 64 69 73 72 71 76 82 85 90 94 93 88 83 80 82 79 78 69 67 65 63 60 57 53 52 48 43 36 35 36 36 38 39 50 52 47 43 46
45 50 59 65 70 78 85 88 85 89 91 94 94 90 85 80 74 71 68 64 62 61 60 54 53 51 44 41 40 40 42 43 43 37 36 36 38 38 39 51 53 50 45
56 63 71 81 86 91 95 97 96 95 94 91 86 79 73 67 64 64 61 58 55 54 56 53 48 47 46 38 37 36 35 35 38 42 39 37 37 36 37 40 52 54 49
69 76 81 86 88 91 91 90 88 85 83 76 67 63 60 58 56 55 53 50 48 46 47 47 41 38 36 32 30 31 32 31 29 31 32 34 34 34 32 34 38 52 54
76 81 85 89 92 92 88 83 77 70 62 59 55 54 52 48 47 43 39 37 35 34 36 39 38 34 36 36 37 34 32 35 31 30 28 29 33 32 31 30 30 33 50
80 85 89 89 86 79 76 72 66 63 60 57 54 49 45 41 35 33 35 34 37 38 40 43 44 43 44 46 46 47 45 44 40 38 33 29 29 34 36 31 30 30 31
85 81 80 76 72 69 64 61 60 58 56 51 50 46 38 33 33 33 36 41 46 51 55 60 61 61 63 66 67 65 63 60 54 56 47 38 36 30 32 36 34 32 32
74 71 69 65 61 60 58 57 55 53 50 47 41 38 37 36 40 46 51 58 66 70 73 76 75 74 74 77 75 73 73 71 70 70 63 51 47 39 35 32 33 31 34
68 66 63 60 56 52 51 49 45 43 44 40 37 37 39 44 54 63 71 75 79 82 87 89 88 87 88 89 88 86 82 77 78 79 79 64 63 50 46 39 34 34 36
48 41 38 38 39 39 39 39 40 43 41 37 37 40 49 60 73 83 83 84 86 89 93 93 92 93 92 93 93 93 91 86 82 86 84 78 79 66 59 49 39 36 35
36 37 37 38 40 43 45 44 44 45 42 41 41 49 66 78 86 88 89 90 90 91 92 94 95 94 94 96 97 96 95 94 91 88 90 87 86 85 73 63 52 45 38

GFSMA_prec_cthk_024.txt.gz
RH
48 47 48 47 47 47 48 49 49 48 47 43 42 41 41 42 39 41 40 35 33 31 28 27 29 34 35 36 37 47 66 77 85 84 89 86 81 76 59 56 54 47 38
49 48 48 48 47 47 47 48 49 47 47 46 45 43 42 45 44 41 42 40 38 37 36 35 33 32 34 36 37 38 47 47 69 82 86 92 86 81 80 73 72 66 56
47 46 50 49 49 48 46 46 46 45 45 47 45 45 45 46 46 44 45 46 43 42 41 39 39 38 36 33 32 36 42 43 57 65 72 86 93 90 88 83 83 80 69
53 52 54 52 50 49 49 49 49 48 47 46 45 46 46 47 47 46 48 50 50 50 47 45 43 42 42 41 39 35 32 34 38 46 49 62 71 74 84 89 93 93 89
58 57 56 56 55 52 49 48 48 48 48 49 48 47 46 45 46 48 50 50 51 50 53 51 49 48 46 45 43 42 40 37 33 35 48 52 56 65 72 83 93 95 92
54 53 52 51 53 54 54 53 52 51 51 49 48 48 48 48 47 47 48 49 50 52 53 53 52 53 52 51 50 48 45 43 43 41 37 50 60 61 69 79 88 97 96
56 56 55 54 55 58 59 59 59 60 58 58 55 53 51 51 51 50 49 50 51 51 52 53 54 55 55 55 53 52 50 48 47 46 47 42 45 56 65 72 82 86 93
62 62 61 59 60 59 59 60 59 57 59 61 61 61 57 55 53 50 52 54 53 53 54 55 53 54 55 56 55 55 52 49 48 48 48 48 46 44 48 62 74 87 89
69 65 60 57 55 54 54 54 54 56 57 56 61 62 59 55 60 60 51 50 57 56 56 58 58 56 56 57 55 53 53 52 48 47 47 48 49 49 46 43 51 71 84
68 65 59 55 50 50 51 48 49 49 53 50 56 57 57 59 64 66 60 55 55 58 57 58 62 62 59 59 57 56 52 50 48 45 44 45 46 46 48 48 43 42 55
64 60 56 47 45 46 45 46 47 49 49 49 49 53 56 57 58 69 65 74 68 61 60 55 60 73 69 66 63 60 56 54 48 44 41 40 41 43 44 45 47 45 41
49 50 51 48 46 44 43 42 41 41 43 44 45 48 50 55 58 67 69 68 86 80 64 59 63 71 79 79 73 67 59 57 52 46 41 38 36 37 40 43 42 43 45
50 49 44 41 40 36 35 33 35 39 44 48 50 54 58 61 65 68 73 75 80 77 86 70 71 79 77 83 82 73 67 60 52 47 44 41 36 33 33 35 40 42 40
42 40 37 36 37 39 42 44 46 50 54 57 60 63 67 68 72 75 77 81 82 89 83 83 91 89 87 86 83 75 72 66 60 52 45 41 39 36 33 33 37 39 41
40 42 44 49 52 53 53 55 58 62 65 70 75 78 80 83 85 88 91 94 94 93 93 92 90 90 88 82 78 78 76 71 63 55 48 43 38 34 34 34 36 38 41
36 41 49 52 55 58 66 70 75 81 82 82 83 88 92 97 97 96 95 93 93 92 90 86 84 82 80 74 71 67 67 62 54 50 46 41 35 33 30 31 34 37 39
45 50 56 61 67 73 78 84 88 90 96 97 96 97 94 93 90 88 86 87 83 79 76 73 73 72 69 66 62 60 57 57 53 52 45 36 29 27 28 27 28 33 39
52 55 64 71 78 83 87 91 94 93 92 91 89 85 81 77 76 75 78 77 74 71 70 66 64 62 59 57 58 57 54 51 49 44 42 38 29 24 24 25 25 26 33
58 66 75 83 87 90 91 92 91 88 85 78 73 69 66 67 67 66 64 62 61 61 61 59 54 54 52 48 44 43 42 41 40 38 35 33 32 26 22 22 23 24 25
73 80 85 84 85 84 83 80 77 75 71 70 69 67 65 64 66 65 63 60 55 52 54 54 50 47 47 47 47 47 47 48 47 47 45 39 38 35 30 24 23 23 24
88 88 80 76 72 70 69 64 62 64 62 62 63 63 62 59 55 49 49 47 48 44 48 49 47 42 45 46 46 46 46 46 43 47 45 42 42 40 37 34 28 25 24
80 78 77 71 67 68 60 57 56 58 58 57 57 58 57 53 53 49 41 42 43 46 50 53 53 53 56 61 62 62 60 58 54 56 53 49 48 43 40 41 39 39 32
70 55 44 41 42 43 38 36 35 35 39 42 48 50 49 47 46 46 48 51 53 56 62 69 71 73 73 77 79 77 77 75 71 70 69 62 62 55 49 44 37 34 29
40 39 39 38 39 41 36 35 36 38 43 46 47 47 47 43 45 51 55 59 65 73 80 83 82 83 85 87 89 90 88 84 80 76 73 68 70 64 62 53 44 37 31
34 35 34 37 40 43 47 45 45 50 52 49 45 46 49 49 51 58 65 71 80 86 89 89 90 89 89 92 95 97 94 95 89 89 89 83 76 72 72 64 56 44 38
36 38 41 47 51 56 60 58 56 54 51 53 52 53 53 54 60 71 78 84 90 94 94 89 90 93 95 96 96 95 96 97 98 97 96 95 90 83 80 73 67 61 49

GFSMA_prec_cthk_027.txt.gz
RH
57 55 52 50 53 52 52 52 52 51 53 52 49 47 47 46 46 46 46 42 39 37 35 33 32 31 29 31 38 49 58 59 67 73 83 88 87 86 83 79 73 57 54
54 53 54 53 54 53 53 51 49 49 48 49 49 46 45 44 46 48 46 44 42 39 39 38 37 36 36 36 34 36 41 44 42 61 75 80 88 89 89 90 82 70 67
58 58 58 57 59 58 54 54 52 50 50 50 48 46 43 41 42 44 43 44 44 44 42 41 40 39 39 38 37 35 36 39 41 40 49 64 74 87 92 89 90 80 83
57 56 57 57 58 54 56 56 55 54 53 52 50 48 45 42 41 41 41 42 44 45 45 44 43 43 43 42 41 40 38 36 36 42 45 49 52 70 87 91 89 90 90
57 57 57 56 56 54 53 54 54 57 58 58 57 52 48 45 44 42 41 41 40 41 43 42 45 44 45 45 45 43 42 41 39 37 37 38 45 58 69 73 89 90 94
62 62 61 62 62 62 60 61 61 61 60 59 58 57 54 52 49 48 48 44 43 43 42 43 39 41 42 45 46 47 46 45 43 42 41 39 38 44 53 61 65 83 88
68 67 65 67 67 66 63 59 60 61 59 61 62 65 62 57 54 52 50 50 49 46 44 44 45 44 42 42 44 46 48 48 48 47 45 44 43 41 41 54 58 65 74
71 76 74 78 74 68 61 56 55 54 53 55 59 64 64 60 62 56 52 50 50 50 49 45 45 47 49 42 42 44 47 49 49 48 48 49 47 45 45 43 47 56 64
79 75 68 63 62 56 50 50 51 52 52 50 57 64 66 64 65 63 67 65 58 53 49 52 46 46 46 49 47 42 46 48 49 49 48 48 49 48 47 46 46 45 50
60 59 57 55 53 51 48 52 54 53 55 48 51 57 62 67 69 68 67 72 73 67 62 57 59 55 51 49 51 53 47 50 51 50 49 49 47 48 48 47 46 47 46
54 52 51 48 46 46 45 45 44 45 45 44 43 44 43 45 52 56 55 64 75 75 78 77 74 65 59 59 55 58 54 52 53 54 53 51 48 45 45 46 46 46 45
53 49 46 44 43 45 48 47 45 45 42 43 44 47 50 49 53 57 61 66 61 82 67 77 83 85 75 73 71 66 57 58 63 59 55 53 52 47 43 42 43 44 44
45 42 40 40 43 42 42 42 42 43 45 46 47 50 53 57 60 61 64 66 73 79 87 73 80 82 77 78 78 78 67 59 65 67 60 53 51 51 48 42 38 38 40
41 43 46 45 44 42 48 50 52 52 53 56 58 62 65 68 71 72 72 74 75 76 83 89 88 88 80 82 84 71 69 65 69 70 63 58 53 49 48 46 41 36 34
46 48 44 47 48 53 50 55 59 65 70 68 73 76 81 87 87 86 88 85 84 84 83 84 93 96 94 97 80 79 74 73 75 80 75 68 60 53 49 46 43 41 38
48 45 47 47 50 52 57 61 67 76 81 87 88 89 90 96 97 97 94 94 93 96 95 95 94 91 89 86 81 87 79 76 76 76 75 70 61 53 47 45 42 41 39
46 46 43 45 51 56 64 70 78 83 86 92 95 97 97 96 95 92 92 91 90 92 90 85 87 86 86 86 86 83 80 76 74 72 69 66 63 58 49 42 39 36 34
50 49 53 60 67 73 78 83 85 87 87 89 92 92 89 84 78 78 78 80 82 87 85 78 81 78 74 72 71 75 75 73 69 66 64 59 56 55 49 43 36 33 30
58 68 74 77 80 85 84 81 79 83 80 76 77 76 76 76 76 76 76 75 75 78 76 70 65 63 61 61 59 59 60 62 61 58 57 53 49 49 44 37 36 31 27
72 81 85 88 86 80 74 69 69 59 58 61 65 67 68 69 71 76 75 71 70 69 67 64 60 59 62 61 61 60 59 57 54 57 59 54 51 48 41 39 32 27 23
71 76 82 79 64 52 51 42 38 37 36 38 43 47 57 66 63 62 63 62 63 60 63 62 58 56 58 53 50 53 56 56 53 53 53 51 50 50 46 43 39 32 26
74 75 54 48 51 50 47 39 36 34 34 35 39 41 47 48 50 52 53 51 52 54 53 50 48 48 51 55 57 60 61 61 59 61 58 52 53 50 47 46 46 47 38
56 49 48 51 50 47 45 38 37 39 42 44 49 53 53 51 50 54 53 49 49 49 54 57 58 60 64 67 69 69 68 66 64 63 65 59 59 55 53 54 47 43 43
49 48 47 46 46 50 50 45 49 53 56 60 61 62 63 58 54 49 49 49 51 57 63 70 72 72 78 82 83 81 80 77 74 72 74 67 67 63 61 56 55 48 43
48 48 48 49 48 51 55 52 52 55 61 64 65 64 62 59 57 57 55 55 59 67 77 79 83 85 88 89 90 91 89 92 86 84 86 84 77 70 67 62 58 54 51
52 51 48 50 50 50 56 60 64 68 69 70 69 68 67 66 61 60 61 66 73 82 87 89 95 91 93 91 92 94 94 93 95 92 93 94 90 87 83 75 66 61 59

GFSMA_prec_cthk_030.txt.gz
RH
52 50 51 52 52 52 53 52 49 47 46 47 47 45 41 40 41 40 42 42 42 41 38 36 36 36 35 33 33 34 48 57 64 71 73 76 80 79 75 76 81 83 79
56 55 55 54 53 52 50 48 47 45 44 44 43 42 41 39 37 37 41 42 39 39 39 38 38 38 38 39 40 39 37 40 48 56 65 64 75 77 86 83 80 79 79
57 54 54 52 52 50 48 45 44 45 44 44 44 44 42 38 36 35 34 36 35 34 36 36 37 38 39 40 40 40 42 42 40 39 45 50 49 65 77 84 88 86 82
59 55 54 54 53 51 49 49 48 46 46 47 47 48 48 48 45 40 37 35 36 34 33 33 33 34 36 38 41 42 42 41 39 41 43 43 41 45 60 75 88 87 91
62 60 59 59 61 61 61 60 57 59 60 57 53 53 52 55 53 51 47 43 41 41 39 36 36 35 33 34 36 40 42 44 45 43 40 42 49 46 46 57 66 80 92
62 61 61 66 69 68 68 67 66 63 62 59 51 49 49 49 53 57 54 51 50 48 47 42 40 38 38 36 34 35 38 41 44 47 47 45 41 43 47 48 53 61 78
63 62 61 63 65 63 59 58 57 54 51 51 48 47 43 43 46 54 58 60 56 52 49 49 46 44 41 41 37 36 36 38 40 43 47 49 48 46 43 42 47 52 63
64 64 63 59 54 52 49 48 46 43 40 44 48 50 47 41 44 48 55 60 62 65 60 55 50 46 44 43 42 40 38 39 39 41 43 47 50 51 50 46 44 43 48
69 65 62 54 49 47 44 42 40 41 44 46 53 59 57 52 50 46 49 58 74 81 81 91 76 61 58 48 44 41 41 41 42 42 42 43 46 48 51 52 50 46 43
58 56 53 48 46 44 41 40 42 45 46 44 45 49 49 55 56 50 45 43 53 67 77 86 87 90 89 75 55 43 46 46 46 45 46 45 44 45 47 49 52 52 48
50 51 50 49 47 46 44 46 46 46 48 49 49 45 42 42 49 60 50 48 50 53 63 73 88 93 90 89 81 63 52 51 53 52 48 48 48 46 46 47 47 48 52
54 53 52 45 42 42 44 47 52 49 48 47 48 49 49 48 45 53 57 48 48 47 53 67 77 97 98 92 97 91 64 65 68 66 63 53 50 51 49 48 45 44 46
53 49 47 46 45 45 43 43 43 48 47 46 46 47 52 56 55 56 62 62 55 49 53 60 65 84 83 91 97 91 77 85 70 72 72 69 62 55 53 53 49 47 43
52 49 48 47 46 43 45 50 50 48 48 52 55 56 58 66 69 71 76 79 75 70 63 60 67 79 78 82 96 96 94 84 79 66 67 69 66 61 54 54 55 49 46
49 45 43 41 42 45 45 46 48 49 53 60 70 75 75 79 78 82 85 89 96 95 83 77 80 78 86 87 97 92 97 95 82 82 63 62 63 60 57 54 55 55 49
47 45 44 44 40 40 45 50 54 62 67 70 74 79 83 87 91 93 94 94 93 94 87 86 89 86 91 92 97 91 94 79 88 79 72 69 68 64 62 57 54 54 53
44 48 51 48 51 58 63 67 68 72 79 80 80 82 85 86 88 89 90 88 90 92 88 83 80 85 90 90 93 94 93 92 87 78 78 70 62 56 56 57 54 52 50
49 51 54 58 66 70 71 74 76 77 69 68 69 67 63 69 73 73 74 78 82 81 79 73 73 76 78 84 87 90 91 90 89 84 81 78 71 67 63 62 58 58 53
47 53 60 64 74 79 82 78 62 56 49 47 42 34 41 46 50 58 70 75 77 76 76 72 68 68 64 63 64 64 67 69 69 68 67 68 64 63 59 57 54 55 54
49 57 60 66 71 67 53 47 49 45 43 41 35 32 34 39 43 49 53 61 71 74 72 70 63 61 62 61 61 63 65 65 62 61 60 59 61 62 60 61 58 53 49
53 57 60 58 51 48 50 55 48 43 41 35 30 30 34 39 46 50 53 49 46 50 57 57 60 60 60 63 68 66 62 61 58 59 58 54 53 56 57 56 51 49 47
60 60 52 49 50 55 52 45 41 42 42 42 43 44 50 53 57 63 62 54 48 45 48 52 50 53 52 53 56 61 61 59 56 57 58 55 56 51 47 49 52 50 45
62 53 48 49 52 50 47 44 45 48 49 50 52 56 59 63 64 68 66 65 59 53 48 44 51 51 57 58 61 61 63 64 64 63 65 63 63 60 58 56 53 51 50
57 51 48 50 48 48 51 48 50 56 59 61 66 69 70 69 68 65 60 55 53 53 51 53 57 59 68 70 76 76 74 73 71 69 73 66 66 63 63 61 58 56 53
60 49 51 51 50 49 50 57 63 65 66 67 68 74 76 73 70 69 68 63 58 54 58 61 65 70 76 79 81 83 84 84 79 76 79 79 78 74 71 66 62 57 53
59 51 52 54 53 52 59 62 67 70 74 81 82 82 85 84 80 75 71 67 63 64 68 72 75 80 85 92 93 92 91 92 92 89 90 92 88 88 84 79 75 69 66

GFSMA_prec_cthk_033.txt.gz
RH
50 53 54 52 49 48 48 47 46 44 40 38 38 37 37 35 33 33 32 31 33 37 38 37 37 36 36 36 36 35 34 42 54 58 62 61 64 67 67 65 69 80 81
52 55 53 50 48 49 50 49 46 44 42 40 39 38 37 37 38 37 36 33 30 32 32 32 33 34 35 36 37 39 39 38 42 52 58 63 66 69 67 73 77 78 82
54 55 53 53 54 52 52 52 51 50 50 48 46 44 45 44 43 41 41 41 38 35 32 31 31 31 30 33 36 39 40 43 43 43 47 54 58 61 67 79 87 81 83
58 58 58 55 53 52 53 54 57 54 54 53 52 50 51 51 49 45 44 45 45 41 39 38 35 34 33 31 31 33 37 40 42 46 47 44 43 49 56 63 75 88 88
61 58 59 57 55 54 54 53 51 51 50 49 49 50 47 45 44 46 45 45 45 46 47 45 42 40 38 37 35 33 33 35 39 42 44 46 48 48 46 49 55 67 90
64 61 63 63 60 58 55 53 48 47 48 48 45 39 38 39 38 40 38 44 50 50 47 47 48 47 44 42 41 39 37 35 35 38 42 45 46 46 49 52 48 53 62
62 63 64 62 59 55 51 48 44 41 38 37 36 33 34 36 36 36 39 39 42 50 60 57 52 52 52 50 48 45 43 40 38 38 38 40 45 48 49 47 48 53 51
65 65 64 61 55 48 46 44 43 40 38 38 42 41 38 35 38 41 44 47 49 55 60 70 78 74 66 60 59 60 54 47 43 42 40 39 40 43 48 50 50 45 48
66 65 59 52 49 49 48 46 45 41 39 41 47 50 50 48 45 39 37 41 45 48 55 62 71 80 80 85 76 76 65 60 50 47 43 42 42 42 43 47 51 53 50
51 52 52 52 53 51 49 42 42 43 46 48 50 55 58 61 58 48 43 42 43 41 44 52 61 82 93 91 87 86 84 77 65 57 50 47 43 42 43 44 46 50 54
56 56 58 58 52 45 45 44 47 48 48 47 46 42 46 46 51 48 39 37 36 38 42 47 54 61 69 90 87 95 95 90 83 74 56 52 48 45 44 45 46 48 49
56 56 52 47 45 45 45 44 43 42 41 42 43 45 45 42 42 49 46 36 34 31 32 39 47 54 61 71 88 86 96 91 91 87 76 65 56 51 49 46 47 48 48
52 49 45 41 42 46 44 42 42 42 43 41 37 39 43 47 50 55 60 56 52 40 39 45 52 50 55 63 70 97 96 98 96 90 91 85 77 69 63 56 50 47 49
50 47 50 50 49 45 42 42 42 38 37 39 42 46 55 61 65 70 71 74 68 61 56 57 60 64 62 60 67 68 83 99 99 98 97 94 92 93 79 68 61 54 49
59 57 51 46 42 41 40 40 41 44 46 50 54 58 61 68 74 82 85 86 90 74 65 70 72 76 78 71 70 81 70 83 96 99 97 93 95 91 89 74 65 60 53
62 54 47 43 45 46 46 51 55 56 58 61 65 71 74 72 75 79 83 88 93 90 73 74 76 80 82 86 85 79 84 86 93 91 97 97 90 88 83 73 66 57 54
47 47 50 51 50 54 56 61 67 68 70 74 72 60 57 59 58 60 56 65 65 77 78 70 71 74 77 79 90 96 94 95 97 97 94 93 90 85 76 71 63 57 56
48 51 54 55 58 60 64 67 72 75 69 53 52 56 55 56 41 33 40 47 53 55 58 64 69 72 72 73 72 76 87 87 92 94 96 93 92 89 80 77 71 61 57
49 48 56 60 61 62 62 61 55 49 48 52 54 54 51 45 35 30 35 38 40 44 50 56 66 70 68 66 64 64 67 73 80 84 86 85 87 82 79 75 68 58 52
44 50 58 66 61 52 49 44 48 49 50 48 46 44 40 36 34 36 41 43 44 43 42 41 44 61 66 65 63 62 58 62 64 70 71 70 69 66 61 61 60 58 57
44 54 63 65 62 50 46 50 52 50 45 43 42 43 43 44 49 58 62 56 55 54 49 45 42 45 59 59 57 60 61 61 61 66 65 67 69 66 62 59 58 64 67
67 60 63 70 54 46 50 53 52 45 45 47 48 49 51 56 61 66 69 70 71 66 61 58 54 49 45 50 56 58 56 56 54 52 56 53 55 53 56 56 54 56 60
80 70 67 74 51 53 57 55 48 46 50 53 55 55 55 60 63 66 72 72 72 71 66 61 58 49 47 52 59 61 64 64 63 62 61 56 57 52 51 52 52 52 51
84 82 77 62 54 60 57 53 52 53 55 60 66 69 69 72 78 73 70 71 70 67 66 63 59 51 55 54 63 66 69 71 70 68 71 64 64 60 59 56 55 55 54
85 76 81 54 57 56 53 53 52 54 61 70 78 81 83 83 88 88 82 80 74 69 69 67 63 59 58 61 70 73 75 76 71 69 71 70 61 59 60 59 60 59 57
75 87 53 56 56 54 55 56 55 60 70 77 84 86 91 96 95 90 84 81 72 68 65 63 60 60 68 73 75 77 81 85 88 90 86 84 80 79 71 63 66 63 62

GFSMA_prec_cthk_036.txt.gz
RH
46 50 49 49 47 47 47 47 46 44 43 42 41 39 36 34 34 34 34 34 34 33 30 30 32 34 36 36 36 37 37 38 45 57 64 74 77 66 60 67 65 69 75
50 49 51 53 54 52 50 48 47 47 46 47 45 45 44 42 40 40 42 41 40 39 37 35 32 30 30 31 34 36 38 40 41 42 58 71 73 72 72 67 74 71 69
53 53 57 58 57 55 51 50 48 47 46 45 46 46 45 45 47 47 48 49 48 44 43 42 38 36 33 31 31 31 34 37 40 44 43 52 68 79 74 78 75 77 71
62 62 62 60 56 52 53 55 52 50 48 46 44 40 42 42 44 45 45 44 45 44 42 44 45 43 40 39 37 33 32 33 36 38 43 46 51 64 68 75 77 79 81
62 60 58 58 55 54 56 56 56 52 47 42 40 38 37 36 35 36 39 40 36 39 45 49 48 49 48 45 43 41 38 35 33 35 38 40 44 50 60 64 65 82 85
68 65 63 63 61 61 60 60 54 45 41 38 35 32 29 28 27 28 31 34 37 37 37 40 45 48 52 54 53 50 45 43 39 36 35 38 41 43 45 50 54 56 68
68 70 72 68 67 64 60 53 45 42 40 37 32 29 28 29 31 32 35 38 39 40 39 39 40 44 48 53 56 61 58 52 48 44 40 37 38 41 44 45 46 50 51
73 74 69 65 63 60 53 48 48 46 42 36 34 35 32 30 32 34 34 37 40 43 46 49 51 51 51 55 58 64 69 67 60 54 49 45 41 39 40 44 47 46 44
61 60 58 57 56 54 54 53 48 41 38 40 43 47 45 41 36 32 32 35 39 40 41 43 47 52 55 54 59 68 72 74 78 69 60 52 47 44 41 40 44 48 48
55 56 56 56 55 52 45 40 40 42 46 46 43 42 43 44 42 31 33 33 31 32 34 36 40 44 52 59 61 61 69 77 83 84 80 72 58 51 45 42 41 43 48
55 55 54 52 46 43 42 42 42 44 45 48 50 48 48 45 48 47 36 36 31 31 34 35 34 35 39 47 55 62 73 83 96 97 90 84 78 64 54 48 43 42 42
54 51 51 50 49 48 47 46 48 50 47 48 51 49 48 46 47 48 46 36 37 32 34 37 38 36 40 41 46 55 63 69 94 95 93 95 93 85 70 56 51 46 43
52 52 52 51 52 52 49 50 52 55 52 50 50 45 44 47 50 54 58 55 51 44 45 46 44 46 46 45 45 48 55 67 69 85 98 99 96 94 86 73 63 55 50
51 54 55 54 52 48 48 45 45 47 49 49 46 48 51 55 60 60 64 67 64 60 57 54 57 59 58 58 57 53 54 60 69 73 94 97 96 97 95 90 82 65 55
51 46 43 43 45 46 46 52 53 55 56 56 58 62 67 70 71 73 71 75 79 68 62 63 66 71 69 66 67 68 65 66 64 67 83 93 98 98 97 95 89 80 71
46 44 43 44 44 48 53 54 57 60 62 65 66 69 72 65 62 60 62 64 69 70 57 62 55 62 74 75 76 76 82 80 75 70 73 89 96 98 98 98 98 97 94
43 40 35 37 39 42 48 54 55 60 63 67 65 57 57 56 65 63 62 56 49 46 49 45 48 49 57 68 73 77 81 86 87 81 83 86 96 98 96 95 93 89 89
45 43 32 36 41 47 49 54 53 50 50 49 52 53 59 59 55 53 49 43 38 35 39 37 40 40 46 59 71 70 71 79 84 86 90 91 89 85 85 91 95 85 81
57 56 50 53 60 68 61 54 53 51 50 49 57 56 54 49 42 39 37 34 31 30 34 38 37 38 40 44 56 67 71 67 67 74 86 82 91 90 97 95 90 93 83
66 76 78 71 78 81 74 58 53 50 50 50 50 47 45 45 43 44 46 46 46 45 44 44 43 43 42 39 46 60 60 60 59 64 67 74 83 85 85 87 89 90 87
75 94 94 85 84 77 65 56 48 49 51 49 47 47 48 48 49 55 60 60 62 62 60 58 56 54 50 44 41 49 60 60 56 57 59 70 74 75 77 77 77 78 75
91 91 86 87 82 66 59 52 52 51 48 48 49 49 51 53 57 61 62 64 70 73 70 73 70 62 52 52 46 42 54 62 61 56 55 58 65 73 71 71 72 70 68
97 96 94 84 77 62 58 52 50 49 49 49 49 53 59 66 69 69 74 79 81 79 73 76 73 66 58 53 51 44 48 62 65 63 63 57 53 48 52 56 61 62 61
97 97 88 85 71 68 53 49 48 50 50 50 55 65 71 73 75 83 89 91 93 92 84 77 73 67 61 53 54 52 48 59 64 65 67 63 61 57 58 53 50 48 48
88 88 87 78 74 54 49 46 48 49 48 51 64 75 77 79 91 96 96 95 92 88 82 78 71 67 65 59 58 56 50 61 63 66 71 71 63 62 59 55 53 54 55
85 85 80 76 51 50 45 47 48 46 43 49 69 82 86 90 95 98 98 98 92 87 81 75 69 64 60 55 57 59 63 64 71 71 73 70 72 71 63 58 56 56 58

GFSMA_prec_cthk_042.txt.gz
RH
53 51 50 52 49 49 50 50 51 50 50 49 48 48 48 47 46 44 43 45 45 44 43 41 39 38 38 37 34 30 28 28 30 31 30 28 36 47 55 60 65 69 66
56 58 56 55 52 54 58 57 57 55 53 52 51 50 49 46 45 43 41 40 41 40 40 40 42 41 42 41 39 36 33 29 29 28 29 30 29 36 57 63 60 64 68
59 60 59 57 59 60 60 60 61 59 57 57 56 54 51 48 43 37 35 35 36 38 38 40 41 40 43 43 41 39 37 35 33 30 30 29 30 31 41 62 65 69 70
63 63 64 63 61 60 62 64 67 63 58 56 51 49 45 43 35 32 30 28 27 27 27 27 29 32 34 40 41 41 39 40 38 35 32 31 30 31 33 41 59 69 79
65 67 64 62 70 70 78 70 62 57 54 52 49 46 43 40 36 34 31 30 30 30 30 29 29 29 28 28 33 38 38 40 41 43 38 36 33 32 33 33 38 52 74
67 64 68 70 64 62 61 58 56 54 49 46 44 42 38 34 30 30 31 32 32 32 32 32 31 32 33 32 32 33 37 37 40 41 47 44 39 35 34 34 34 35 50
59 61 61 62 60 55 53 53 52 48 44 39 32 30 30 31 35 34 32 31 32 31 30 30 30 31 34 35 37 38 38 40 40 36 41 53 50 43 39 35 35 35 34
55 56 57 54 52 53 52 50 45 40 37 35 33 31 30 29 31 36 37 34 34 33 31 28 27 25 24 25 29 35 38 42 45 44 42 44 55 60 51 46 38 36 36
58 56 55 55 55 51 47 42 39 37 34 32 32 34 35 35 34 35 37 38 40 40 38 35 33 33 32 30 27 26 28 35 41 49 52 50 50 55 63 64 56 43 37
60 57 53 49 44 40 37 36 34 33 33 34 35 38 41 43 45 42 41 35 36 35 36 37 36 36 36 36 34 32 30 31 34 42 51 58 58 57 59 71 73 62 48
53 49 44 37 35 35 34 33 35 35 36 37 37 36 36 38 41 46 42 44 38 34 36 37 38 39 38 38 39 39 37 35 33 32 35 50 60 65 63 67 81 79 66
43 38 34 33 33 32 29 30 30 31 32 34 36 37 37 39 41 48 52 51 46 40 42 45 48 51 49 45 42 40 40 42 40 36 34 35 51 68 64 68 81 83 82
32 29 30 31 34 34 33 32 30 29 32 37 39 42 45 47 51 54 59 60 59 50 43 43 48 55 57 55 52 49 45 41 39 38 35 32 36 54 66 76 75 83 95
30 32 33 35 35 38 38 39 39 39 41 43 49 52 54 56 61 68 72 73 69 58 51 45 42 46 54 58 57 56 54 49 44 38 35 33 34 39 53 75 71 90 88
37 41 38 38 39 43 47 52 55 58 58 55 58 64 59 53 53 54 61 69 71 60 41 40 45 43 42 43 46 50 51 53 53 49 42 37 38 40 46 64 75 94 96
39 42 46 46 48 48 51 55 64 64 69 69 75 71 62 56 56 54 55 60 61 57 53 45 37 40 39 39 45 42 38 42 43 45 49 47 42 46 52 55 76 83 93
43 47 49 51 48 50 53 60 69 73 79 77 74 68 60 52 49 51 51 51 52 55 51 39 40 39 39 38 40 41 36 34 36 37 38 48 52 50 55 59 76 90 92
42 47 50 53 51 56 53 67 78 82 81 73 67 54 47 48 49 49 49 49 48 49 51 47 43 43 43 43 46 41 34 33 33 33 32 35 49 53 60 64 69 85 93
41 42 46 45 49 56 68 77 83 86 78 72 59 51 47 46 46 46 44 43 43 45 51 53 48 47 47 51 52 50 43 36 32 32 32 33 39 55 59 71 79 73 70
34 38 42 51 59 71 85 84 87 86 74 65 54 48 46 46 45 45 45 45 50 58 64 67 65 64 61 57 61 61 57 50 39 34 29 31 32 50 61 74 82 80 73
35 40 44 49 61 79 81 87 84 77 69 54 46 45 45 46 49 48 49 56 69 71 73 71 74 76 76 74 70 68 64 60 47 39 33 28 30 36 60 70 82 85 81
38 42 46 55 65 71 77 79 76 66 49 43 42 42 43 43 42 45 58 71 77 80 85 87 85 83 83 85 84 74 70 67 56 50 40 33 30 34 49 66 75 81 91
42 44 52 56 60 62 67 70 57 45 43 43 43 43 40 40 43 56 70 80 91 96 98 96 93 94 91 95 96 91 77 71 64 60 50 37 35 35 45 56 66 74 84
48 45 56 62 64 68 63 46 46 44 44 45 43 42 43 43 54 73 81 91 97 97 99 99 98 97 94 94 97 96 86 77 67 61 58 41 40 36 45 57 57 59 68
60 65 66 72 73 61 46 45 46 45 44 43 43 45 46 50 73 86 92 95 97 97 98 99 99 99 96 92 94 90 81 77 71 69 60 47 43 42 45 57 62 60 58
71 77 79 80 69 50 45 48 49 46 44 43 44 47 49 60 83 92 96 98 97 98 98 96 98 97 93 90 87 85 79 77 72 64 58 50 53 54 54 68 68 65 63

GFSMA_prec_cthk_045.txt.gz
RH
65 61 57 55 55 53 53 53 55 55 55 54 52 51 49 48 47 45 42 40 36 34 35 35 36 36 36 36 34 33 31 29 28 30 30 29 29 28 38 56 63 63 63
72 68 63 62 58 59 61 58 57 56 58 58 57 53 51 51 48 44 41 38 34 32 34 35 35 35 36 35 35 37 36 35 33 29 29 31 31 30 30 37 52 59 63
77 73 64 60 60 60 58 58 63 62 65 64 59 58 52 47 44 40 35 32 29 27 26 25 26 29 33 35 35 35 37 36 36 36 33 30 31 32 31 32 38 56 64
72 69 66 68 66 59 63 69 72 63 63 55 51 49 48 44 41 38 35 30 28 27 27 26 25 24 24 25 26 29 35 37 36 35 36 35 33 31 32 31 31 36 63
67 68 65 65 62 68 65 63 60 56 51 49 47 46 43 39 35 30 27 26 27 28 29 29 29 29 28 27 27 27 26 30 35 35 36 39 39 35 33 33 32 32 37
58 57 58 60 61 61 60 57 54 53 49 44 38 33 30 28 27 27 27 28 28 28 27 26 25 26 27 27 28 28 29 30 31 35 34 34 38 44 39 36 33 32 33
57 57 57 56 54 52 50 48 45 40 36 32 29 30 26 24 26 27 26 25 26 26 25 23 23 22 22 22 23 26 31 31 32 33 36 36 36 37 45 44 40 35 33
61 59 57 55 54 50 46 42 37 32 28 26 26 30 32 33 33 32 31 29 29 29 28 27 27 26 26 25 24 24 23 24 30 34 36 37 40 38 38 45 47 45 39
60 56 52 49 46 40 35 31 29 27 27 27 27 32 34 32 33 31 32 29 29 28 27 28 29 30 32 32 31 29 27 26 25 25 30 36 40 42 42 43 48 53 52
57 51 45 38 31 28 26 26 24 23 24 28 27 29 31 35 38 36 36 30 28 30 30 29 30 32 32 32 30 32 34 32 30 29 28 28 34 43 47 47 47 53 59
50 42 33 27 27 28 28 27 26 26 25 27 32 32 31 37 40 43 46 44 44 37 36 34 34 35 36 37 37 36 34 33 35 36 34 31 30 34 46 51 51 52 59
38 33 31 32 33 33 31 32 32 33 35 36 38 41 41 43 48 53 53 51 53 48 45 42 42 48 49 48 46 41 37 34 34 33 35 38 36 31 34 47 57 55 60
34 34 36 38 38 37 38 39 39 39 40 44 47 48 49 52 53 59 63 65 62 61 58 52 55 56 57 53 50 48 44 40 36 34 31 29 31 36 36 36 48 58 60
37 38 39 38 41 43 43 40 37 40 42 50 53 52 55 60 65 59 62 63 63 53 46 51 48 46 45 47 45 43 46 45 44 39 38 35 31 29 31 39 44 49 56
40 42 40 42 43 43 39 39 44 51 51 54 55 61 63 62 62 61 58 57 54 49 42 54 50 52 44 45 37 41 38 36 39 42 41 41 37 33 30 33 43 52 54
43 43 40 39 41 45 48 48 52 51 58 66 71 68 65 64 60 55 51 52 55 53 43 47 45 47 43 42 42 38 35 32 34 34 32 36 44 40 37 35 40 51 64
39 35 36 42 44 45 49 55 56 61 70 74 73 69 67 62 53 48 48 49 49 49 44 41 43 43 46 47 50 51 49 47 45 37 32 32 33 40 40 40 41 48 67
29 30 32 38 43 50 58 59 63 69 77 78 75 68 65 55 46 45 45 44 46 47 47 46 43 46 50 52 51 51 53 55 57 45 35 33 32 30 36 40 42 49 56
27 28 31 38 44 49 49 58 76 76 77 78 75 68 53 43 44 44 46 47 52 52 51 54 53 65 63 65 63 61 59 54 53 49 39 34 32 31 33 38 46 52 63
28 27 31 35 38 44 53 74 78 77 74 74 67 47 41 42 46 47 48 49 52 55 66 72 72 73 75 75 75 70 69 68 60 57 47 39 34 30 29 35 44 56 71
29 30 31 36 42 51 60 65 67 65 65 57 42 41 40 42 42 43 47 50 59 72 78 82 86 87 89 89 87 84 77 75 70 63 57 47 39 33 27 30 41 50 77
32 33 36 41 43 53 62 61 63 58 44 42 40 40 40 39 41 42 44 54 74 81 89 93 94 94 96 97 98 96 88 84 80 76 64 56 48 40 33 33 39 50 65
34 38 44 51 58 61 68 67 51 41 43 43 42 39 38 41 44 47 52 73 85 93 94 95 94 98 97 99 99 98 93 90 91 87 72 63 60 46 40 33 32 49 56
38 45 55 65 71 76 76 59 43 41 45 45 41 39 40 45 47 51 68 83 92 96 98 99 99 99 100 100 100 99 96 96 97 91 76 65 65 56 47 37 33 38 54
44 53 64 73 82 81 67 46 41 45 47 43 40 40 44 47 49 57 78 87 92 97 99 99 98 98 99 97 95 94 95 97 98 90 85 75 69 63 53 39 34 37 48
52 61 70 80 83 72 48 44 43 48 45 42 42 44 47 50 51 65 82 89 92 98 98 97 98 99 98 93 91 92 92 92 90 90 85 77 73 65 55 48 43 42 53

GFSMA_prec_cthk_048.txt.gz
RH
76 77 80 80 72 68 63 62 61 56 54 52 52 54 57 52 50 48 47 42 40 38 34 30 29 31 31 30 30 31 34 35 33 31 29 29 30 31 32 31 40 56 58
83 87 86 86 72 65 62 64 58 56 60 59 61 57 59 57 54 49 46 44 35 31 29 27 26 27 29 32 31 31 32 32 36 37 34 31 29 28 29 30 30 38 55
83 84 84 75 74 71 68 65 61 63 67 62 62 58 58 54 50 44 42 39 37 31 26 24 24 23 23 23 24 26 29 31 32 35 38 37 36 33 30 28 29 31 36
80 76 75 72 67 63 64 63 63 64 62 60 57 54 49 46 44 39 37 33 30 28 27 24 22 23 24 24 25 24 23 24 26 31 36 37 37 38 37 33 29 30 33
69 66 59 56 57 58 60 60 60 55 53 49 46 41 37 34 30 29 28 29 28 26 26 25 21 23 22 22 24 25 27 26 26 25 27 35 37 37 38 39 37 31 29
56 55 56 56 58 58 54 47 46 45 41 38 34 30 31 28 27 30 28 28 29 26 24 23 22 23 21 18 18 19 22 25 26 25 27 28 32 36 38 39 43 41 33
63 61 57 55 54 52 46 44 40 35 31 32 31 30 29 32 39 37 34 32 31 28 27 26 25 25 26 25 24 20 18 18 19 22 27 28 29 33 36 38 40 45 44
68 66 62 59 54 50 45 39 33 29 29 33 35 31 28 29 32 47 42 39 35 28 31 31 29 26 25 28 30 26 24 23 22 21 22 23 29 31 34 37 39 41 46
67 62 56 51 46 39 34 31 30 30 31 31 36 36 36 33 35 31 39 41 39 35 32 32 32 32 32 32 32 35 27 24 26 26 26 25 23 25 32 36 40 42 41
61 55 49 41 36 33 33 33 34 33 33 33 32 36 42 44 41 36 38 37 40 41 39 37 38 40 40 39 38 36 29 27 27 27 29 30 29 26 25 31 38 44 47
56 46 39 36 37 37 38 37 37 38 37 40 43 44 50 49 52 53 48 45 49 50 50 50 46 46 48 45 45 50 37 31 30 30 30 30 31 32 30 27 30 39 48
51 44 40 40 40 41 41 43 43 42 45 51 55 58 63 65 66 68 69 69 68 55 59 54 60 52 54 56 56 50 44 38 36 35 33 31 31 31 33 34 29 31 43
48 50 50 52 51 48 46 51 56 53 51 57 63 61 62 64 63 66 71 74 71 52 49 58 62 61 59 55 54 53 46 40 39 39 38 35 32 32 32 32 35 35 35
48 49 47 48 50 48 55 53 51 54 60 64 66 65 68 64 72 74 72 72 63 52 54 54 57 62 68 63 59 43 42 38 38 37 38 38 36 33 32 30 30 33 38
51 49 48 48 46 50 53 51 53 61 57 61 62 68 67 71 69 70 71 70 66 50 52 54 53 54 55 61 61 55 48 41 33 30 30 29 35 35 34 33 30 28 31
41 42 41 40 46 46 51 54 59 62 62 58 61 65 66 72 72 68 68 65 60 57 53 49 47 46 49 52 54 52 52 49 41 36 33 28 28 28 30 33 34 32 30
39 37 37 37 38 39 49 54 61 60 48 61 66 68 71 74 73 70 59 54 50 52 54 49 51 50 48 53 54 58 55 54 57 56 49 42 34 26 25 27 32 35 34
36 34 32 32 38 39 45 37 39 43 56 71 73 72 73 72 68 53 51 52 56 56 58 57 50 54 54 56 59 63 60 59 60 57 62 54 44 33 29 25 26 32 37
36 34 35 39 39 40 37 38 46 56 71 77 73 70 68 61 50 51 51 52 55 54 54 55 50 61 67 70 68 68 68 65 65 65 57 49 48 42 36 32 29 28 35
37 35 37 35 33 34 37 41 50 63 68 68 66 62 50 48 48 48 46 48 51 53 53 61 71 75 78 84 86 84 80 78 75 72 69 60 52 48 40 35 31 30 34
38 36 35 35 34 38 45 54 60 69 71 65 50 46 46 44 40 39 43 44 50 52 62 76 82 86 88 91 93 92 90 88 85 84 75 68 67 60 59 48 37 31 35
41 41 42 43 45 50 52 61 68 78 68 49 44 46 46 43 43 42 44 46 50 62 80 87 89 91 95 96 97 97 96 94 91 93 88 78 76 66 60 59 53 41 41
41 42 42 47 53 59 63 71 79 71 47 44 45 46 44 44 45 49 50 50 61 82 90 91 94 97 97 99 97 99 98 96 93 94 90 86 86 73 63 55 46 38 38
41 37 42 52 62 66 72 80 71 48 46 47 47 44 43 44 49 46 49 56 74 88 94 96 99 99 100 99 99 97 98 98 96 93 94 90 92 75 66 58 46 36 30
41 42 46 56 68 72 78 75 49 47 47 50 46 45 42 44 47 48 51 62 83 92 95 99 99 98 98 96 96 92 92 93 95 98 98 98 95 78 69 62 54 41 31
40 45 52 61 70 77 77 53 47 47 51 47 44 46 44 43 44 50 55 70 86 94 97 99 99 99 100 99 93 91 91 93 96 98 96 99 96 82 72 62 59 50 36

GFSMA_prec_cthk_051.txt.gz
RH
89 93 89 84 82 79 80 69 68 66 60 56 55 56 55 57 58 53 55 50 45 40 37 34 31 29 27 27 27 29 30 30 30 31 34 33 30 28 28 31 33 35 41
74 77 80 84 86 77 75 70 67 64 62 58 60 59 57 56 56 54 50 49 43 40 36 30 27 24 24 24 24 24 25 27 29 31 32 33 37 36 31 28 27 30 34
79 81 82 85 83 76 67 63 61 59 60 61 60 57 55 52 49 48 46 44 44 37 33 28 23 22 21 21 21 21 21 23 25 25 28 31 34 38 41 39 32 28 29
82 84 77 71 62 57 54 55 57 57 55 52 50 47 43 38 35 34 33 34 38 35 33 30 28 21 19 20 20 21 22 22 23 26 26 26 30 36 38 40 44 37 31
74 63 62 58 57 59 57 56 54 50 47 41 39 34 32 28 29 28 27 33 36 38 33 31 30 22 23 20 18 17 17 19 20 24 25 29 27 26 34 39 40 41 40
65 67 65 62 62 58 57 55 49 43 38 35 32 31 29 28 27 33 38 41 42 43 41 38 32 28 27 26 23 21 19 17 17 18 19 22 26 29 26 30 38 42 40
69 70 68 66 60 57 54 49 43 38 36 35 33 31 32 31 34 40 42 47 47 44 43 41 41 40 36 30 34 30 24 23 20 20 18 17 17 26 28 28 31 37 41
73 72 69 69 63 55 47 43 38 35 34 35 34 35 36 32 32 43 48 47 46 44 47 46 44 43 43 41 37 40 34 27 24 22 22 22 22 20 19 23 30 34 39
73 72 67 61 53 47 46 45 44 42 39 36 36 38 38 37 39 39 36 40 45 45 40 39 43 45 47 50 48 47 43 40 26 23 22 23 25 28 27 24 23 34 38
73 66 61 59 56 50 49 51 49 44 45 45 43 46 48 48 50 46 47 43 34 40 49 56 57 52 50 48 53 50 37 39 40 28 24 26 24 26 28 29 28 29 34
69 67 62 57 53 53 56 54 53 52 51 50 51 49 48 54 62 62 60 59 58 54 52 53 50 52 52 45 43 49 55 46 40 35 29 29 29 27 25 27 30 30 32
66 62 60 58 57 56 59 58 51 56 56 56 57 62 64 66 65 68 66 61 61 50 56 57 52 46 52 54 53 48 50 48 38 35 34 32 34 33 30 26 26 30 33
57 54 53 54 53 55 55 56 57 59 60 63 69 67 67 68 72 71 69 67 63 51 49 54 55 56 61 58 64 62 50 45 39 34 33 35 34 34 35 31 28 26 28
54 54 55 52 56 54 53 57 51 61 66 67 66 67 74 74 73 69 64 67 54 55 54 55 53 59 60 61 62 59 55 53 56 44 33 33 33 28 29 30 30 29 27
54 52 50 50 46 45 49 53 51 57 67 67 67 70 73 68 70 66 65 70 70 60 52 50 48 51 52 56 57 55 50 46 41 39 37 35 30 25 25 25 24 28 29
52 50 47 42 40 41 46 47 49 60 66 64 69 64 64 63 67 67 69 69 65 59 50 50 45 48 50 54 57 60 51 52 45 43 44 44 45 41 34 28 22 22 25
52 48 43 42 42 41 45 47 46 53 50 47 46 58 65 73 72 68 65 63 56 57 60 53 50 50 54 52 54 54 53 55 53 50 50 54 55 56 49 39 28 21 21
51 47 43 43 41 44 44 45 45 45 41 46 57 69 72 77 71 64 61 57 56 58 61 57 52 53 53 50 54 60 62 63 64 60 57 62 59 56 55 48 37 22 19
50 46 47 44 45 40 36 31 35 39 41 49 60 68 71 68 61 53 52 50 49 49 49 51 50 55 52 62 67 71 74 76 74 71 67 64 60 58 53 47 39 27 21
52 51 48 47 37 35 37 36 37 44 52 60 68 75 67 54 52 47 42 40 44 45 49 52 49 54 69 77 82 82 82 82 82 82 80 79 75 66 56 48 43 35 26
53 55 53 46 47 42 42 45 49 58 64 72 78 69 53 48 44 39 38 39 43 47 48 52 58 74 83 85 90 92 89 87 86 88 83 84 81 77 69 65 59 48 39
57 54 45 42 45 49 46 53 56 65 74 80 70 55 50 50 48 41 43 42 44 48 52 59 76 86 90 93 95 96 95 95 86 90 95 89 93 90 80 71 75 65 57
54 48 43 42 43 55 52 62 65 72 78 67 55 53 52 49 44 43 45 44 49 53 59 74 85 92 94 98 97 96 96 94 96 91 98 88 91 90 88 78 72 64 55
53 45 42 41 41 55 58 65 70 74 67 54 54 52 50 45 45 40 40 43 50 58 70 85 91 94 96 98 97 98 93 86 86 87 90 90 89 85 82 76 63 56 48
51 42 42 44 49 56 60 68 74 61 57 54 51 54 48 46 45 41 37 45 52 65 80 89 92 95 94 95 97 96 91 89 86 89 94 94 88 92 90 79 75 66 49
45 42 43 49 53 61 63 73 63 51 54 51 54 53 47 45 42 40 35 47 54 71 81 87 92 95 97 98 98 98 92 88 91 92 97 98 95 98 95 89 72 60 53

GFSMA_prec_cthk_054.txt.gz
RH
74 87 79 74 78 75 77 77 70 70 65 59 56 55 52 53 51 52 52 51 48 45 43 41 38 34 30 28 27 26 26 26 28 30 33 34 35 40 39 32 31 32 37
70 76 79 77 81 81 80 73 63 56 54 53 54 55 54 53 53 51 49 48 43 41 38 38 34 30 27 25 24 24 24 26 26 27 27 31 34 35 37 40 34 31 28
73 74 79 79 82 72 64 57 52 51 50 50 49 46 44 44 42 39 33 32 32 31 35 33 33 28 24 24 20 20 20 21 24 28 32 31 31 32 33 36 40 39 34
70 73 73 70 66 61 56 54 52 49 46 44 43 39 38 34 30 26 27 28 27 31 34 35 33 31 28 24 23 23 19 21 23 25 29 29 31 30 30 34 35 39 43
66 64 62 62 57 56 56 54 50 44 41 37 33 31 30 27 28 27 27 30 35 39 41 43 41 35 31 28 25 24 27 29 27 26 26 26 27 29 30 27 32 36 38
59 59 55 58 59 58 56 53 48 42 37 34 33 32 32 32 30 31 36 45 51 51 50 48 47 43 40 38 36 31 26 27 29 28 28 27 26 26 27 29 28 30 36
58 58 59 62 61 61 56 51 49 45 41 39 37 35 33 31 35 33 38 43 46 47 51 50 48 47 46 40 41 39 40 31 26 25 25 27 28 28 27 26 26 27 32
61 65 65 63 59 57 54 51 46 42 41 41 38 36 36 33 31 32 34 36 43 47 47 48 45 44 44 46 47 48 44 40 36 30 25 23 26 28 29 29 27 26 28
66 63 61 60 55 51 48 47 46 47 44 40 41 41 38 38 36 35 31 32 34 41 46 49 49 49 46 50 51 51 46 43 39 37 28 25 24 25 28 29 29 29 29
65 65 62 55 52 50 48 48 48 47 45 44 44 44 42 43 45 43 43 41 43 40 41 44 47 50 52 54 52 47 44 41 42 41 38 30 26 28 28 32 33 29 32
67 61 58 55 51 50 50 51 56 55 51 48 52 53 50 49 52 57 52 51 50 54 51 48 46 42 42 41 34 39 44 41 39 36 34 33 32 28 27 28 34 35 29
71 63 58 58 54 53 51 50 53 49 45 44 57 62 61 62 65 67 66 63 57 48 46 45 43 39 39 43 47 51 52 53 49 45 40 33 30 28 28 33 35 35 35
65 63 58 55 54 52 48 47 50 54 52 40 55 63 67 66 71 73 73 66 59 47 38 38 41 44 46 51 52 53 50 53 51 47 46 42 35 33 29 23 25 28 30
59 57 56 54 52 49 47 46 46 50 50 51 56 70 68 70 73 71 73 71 59 48 42 45 45 46 47 46 48 52 55 49 45 42 40 39 37 33 31 30 23 21 24
57 52 49 48 49 46 44 43 42 49 51 48 54 69 67 65 72 73 71 73 67 55 43 44 42 41 42 45 43 46 45 44 42 40 39 37 33 33 34 40 37 27 19
52 50 52 52 49 46 46 42 42 46 47 45 52 58 57 58 67 63 66 70 70 66 51 49 42 42 46 45 43 43 43 44 40 38 37 39 39 42 39 42 44 39 28
54 55 55 51 48 48 47 47 48 47 45 42 43 41 39 50 60 68 72 74 64 56 57 48 46 41 44 44 42 39 37 37 40 43 46 48 50 47 45 46 50 45 41
57 57 54 51 51 51 47 44 41 40 38 34 35 41 51 60 68 73 70 63 53 49 50 43 38 37 40 43 43 41 42 48 52 52 53 54 53 50 49 52 52 48 42
60 56 51 53 52 48 42 37 37 35 34 35 44 50 59 63 68 75 55 46 44 42 36 36 34 35 40 42 43 51 59 62 64 67 67 70 72 73 71 67 61 54 44
60 56 55 59 56 51 43 41 39 41 41 47 57 64 68 71 71 48 46 43 37 35 36 37 37 39 42 44 58 68 72 74 76 76 75 73 72 68 70 73 69 60 49
60 60 64 59 53 46 46 43 46 49 52 60 67 70 75 66 47 44 44 40 37 38 39 39 42 45 49 66 76 79 81 83 80 83 81 78 78 74 77 76 75 73 63
61 63 62 53 48 43 45 44 51 55 57 66 70 75 64 48 49 48 44 39 40 40 40 47 51 56 70 78 86 90 92 90 81 83 83 69 80 76 82 86 90 85 75
61 62 57 50 43 42 39 42 54 62 63 69 74 63 52 52 49 47 42 39 37 36 45 53 59 73 82 90 92 93 93 91 86 76 78 66 74 71 79 82 86 89 79
55 54 50 45 40 41 41 47 61 65 67 72 61 52 54 55 51 45 39 36 34 37 47 59 69 80 86 89 93 92 93 90 83 80 85 77 78 73 76 78 81 81 76
45 46 44 41 40 41 45 55 60 64 70 57 48 52 56 56 48 44 41 36 32 37 47 59 68 77 86 91 95 95 94 93 80 76 85 87 89 83 82 82 84 80 73
42 46 42 41 39 44 49 55 61 61 59 53 48 55 52 55 50 45 42 36 33 39 41 51 72 75 85 91 95 96 95 95 81 73 80 85 93 97 93 94 97 88 72

GFSMA_prec_cthk_057.txt.gz
RH
62 68 77 79 76 74 74 73 74 74 66 56 56 54 51 48 48 47 47 46 45 43 42 38 37 39 37 34 32 29 29 29 31 35 34 34 36 37 39 43 39 31 30
60 72 74 72 74 76 78 72 63 54 48 48 47 46 45 47 46 43 42 42 35 31 30 30 33 34 32 32 31 28 26 26 30 33 35 34 32 35 37 37 40 42 35
60 64 70 70 68 61 55 54 50 45 43 42 42 39 36 35 34 31 28 30 32 31 30 29 31 32 33 33 31 28 26 25 28 28 31 31 32 32 32 36 38 39 42
58 57 54 51 51 49 47 48 47 46 44 42 39 35 32 31 29 28 28 30 31 33 36 39 39 40 38 35 34 33 31 34 31 31 30 28 28 29 31 30 31 36 38
51 52 54 54 52 49 46 46 47 47 44 40 37 34 31 31 29 29 31 33 36 42 47 48 46 46 45 45 44 39 33 33 32 30 28 28 30 29 27 28 26 29 35
50 52 53 53 52 51 51 49 46 43 41 37 35 34 35 34 33 35 37 40 43 48 51 49 48 46 46 45 43 42 47 47 36 29 30 30 29 27 30 30 28 24 27
54 52 50 51 52 52 49 44 42 37 35 35 35 35 34 33 32 33 33 33 38 43 46 49 48 46 44 43 45 46 45 44 43 39 34 26 30 28 29 28 30 29 24
49 51 54 55 52 52 48 43 39 38 38 41 40 36 34 33 33 33 31 31 34 37 43 48 50 51 51 51 50 47 46 45 45 42 36 32 28 28 30 30 29 28 30
54 58 57 56 55 53 48 43 41 41 43 43 42 40 38 38 36 34 33 31 32 33 35 38 43 46 48 54 56 54 51 48 43 39 34 32 30 29 30 31 33 31 28
57 58 59 61 59 55 56 54 46 45 45 45 44 44 41 42 43 42 43 40 39 36 37 40 40 41 42 44 44 42 38 40 40 39 35 34 33 29 28 30 32 32 32
58 61 62 62 58 53 50 47 45 46 48 46 47 45 43 40 46 50 46 46 46 48 45 42 44 44 41 40 38 36 37 39 37 40 40 41 38 33 32 30 29 31 35
64 63 62 57 54 51 50 49 46 46 45 45 45 46 46 47 51 58 56 54 54 52 50 47 49 47 42 36 40 38 40 38 36 42 42 43 41 40 37 35 32 31 30
69 73 61 54 53 52 50 45 47 47 48 50 46 44 47 49 59 64 67 64 56 48 47 47 53 51 44 42 44 44 42 39 38 42 44 43 41 40 39 36 34 32 30
76 66 52 52 51 48 48 45 44 41 41 43 47 50 51 50 57 64 66 65 57 47 43 46 49 51 45 43 40 40 40 41 41 42 43 43 43 40 38 37 35 36 38
67 52 54 51 49 48 49 46 43 42 44 45 48 48 50 45 51 56 63 62 65 54 43 49 51 51 45 45 42 41 38 37 36 37 38 40 40 38 37 34 32 32 40
50 55 53 55 55 52 50 48 46 47 48 48 48 47 43 45 47 44 47 56 66 75 58 59 53 43 44 43 41 39 36 34 32 33 30 31 34 37 38 37 36 35 36
55 56 58 59 59 56 52 51 50 50 52 53 52 49 42 41 43 52 58 67 71 77 70 49 42 42 40 37 35 35 35 33 33 34 34 37 40 42 45 46 42 39 38
57 59 63 62 59 56 56 54 52 48 41 39 36 36 38 44 50 55 65 70 78 71 48 43 37 28 27 29 33 34 35 36 37 42 50 53 55 56 54 54 53 51 45
61 69 64 62 63 62 58 56 52 43 40 39 37 39 47 54 58 63 70 67 48 45 42 36 29 28 29 30 34 35 38 42 53 59 61 61 58 58 57 60 59 57 59
71 69 68 64 64 59 59 57 48 41 41 42 42 48 55 59 62 68 59 48 44 41 37 34 31 29 33 36 42 46 49 60 65 70 70 70 69 67 65 63 60 62 63
72 72 68 64 61 58 58 52 43 42 48 49 54 56 61 68 69 61 48 47 45 42 38 34 30 34 40 46 54 64 71 72 73 77 72 69 69 65 63 64 66 65 69
72 66 64 61 58 58 51 41 39 41 44 58 61 63 68 74 61 48 50 49 48 44 36 32 36 43 49 60 70 74 76 77 73 81 76 70 73 63 57 59 65 67 68
59 58 57 54 52 46 42 34 37 40 48 60 64 69 71 57 51 53 51 51 46 40 37 36 41 49 58 69 73 77 81 82 82 77 80 70 75 62 63 61 64 67 69
48 48 49 49 41 39 36 33 40 48 56 60 63 67 51 53 54 52 51 48 44 40 35 39 45 49 59 67 77 82 85 86 82 80 86 66 63 64 68 68 66 69 73
44 41 36 38 36 32 36 38 44 52 55 61 61 57 50 48 53 51 52 48 43 39 37 39 40 49 61 70 80 86 89 89 81 78 75 69 66 67 75 79 86 84 82
42 37 36 34 36 37 36 42 50 53 56 58 56 52 51 51 53 53 53 49 43 40 38 39 44 47 58 73 83 90 92 90 80 73 70 69 69 80 79 87 92 93 95

GFSMA_prec_cthk_060.txt.gz
RH
60 65 64 67 71 68 67 70 69 67 65 57 49 45 42 43 43 42 40 40 39 37 37 34 33 32 33 34 33 32 29 28 31 35 35 34 33 35 36 38 41 42 37
61 60 61 63 62 64 69 69 57 49 47 43 39 38 38 37 35 32 31 29 28 31 34 35 35 35 35 34 33 31 28 27 26 27 32 31 33 32 32 33 35 39 44
54 56 57 60 61 61 55 50 47 44 41 38 37 36 36 34 31 28 27 26 28 31 35 37 42 45 45 44 42 37 36 33 31 27 26 25 25 23 26 29 30 32 35
51 54 52 50 48 49 47 47 48 43 40 40 39 37 34 31 30 30 31 31 31 33 41 44 45 45 46 46 45 45 43 39 33 29 26 23 24 24 23 22 23 27 31
48 47 47 49 48 47 49 49 47 42 42 41 37 33 32 31 32 33 33 36 37 41 45 47 46 46 47 47 46 45 46 40 41 35 31 27 24 20 20 21 23 22 25
46 47 49 50 48 49 49 47 45 42 39 37 36 35 34 35 35 34 35 37 39 41 44 47 45 46 46 44 45 44 43 46 44 43 38 33 29 25 22 20 19 24 25
47 48 49 49 48 49 49 45 43 41 39 40 38 36 35 37 37 37 36 35 36 35 39 43 41 41 42 44 46 49 50 47 48 46 43 39 34 29 23 24 21 21 26
48 47 49 50 52 52 51 52 50 45 43 41 39 38 38 40 41 39 38 38 35 34 33 32 36 39 40 42 45 48 45 45 46 43 42 38 33 32 27 27 26 24 23
45 48 50 51 53 55 57 53 46 43 42 43 43 43 45 46 42 40 34 33 35 36 37 37 37 38 39 41 42 41 38 39 40 39 36 34 32 30 31 30 29 29 25
50 50 52 55 57 59 55 48 47 46 47 46 43 47 49 46 42 41 40 42 41 42 42 41 41 40 41 40 38 37 36 36 40 44 38 35 34 31 35 36 35 34 32
52 52 55 58 62 64 54 47 46 51 50 43 42 44 44 41 41 40 39 41 46 48 48 45 44 43 44 42 38 35 35 34 35 37 38 39 43 42 40 38 39 40 37
62 63 64 71 71 63 53 47 51 50 42 40 42 44 45 45 43 44 44 42 45 50 50 50 50 46 43 45 45 48 46 39 36 41 44 42 42 44 43 41 40 40 40
63 58 71 87 73 58 47 48 47 44 41 43 43 43 46 46 48 50 50 45 55 55 49 48 53 47 44 43 44 48 44 39 38 39 39 39 41 40 39 37 37 40 39
72 71 79 69 59 47 47 49 49 46 47 48 46 47 48 50 52 53 48 53 49 51 38 42 47 55 55 55 55 52 40 38 37 37 38 38 40 41 40 39 36 38 39
82 68 67 63 51 46 52 53 52 52 53 53 51 51 52 52 51 46 45 48 43 40 34 42 55 60 62 59 49 44 45 44 38 34 32 31 31 31 32 33 34 35 35
79 62 60 55 49 57 61 58 53 56 57 54 53 52 54 52 56 54 45 46 50 53 55 59 61 64 61 45 42 39 35 32 30 30 31 29 28 29 32 32 31 32 34
63 64 60 55 62 66 68 60 61 61 56 56 53 46 43 44 44 43 44 51 61 65 66 64 66 51 38 32 27 24 23 25 27 28 29 30 32 36 42 45 47 45 42
60 60 61 62 68 72 66 61 63 63 60 57 46 39 40 41 40 45 51 60 65 68 70 52 40 35 31 28 25 25 25 28 31 32 35 39 44 51 55 55 55 52 51
60 57 62 74 77 69 62 63 60 59 56 47 41 42 41 41 45 52 61 67 69 60 52 44 38 35 30 26 27 31 34 36 38 42 48 54 57 57 56 56 54 52 50
62 77 79 73 65 56 57 58 56 54 46 40 38 42 47 52 55 60 67 73 60 50 47 44 40 34 29 30 36 40 42 49 54 60 61 60 61 62 63 63 61 57 56
85 76 65 60 58 55 53 52 51 49 40 36 40 44 50 58 61 66 73 61 49 50 47 45 39 32 31 36 43 49 56 58 60 65 63 68 69 69 70 69 65 60 59
71 63 62 55 51 50 50 47 49 40 33 36 39 47 56 63 66 72 59 49 54 52 50 46 38 32 35 41 46 53 56 62 66 72 70 69 73 70 72 71 65 57 53
62 56 53 48 46 43 41 43 40 36 37 40 46 52 56 61 67 57 51 52 55 54 52 44 36 36 36 40 47 53 64 71 75 74 74 70 69 66 62 54 58 57 54
53 48 42 40 34 34 38 37 37 37 37 45 51 55 58 60 61 55 51 56 53 54 51 43 40 39 38 42 50 61 71 77 80 79 76 65 64 54 50 55 64 64 64
45 41 36 32 33 32 35 37 38 36 41 50 53 56 58 58 57 54 52 56 52 54 49 46 44 45 43 43 52 60 71 80 82 78 75 69 64 54 53 56 70 77 79
40 39 34 33 31 34 38 39 37 39 43 51 55 57 59 54 52 55 52 55 54 53 51 50 48 47 44 46 53 60 72 83 87 80 75 72 76 78 67 69 73 78 83

GFSMA_prec_cthk_063.txt.gz
RH
60 61 63 63 62 62 61 61 63 64 56 49 44 39 37 36 38 38 36 34 32 30 30 31 32 35 36 37 37 35 32 28 25 25 24 29 34 35 33 35 34 35 39
59 60 58 58 57 60 62 61 57 46 43 41 40 37 36 34 33 29 27 25 24 27 29 34 37 38 41 41 40 40 38 33 32 30 26 23 23 24 27 29 27 28 33
53 54 53 55 58 59 53 46 45 44 43 41 39 38 35 32 28 26 25 26 26 27 32 36 38 41 40 41 40 40 42 40 36 33 31 28 25 22 21 23 24 24 25
49 52 51 52 49 46 45 46 47 46 43 41 39 37 34 31 30 29 29 31 33 36 39 41 42 42 44 43 45 49 48 42 41 38 35 32 28 27 24 21 20 22 24
49 50 47 46 46 47 48 48 47 45 43 40 35 34 33 34 36 34 32 34 36 42 46 48 47 47 46 47 48 47 47 48 45 42 37 35 32 29 27 26 23 19 19
46 47 46 44 45 47 47 46 46 45 41 38 38 39 40 41 39 36 35 32 35 38 40 42 44 44 43 42 42 43 41 40 40 42 41 37 35 31 26 22 20 20 20
47 45 45 45 45 46 48 47 47 44 41 41 42 42 40 40 41 40 39 38 38 39 41 39 36 35 36 37 39 40 40 42 45 46 45 45 41 32 26 26 21 19 21
45 42 42 45 46 46 46 47 47 47 46 45 43 41 42 44 43 44 44 47 44 42 41 41 40 39 38 37 36 37 38 40 43 45 43 43 40 39 36 30 27 24 23
42 46 50 47 46 46 49 53 57 55 53 51 46 48 47 45 43 44 46 46 44 40 39 41 42 41 40 40 40 39 39 38 40 43 43 43 39 37 38 44 37 30 28
50 52 50 50 51 55 61 67 66 58 53 49 47 48 47 47 49 49 48 49 45 41 41 47 49 48 46 45 43 40 38 36 36 38 42 44 45 43 40 40 41 43 35
52 51 52 58 54 53 65 68 64 62 52 46 49 46 46 49 53 53 50 48 47 44 39 48 53 52 52 49 44 38 34 33 35 37 47 52 51 46 46 47 39 40 49
57 64 63 71 75 77 67 63 63 58 45 46 45 47 50 51 51 54 53 50 49 47 42 52 62 63 58 49 46 42 39 39 40 39 40 45 47 45 45 44 45 41 41
68 84 63 82 90 82 66 57 55 43 44 46 48 51 53 55 58 56 56 53 50 46 48 48 59 52 42 46 41 44 43 46 48 48 44 37 37 38 41 42 42 42 41
84 84 78 72 66 64 60 57 52 44 46 51 57 60 58 58 58 59 58 55 53 54 45 43 40 43 49 50 57 56 53 52 45 41 35 33 32 33 35 35 37 36 34
96 97 82 71 56 55 58 55 49 54 63 65 63 59 58 54 53 52 53 47 57 48 38 40 51 52 56 63 63 62 56 37 37 37 37 36 34 33 33 31 29 28 31
96 89 65 67 63 54 58 58 68 69 67 63 58 56 52 44 42 42 43 42 41 45 47 49 56 58 58 61 53 35 32 31 28 26 25 25 24 24 26 28 29 32 34
79 68 61 62 59 61 67 77 73 62 57 58 56 52 45 40 38 37 37 39 45 50 54 54 58 59 54 38 34 33 31 28 25 24 25 26 27 30 32 34 37 37 37
66 64 64 62 61 74 79 65 58 59 58 58 55 47 38 38 36 37 42 49 54 58 60 59 55 46 38 37 35 33 33 29 30 30 33 37 35 36 37 37 39 43 45
65 65 65 70 77 69 66 64 56 56 55 52 47 40 36 35 37 43 50 58 62 66 71 57 45 40 40 38 36 34 31 33 37 42 44 45 46 47 48 49 50 49 49
66 67 77 76 71 65 59 57 54 50 48 44 41 36 33 34 41 48 58 63 69 73 58 50 44 43 41 40 37 34 31 37 40 46 51 52 53 55 56 57 58 57 56
77 83 78 70 62 56 52 49 45 43 43 42 36 32 32 36 44 54 64 68 72 59 52 50 50 46 43 39 38 34 36 38 44 52 57 60 60 61 65 66 67 65 62
84 76 68 60 53 49 43 38 38 39 41 34 32 32 35 42 50 57 62 65 58 54 56 53 50 48 44 41 37 36 40 46 50 61 64 65 63 65 67 64 62 61 60
73 66 60 52 45 39 36 32 35 37 36 34 32 36 42 46 51 56 61 62 57 57 54 54 50 49 45 41 40 38 41 50 58 63 67 67 66 63 60 56 55 52 48
66 59 47 38 37 37 29 29 34 37 39 35 34 40 47 51 55 58 62 60 57 58 55 54 51 49 47 45 44 42 44 49 58 65 70 70 68 59 54 54 52 46 52
51 42 36 36 36 23 28 32 35 39 40 36 38 45 51 55 58 60 59 57 59 55 54 52 52 52 51 50 47 43 42 49 58 68 72 76 69 63 61 62 62 52 57
39 35 28 26 24 25 29 33 38 44 41 40 44 47 54 57 62 64 61 60 60 56 53 54 57 56 56 56 51 49 45 49 63 71 77 80 78 75 63 69 71 66 66

GFSMA_prec_cthk_066.txt.gz
RH
56 60 61 60 59 59 58 57 60 62 57 45 38 36 35 33 32 29 27 25 23 23 25 30 31 33 33 34 35 36 36 34 34 32 30 27 23 21 23 26 28 30 31
61 57 57 56 55 56 58 60 60 50 43 38 36 35 35 34 31 29 26 25 24 23 25 30 32 35 36 35 35 36 39 36 36 34 33 31 29 26 22 20 20 24 26
58 55 53 51 54 55 54 50 45 43 43 40 38 36 34 32 30 29 29 28 29 30 28 31 35 37 38 40 40 39 38 38 36 34 33 31 31 30 28 26 22 20 20
51 49 48 53 54 51 44 45 45 43 42 42 40 38 35 33 33 32 32 33 33 35 36 38 39 42 44 44 45 45 45 45 40 39 37 34 31 28 26 26 25 25 23
52 51 52 49 44 46 46 45 44 46 46 44 41 38 35 35 33 33 33 31 31 33 36 38 40 42 44 45 46 46 47 49 45 45 42 38 35 31 27 23 21 20 21
52 50 47 45 45 47 47 47 49 48 44 42 39 39 38 37 33 34 35 36 35 33 32 35 37 39 39 39 39 40 42 47 50 49 47 47 44 40 31 22 19 18 18
50 48 47 45 45 47 47 48 46 44 43 42 43 46 44 41 35 37 39 41 39 37 39 39 41 42 41 41 41 41 44 47 49 52 59 56 51 48 43 39 29 25 24
48 49 45 46 48 46 46 48 49 50 50 51 52 51 48 42 38 42 45 44 44 48 48 45 46 46 44 42 42 42 41 40 39 43 48 51 51 53 44 44 44 38 27
47 44 46 47 46 48 51 49 51 56 59 55 56 53 49 45 45 48 47 49 52 52 50 48 47 49 48 47 47 45 43 41 42 43 47 48 52 50 50 49 42 42 44
43 46 50 49 51 56 59 65 64 69 67 58 51 48 47 47 49 48 51 55 55 54 53 49 42 46 50 51 51 49 46 45 44 41 41 45 51 52 50 51 50 47 48
47 51 54 59 63 63 70 76 71 59 56 52 48 46 46 46 51 56 57 60 61 57 53 49 48 54 57 55 51 50 48 44 39 36 35 37 41 47 51 50 52 52 58
58 65 70 76 79 77 83 80 72 55 47 45 44 46 49 58 61 62 61 56 54 54 54 51 46 48 48 50 46 43 41 35 33 33 34 35 38 41 47 48 44 45 47
70 74 77 83 85 92 88 71 62 55 47 46 48 54 64 63 59 55 54 51 50 46 48 51 50 44 41 39 39 41 44 47 43 47 44 42 41 42 43 41 38 40 42
74 80 85 97 96 86 74 63 59 51 49 54 62 68 65 59 56 49 48 51 55 56 49 51 43 42 45 50 54 54 54 58 60 55 52 43 33 32 33 33 37 36 37
81 81 92 94 88 76 64 59 53 52 59 69 67 60 59 56 49 42 42 44 46 47 44 35 43 48 53 55 57 57 54 52 47 34 29 29 29 28 30 31 36 36 34
83 92 87 88 68 60 57 57 61 71 74 64 63 60 55 48 40 37 35 34 33 36 38 38 45 48 52 56 56 46 37 33 30 31 31 30 28 27 28 29 29 34 35
81 82 74 60 61 66 65 67 77 72 66 64 57 52 47 44 36 34 30 30 33 39 44 46 50 55 58 57 43 37 33 32 34 35 35 33 30 31 32 33 33 35 38
88 61 64 67 70 66 73 81 73 69 60 55 50 48 44 38 30 31 31 35 39 47 51 51 56 61 56 46 39 34 35 38 39 38 35 35 36 36 36 36 36 35 35
56 63 76 70 73 80 81 74 67 60 55 49 45 44 36 32 34 31 34 40 44 51 55 57 60 54 46 43 37 38 40 41 38 35 34 37 39 41 42 43 44 43 44
65 71 70 79 84 82 73 65 56 50 41 41 44 37 33 35 34 34 36 43 49 55 61 62 56 48 45 42 42 43 42 39 35 36 39 44 47 48 50 49 49 51 51
71 71 84 87 80 70 64 54 43 33 33 36 32 32 33 35 38 38 41 46 53 57 60 57 53 52 49 47 46 46 44 38 34 37 41 45 49 52 53 53 55 55 56
77 85 83 75 68 67 51 39 32 28 27 26 30 33 35 39 41 42 46 47 51 55 59 56 56 52 49 50 48 49 46 40 40 39 40 46 55 55 55 55 57 55 51
87 81 73 68 62 44 36 32 25 24 24 28 34 35 39 39 42 44 47 49 53 57 60 59 56 56 52 50 52 51 46 45 42 43 44 46 58 61 60 57 52 48 45
83 77 66 50 36 30 23 21 22 23 28 34 36 42 43 40 44 48 49 51 54 58 60 60 58 55 51 53 55 52 50 46 43 44 48 47 64 65 63 59 58 59 55
70 54 42 31 22 18 20 21 22 24 30 36 44 47 43 41 47 51 50 54 57 59 61 63 61 55 52 56 58 57 57 54 46 44 52 52 71 70 66 63 67 65 61
45 34 23 20 18 17 21 23 25 29 34 41 43 45 45 44 46 55 58 59 62 66 68 68 64 60 57 60 60 61 62 60 55 49 49 54 76 77 68 62 67 70 67

GFSMA_prec_cthk_069.txt.gz
RH
45 54 63 68 68 60 56 55 55 55 52 42 37 36 34 33 31 28 26 25 24 24 25 28 30 29 28 27 28 30 32 32 28 29 28 27 26 27 26 22 21 23 25
63 68 66 61 56 54 54 53 52 44 38 36 36 35 34 33 31 30 28 26 26 26 26 30 31 33 33 31 29 30 31 33 32 32 30 29 29 29 27 27 26 23 21
75 71 56 52 52 51 52 50 40 39 37 36 35 34 34 33 31 30 29 27 27 27 28 32 35 37 39 41 39 39 40 41 41 38 35 33 32 30 27 25 25 26 26
58 53 50 50 52 51 45 40 41 40 39 39 37 34 33 33 31 30 30 31 27 26 31 35 38 40 40 39 42 45 45 46 47 45 39 38 36 35 31 27 24 22 22
53 51 51 52 50 44 42 44 44 43 42 38 34 33 34 33 33 35 35 31 28 27 29 33 34 34 35 36 39 43 47 49 47 47 49 47 41 39 35 31 26 22 21
53 51 52 49 43 43 43 44 44 43 42 39 38 37 37 39 39 40 39 38 37 35 34 32 31 31 34 37 38 39 44 48 54 56 52 52 52 51 44 38 30 23 26
54 53 47 44 44 44 45 45 45 44 44 44 44 48 46 45 41 39 38 40 39 39 39 39 40 40 41 40 41 41 41 43 48 49 56 58 60 58 52 46 48 33 26
51 47 45 44 44 46 45 48 51 50 55 57 62 57 48 44 42 42 42 42 45 45 47 49 47 46 46 46 47 47 45 45 45 45 45 44 51 56 52 48 49 49 54
48 45 44 45 48 49 50 54 57 57 61 60 61 54 47 44 44 45 42 46 51 53 52 50 47 46 42 45 48 50 49 50 49 47 47 47 49 53 55 58 51 56 46
47 45 44 52 58 60 59 68 70 67 69 64 58 50 43 42 46 47 52 58 52 53 53 52 50 45 45 47 49 50 50 49 47 44 43 45 45 49 56 59 54 50 56
47 46 51 60 68 72 72 81 78 75 74 64 51 45 44 44 47 56 62 62 60 57 53 50 40 37 35 37 41 42 44 47 43 39 40 40 42 42 44 48 55 52 52
51 51 61 72 73 75 77 86 84 77 68 54 46 48 48 56 63 63 57 51 48 44 46 42 35 28 27 25 27 31 33 36 37 35 38 37 38 39 42 43 45 48 50
56 66 75 78 78 78 90 90 85 73 62 48 50 53 60 63 59 53 46 41 41 42 38 35 28 24 25 24 30 33 35 39 40 40 41 42 42 45 47 44 43 43 45
68 75 79 81 85 87 92 76 62 56 56 54 61 67 65 59 52 46 42 37 31 32 31 33 29 28 28 33 39 42 43 44 47 47 43 43 44 38 32 31 32 38 37
78 79 84 86 92 90 72 60 55 60 61 66 69 63 60 56 50 40 29 27 31 32 28 36 35 32 36 39 42 44 47 47 43 37 32 29 27 25 25 27 32 32 32
90 93 87 91 97 79 58 63 66 65 68 72 65 63 60 51 39 30 27 27 30 35 35 40 40 42 45 46 49 51 45 38 34 31 29 27 28 31 32 32 35 35 37
95 97 95 90 72 61 69 70 68 72 74 69 64 59 49 38 34 28 25 27 32 37 42 41 43 44 46 51 55 44 40 35 32 29 31 34 36 37 35 39 38 37 36
96 94 81 68 69 69 72 72 75 75 69 64 57 45 37 35 29 26 27 32 39 44 45 44 50 47 49 56 47 40 36 34 32 35 37 38 35 32 31 33 37 39 41
88 83 70 72 69 74 75 76 76 68 63 53 40 35 31 28 26 28 34 37 43 45 47 47 51 50 52 51 44 42 39 37 38 40 40 35 32 33 36 39 42 45 47
83 79 70 68 77 80 80 75 67 64 49 31 26 24 26 26 26 31 38 41 44 48 48 50 52 54 54 48 47 45 44 45 48 45 40 36 36 35 37 42 46 49 49
79 65 71 79 80 75 73 67 60 41 26 19 19 22 25 26 29 34 38 46 50 49 50 51 52 53 55 54 53 47 46 49 52 49 45 45 43 41 47 49 50 50 52
68 79 81 82 75 74 63 49 30 21 18 17 19 23 26 30 33 37 42 48 52 52 52 52 53 56 57 58 53 51 51 53 54 53 49 46 46 43 53 56 54 51 48
79 79 78 74 67 55 39 24 20 18 17 17 22 26 29 34 40 44 46 49 49 51 53 55 57 61 58 59 54 52 53 57 59 55 51 48 48 44 58 58 55 51 49
78 75 70 58 50 33 22 19 18 18 18 20 23 29 37 41 45 47 47 47 50 52 55 57 58 61 61 60 55 55 56 59 61 61 57 52 51 43 62 59 61 63 61
70 61 54 43 28 21 19 19 20 21 22 25 30 35 40 40 42 46 46 47 53 56 61 62 63 66 66 64 59 59 59 65 63 67 62 61 56 42 64 63 66 68 67
57 49 37 27 24 23 23 25 29 34 36 38 35 34 35 36 39 47 51 55 58 69 72 72 71 73 72 68 65 65 65 62 65 67 68 64 57 50 59 75 74 73 68

GFSMA_prec_cthk_072.txt.gz
RH
45 44 49 55 64 72 63 58 56 55 47 38 36 35 34 32 31 31 32 25 24 21 22 26 26 26 27 27 28 29 30 28 28 26 26 27 26 25 25 25 25 24 22
45 56 66 71 69 63 57 55 51 44 37 36 35 34 32 32 29 28 30 29 23 23 23 24 29 32 32 32 31 32 33 33 32 33 32 31 30 29 28 26 25 25 26
67 76 80 65 58 53 52 49 40 37 38 37 37 35 30 28 28 26 28 30 33 29 26 28 32 33 36 39 38 38 42 40 40 41 39 37 36 36 34 30 27 25 22
78 78 65 54 49 50 48 41 39 40 39 38 36 35 31 29 28 31 34 33 32 34 36 33 34 35 35 36 37 38 38 42 45 43 43 42 43 41 40 38 34 30 26
61 55 52 50 50 47 43 39 39 41 39 38 38 37 34 36 42 41 37 35 36 35 34 36 33 32 32 31 32 34 39 46 49 55 53 52 55 55 52 49 43 38 35
58 54 50 51 47 43 40 40 40 41 41 42 42 43 45 45 46 42 41 38 40 40 40 39 38 40 36 34 35 37 38 43 48 53 58 58 58 60 59 58 54 46 40
58 51 53 47 42 41 40 41 42 45 47 49 50 50 49 48 46 45 45 42 44 44 42 44 45 48 47 46 41 38 37 39 42 42 43 52 55 57 54 57 54 44 43
58 55 48 42 41 40 42 45 50 54 54 54 57 56 54 52 49 49 46 48 49 49 52 53 52 48 46 45 44 38 36 37 37 38 39 40 42 45 49 57 62 60 64
59 50 44 42 41 43 49 57 58 62 63 68 65 60 56 52 46 46 50 53 54 58 56 54 52 47 39 35 32 33 29 22 24 27 28 33 36 38 43 50 55 54 60
61 49 46 44 45 51 60 64 67 72 74 72 70 65 61 50 50 48 51 55 58 58 54 49 45 40 32 26 24 20 17 18 22 24 25 27 31 34 42 45 51 57 58
61 57 54 51 51 62 70 73 76 76 80 79 65 55 49 53 56 58 59 60 57 55 51 41 34 32 30 28 22 26 20 19 22 26 29 31 32 35 40 41 42 44 51
58 63 63 57 60 72 75 80 83 86 84 67 60 50 54 57 59 61 58 54 49 41 37 34 32 32 33 28 23 18 17 21 25 27 30 33 35 36 39 44 47 47 55
59 66 62 67 74 77 78 80 88 90 79 69 56 55 60 62 65 62 56 50 39 30 29 34 35 37 37 34 30 23 24 26 27 32 34 36 38 38 38 39 45 49 49
75 68 72 76 77 81 87 85 88 86 77 63 59 62 64 67 62 61 53 39 31 27 28 32 43 40 40 39 39 31 31 35 28 32 36 36 36 35 32 30 29 29 31
76 74 79 82 89 91 93 89 76 75 66 64 64 67 65 63 63 56 43 34 27 26 30 31 36 43 42 45 45 42 38 38 35 35 33 30 28 27 25 24 24 26 32
83 87 92 95 97 97 95 79 70 66 64 66 70 68 64 66 58 46 37 31 29 33 33 36 36 47 50 49 48 41 40 38 31 28 28 27 26 26 26 27 29 35 37
93 97 97 97 97 91 77 71 70 68 69 72 70 66 63 53 44 36 34 34 36 40 40 36 42 51 55 53 50 49 48 42 34 30 29 26 28 29 33 35 33 32 30
99 97 97 95 94 86 75 77 75 72 74 73 69 64 51 42 35 32 34 36 40 42 46 43 48 57 64 56 52 51 51 42 36 36 33 31 32 36 36 32 29 29 31
95 98 98 93 86 86 79 77 77 76 72 67 59 42 35 33 31 31 34 38 42 46 51 54 53 58 57 58 54 52 50 47 44 42 37 35 39 38 33 31 31 33 37
98 94 94 88 85 74 73 77 73 67 63 51 33 27 25 29 30 30 33 39 43 46 51 55 55 56 59 59 59 56 54 54 48 46 45 42 45 42 39 38 38 40 43
91 90 87 82 77 76 77 69 61 56 46 32 26 25 29 28 24 25 29 35 45 54 53 55 57 59 58 58 61 62 62 56 52 52 52 53 54 51 50 48 47 50 54
79 77 71 72 74 72 64 54 50 40 30 26 24 28 30 32 34 33 34 36 38 44 49 58 61 60 62 63 67 69 68 62 56 61 56 58 58 57 55 52 51 49 51
69 69 70 69 65 60 56 47 37 26 24 24 23 28 32 34 39 41 40 38 35 35 42 50 58 65 67 71 71 70 66 66 64 64 59 61 62 61 62 57 52 52 56
75 74 70 60 59 56 44 36 26 24 25 25 30 34 34 33 38 39 40 42 43 47 50 55 61 67 75 79 76 75 74 70 65 61 69 64 66 65 66 57 51 54 63
70 60 58 58 53 47 38 28 28 29 30 28 31 30 30 37 40 41 42 41 44 52 61 63 70 73 76 75 74 76 78 75 70 72 73 68 68 67 64 58 62 64 68
57 60 56 51 44 35 31 28 26 25 21 22 23 29 31 32 33 51 54 50 52 60 72 74 71 70 72 76 75 76 81 80 76 75 75 69 74 71 64 59 61 65 76

GFSMA_prec_cthk_075.txt.gz
RH
71 63 60 57 55 59 71 68 59 53 47 35 34 34 34 32 31 31 30 28 23 22 23 27 29 29 28 27 27 27 28 28 29 27 26 27 26 25 25 25 24 23 23
71 75 54 55 63 75 70 59 53 47 38 36 35 34 33 30 28 27 31 31 30 25 23 24 30 31 30 30 30 31 31 33 32 33 34 30 30 30 31 30 28 25 24
69 52 66 73 81 66 56 51 47 39 38 37 34 34 33 31 30 30 32 36 35 32 30 28 29 30 31 33 35 36 36 38 42 42 40 37 36 36 37 37 36 34 30
61 77 85 86 64 56 50 47 42 39 38 36 36 34 33 33 33 33 35 35 34 33 33 31 29 28 30 32 32 31 35 37 44 47 43 50 48 48 50 49 46 44 40
80 86 82 59 51 49 49 44 39 39 37 38 36 37 40 38 35 37 39 36 37 37 32 33 33 32 33 33 30 30 31 32 37 44 48 49 55 58 59 58 57 54 50
79 70 58 54 51 47 44 39 37 37 41 42 44 44 42 40 42 42 42 41 39 39 38 40 39 41 39 38 36 33 29 29 34 34 37 39 44 42 46 50 52 55 53
85 64 59 55 50 44 40 37 39 43 46 49 46 46 46 46 47 47 44 44 42 44 43 45 46 46 43 41 38 35 29 23 20 21 24 22 26 33 37 37 42 47 46
81 70 60 54 48 42 39 40 46 51 53 52 54 54 55 54 49 42 38 42 46 48 50 49 47 47 46 42 37 31 26 19 14 13 15 15 15 18 22 25 27 38 45
75 70 59 53 46 43 44 46 54 59 63 63 62 65 62 57 49 46 43 44 50 51 53 51 49 46 41 36 31 29 22 16 14 14 15 16 19 21 23 25 30 34 41
85 78 71 57 51 49 52 55 59 67 69 70 68 69 68 59 56 50 52 53 54 54 55 53 47 39 35 31 27 26 17 16 15 14 15 16 19 22 26 28 33 36 39
93 86 76 60 58 59 59 59 66 73 73 76 79 72 70 65 58 57 54 58 58 55 52 45 42 33 31 28 28 27 20 17 16 15 17 20 20 22 24 28 31 37 40
86 87 75 70 63 66 63 67 72 75 76 75 77 80 75 67 61 58 60 59 55 53 46 37 33 36 31 33 33 28 23 21 18 21 23 23 25 26 27 30 35 39 44
90 90 76 70 71 69 72 74 79 78 79 80 78 68 63 57 59 63 60 55 56 46 36 30 29 34 34 36 35 32 28 23 23 25 24 25 25 25 27 29 30 35 39
87 87 77 73 80 76 81 82 86 86 89 85 77 63 59 61 64 63 59 59 47 37 34 31 31 34 42 43 41 35 36 34 36 33 29 29 26 24 24 25 26 26 31
89 86 80 83 86 86 86 91 97 94 86 80 74 67 63 69 66 61 61 50 44 38 33 30 32 35 40 47 49 44 44 51 48 39 37 29 21 20 22 25 25 25 27
94 91 87 89 87 92 97 97 95 87 85 85 78 67 69 69 64 62 51 49 44 39 35 33 34 37 42 47 52 56 57 54 48 45 39 30 24 21 23 23 25 26 28
98 94 94 95 98 98 97 97 93 90 91 85 76 70 72 69 66 50 43 43 40 38 38 34 38 40 44 49 59 63 63 59 53 54 43 33 29 27 27 27 29 31 32
99 98 98 94 95 97 96 95 94 91 89 83 76 74 68 63 50 38 36 38 37 38 44 41 37 42 53 58 57 65 58 54 51 53 48 39 35 33 34 31 34 36 34
98 96 97 98 98 97 95 94 92 87 83 75 71 66 57 44 36 34 34 37 38 40 42 47 45 50 54 48 51 59 57 55 55 52 51 45 41 40 38 39 41 41 38
83 96 97 94 97 94 89 91 90 84 71 63 58 51 43 35 33 32 31 36 41 44 45 46 45 50 45 39 56 64 67 71 67 64 60 55 53 52 50 48 48 47 45
78 79 69 77 80 69 70 72 69 63 54 50 45 41 35 33 33 31 32 31 34 35 37 42 42 49 44 59 69 76 79 79 76 73 67 67 66 62 60 56 58 56 51
74 70 76 64 67 70 69 61 51 44 46 41 35 32 32 33 35 38 40 41 41 40 39 44 43 44 52 74 79 78 79 82 73 77 75 74 72 64 64 65 65 59 54
70 64 64 69 71 67 58 51 47 43 38 34 30 29 31 31 32 37 40 41 47 52 55 56 49 43 52 67 75 75 75 78 76 78 81 71 67 67 69 67 68 62 56
65 68 71 69 63 56 54 50 44 38 32 33 32 32 34 33 34 41 42 42 46 48 64 64 51 49 58 65 75 79 78 77 73 73 79 72 76 71 71 70 67 64 59
69 73 67 61 58 59 56 47 40 35 35 32 30 27 26 28 28 31 33 37 36 30 54 67 56 63 67 73 77 81 80 80 73 79 82 85 80 76 71 69 73 69 62
66 62 61 61 58 52 49 44 38 36 29 25 23 24 23 22 21 20 25 30 36 42 50 72 72 62 74 79 81 84 82 79 80 82 87 88 86 80 71 71 76 65 61

GFSMA_prec_cthk_078.txt.gz
RH
66 66 63 58 55 54 53 64 72 57 48 35 33 32 31 30 28 25 26 27 27 23 24 28 28 24 24 25 25 25 26 27 27 28 27 28 26 26 26 27 26 25 23
77 72 71 61 55 51 68 72 58 49 38 35 35 31 30 27 27 27 25 28 29 28 26 25 25 24 26 27 27 27 29 32 30 31 31 31 32 33 33 33 35 34 32
80 78 69 59 53 77 72 60 50 43 37 35 31 30 28 29 29 28 28 29 31 30 26 27 26 25 26 27 27 29 32 33 33 38 38 35 42 44 43 43 44 43 42
77 71 61 68 81 78 62 52 47 40 38 33 31 31 32 34 32 30 32 33 33 29 29 29 28 29 26 26 28 27 26 27 29 33 35 43 40 42 42 47 46 45 44
66 63 75 86 81 62 50 47 44 38 36 34 35 35 37 38 34 36 36 36 34 31 28 30 33 32 33 33 31 30 27 25 24 28 28 34 35 32 31 33 35 41 47
67 87 88 74 57 53 49 46 40 38 36 39 43 44 41 42 42 41 43 41 35 34 35 35 35 36 37 34 32 31 28 25 20 18 22 20 20 19 18 20 21 26 28
79 81 81 61 57 54 49 42 39 39 40 46 49 50 54 52 51 49 45 41 40 41 41 39 40 41 39 36 35 33 26 22 19 15 12 13 15 17 18 19 20 23 28
81 88 76 64 58 53 45 42 40 43 49 52 56 62 60 58 56 57 50 46 46 43 41 43 45 43 41 38 34 31 24 21 19 17 13 11 12 12 15 19 19 20 23
84 90 82 71 62 53 48 45 45 49 54 58 67 69 67 65 63 60 53 49 47 42 44 46 45 44 43 37 33 30 23 22 21 19 15 13 13 17 18 19 20 26 27
83 91 89 79 70 63 54 51 53 57 59 65 67 69 67 68 69 63 60 58 52 50 52 50 46 42 38 36 33 31 24 23 22 22 18 15 14 16 20 21 23 27 27
83 90 87 93 86 76 69 63 66 65 64 71 74 76 71 67 68 65 56 50 49 54 55 53 47 42 39 35 31 29 27 24 22 23 19 15 16 18 21 24 24 27 30
86 88 85 86 86 81 74 70 66 69 72 78 82 75 75 77 74 68 61 58 54 54 53 47 41 36 33 34 33 32 32 26 23 23 21 20 20 21 24 24 28 29 29
76 87 88 85 90 86 78 74 75 78 79 85 85 88 88 81 71 72 69 59 55 52 47 39 35 32 30 31 34 34 33 31 27 26 25 24 28 29 28 28 22 23 29
65 71 78 85 92 91 86 85 83 84 86 89 91 91 82 79 79 73 70 61 54 48 40 34 32 29 29 31 34 36 37 38 37 35 35 35 35 33 33 25 19 19 24
67 76 82 86 91 94 92 92 88 91 94 96 94 90 88 85 80 78 72 60 52 42 36 34 29 27 25 28 33 34 36 40 40 41 40 39 34 35 35 24 21 20 20
81 82 82 89 96 98 97 95 95 93 97 95 93 93 88 84 79 73 64 53 45 40 36 32 30 30 30 33 37 41 50 52 46 45 48 46 40 38 39 30 27 23 24
81 83 90 98 98 98 98 96 97 97 94 94 94 90 89 81 71 67 52 43 40 38 37 32 32 32 34 36 37 39 45 49 53 43 60 61 45 44 45 34 33 31 30
83 82 82 91 95 98 98 97 97 96 96 93 90 81 79 73 63 51 47 42 38 35 40 39 39 41 41 44 47 48 43 45 48 43 66 57 49 49 47 41 42 40 40
89 87 83 78 80 87 88 97 95 83 86 88 76 71 66 58 48 46 39 37 36 38 44 44 40 39 41 46 48 45 46 50 47 62 67 64 58 53 58 51 53 51 48
93 92 76 71 89 74 74 67 73 78 71 69 71 60 51 46 42 34 33 34 35 35 37 38 39 40 46 43 42 42 44 52 67 73 71 73 70 66 64 61 64 58 56
96 82 79 76 75 71 68 66 62 68 70 64 53 49 46 39 35 37 36 34 33 32 34 38 38 40 45 42 47 41 51 70 74 78 82 74 71 68 71 71 66 61 63
86 78 73 74 75 73 62 66 69 68 59 52 46 42 35 33 34 33 34 33 34 38 42 45 48 55 54 56 58 48 56 77 79 76 79 73 73 70 69 68 64 68 69
78 73 74 71 65 63 69 69 61 56 54 47 42 37 37 37 35 35 36 36 35 38 44 48 52 52 55 55 64 49 54 72 70 72 75 67 72 67 69 66 72 70 69
73 72 70 66 69 69 64 61 62 56 50 45 41 42 40 36 35 34 31 30 32 34 37 46 46 46 54 48 71 61 62 68 70 72 78 68 69 64 73 78 77 70 64
72 68 68 68 67 62 62 64 60 54 50 44 42 38 33 31 29 27 28 27 25 23 21 25 30 37 44 44 75 70 71 79 72 74 75 74 68 75 82 80 75 71 68
65 66 68 67 65 62 64 61 54 48 43 39 37 35 32 29 27 28 32 33 32 29 32 26 24 37 42 57 76 67 82 83 84 74 77 76 74 83 81 81 72 69 69

GFSMA_prec_cthk_081.txt.gz
RH
72 65 61 60 65 71 61 52 56 63 56 42 32 32 32 31 25 24 24 23 25 24 23 24 23 24 22 21 22 23 24 28 27 27 27 27 27 28 30 28 30 31 31
72 65 64 64 68 64 55 58 66 62 45 35 35 32 30 28 25 24 24 26 28 26 25 24 23 22 24 24 26 28 30 30 29 32 31 30 31 33 33 34 36 38 38
69 69 70 67 63 59 57 74 66 48 38 36 35 31 29 29 32 28 27 28 29 30 25 23 24 25 25 25 27 27 26 27 30 32 31 34 39 38 38 36 36 34 32
80 76 74 67 61 62 82 70 54 43 37 35 33 30 32 34 34 31 30 31 30 30 27 28 29 29 28 29 30 28 26 24 24 25 28 37 36 30 29 26 24 26 29
76 79 78 71 73 83 74 55 46 43 37 35 32 34 39 38 37 38 36 35 36 33 32 35 32 30 31 32 31 29 26 25 21 21 24 23 22 23 21 20 19 20 24
77 75 78 74 85 72 59 50 47 40 36 35 37 42 44 47 47 47 45 43 42 37 36 37 34 33 35 34 33 32 28 24 21 19 17 16 15 17 15 17 19 19 21
88 89 82 87 77 59 54 50 44 39 36 37 43 49 51 51 52 53 53 50 48 43 42 42 38 37 37 37 36 32 27 25 26 23 20 15 13 13 15 20 20 20 20
86 83 77 80 69 56 54 51 44 42 39 41 48 53 55 58 58 59 57 53 50 50 52 45 41 41 40 39 36 33 29 25 22 21 20 18 15 14 19 20 21 28 29
85 90 86 80 72 63 59 57 53 48 47 48 55 59 63 61 60 60 57 55 55 57 56 52 49 44 43 39 36 32 30 27 22 21 20 19 17 16 15 20 22 28 29
77 76 78 84 83 79 76 69 63 59 59 61 63 63 67 69 70 67 63 62 61 64 63 59 53 50 45 38 36 32 28 25 23 22 21 21 19 19 18 17 21 24 29
69 74 78 82 85 79 79 80 81 75 69 69 67 65 70 77 72 71 72 70 68 68 66 63 56 52 45 41 36 30 28 27 27 23 24 23 24 25 23 20 20 25 26
75 79 82 86 89 86 84 82 83 80 78 78 76 76 78 78 78 81 73 70 72 71 70 68 59 50 42 36 30 28 28 29 30 32 30 28 30 32 32 29 25 25 27
81 84 82 80 77 82 82 83 89 90 88 89 88 84 83 86 85 80 77 75 69 69 63 54 47 38 31 27 27 28 30 33 34 35 36 35 35 36 35 33 31 27 23
78 70 63 64 74 81 83 86 90 97 90 94 91 89 90 92 93 90 82 79 77 68 55 46 36 29 25 25 26 30 31 33 35 36 38 37 36 39 32 34 37 36 28
74 65 70 79 83 80 85 91 98 97 97 96 94 95 96 94 92 92 88 83 76 62 44 35 30 27 27 26 26 26 28 30 32 35 38 39 38 45 42 38 44 42 31
79 74 82 82 78 79 93 98 98 98 97 96 98 97 95 96 90 80 82 72 58 47 41 34 31 32 34 37 37 36 38 39 39 39 41 44 47 50 51 49 52 41 36
85 83 79 79 78 79 85 79 88 95 97 95 92 96 96 85 76 66 64 58 49 48 40 36 37 36 38 42 43 44 48 54 56 55 55 54 53 56 55 57 50 47 47
86 79 77 84 81 83 77 71 74 75 78 74 71 77 72 71 68 67 59 56 52 42 43 42 41 40 43 47 47 47 48 53 57 59 60 54 51 64 63 60 55 53 58
86 82 86 92 89 86 72 79 83 72 76 71 69 69 72 70 66 62 57 48 41 44 45 41 39 40 42 47 48 49 47 46 46 44 43 44 55 69 68 63 62 58 66
85 88 86 92 92 82 77 76 75 72 79 72 67 70 71 68 61 50 43 39 42 43 41 40 38 36 36 36 41 43 40 51 45 38 36 52 71 78 74 75 70 67 64
87 90 87 89 89 80 71 75 69 76 67 67 70 71 69 60 48 43 42 45 45 41 40 39 40 40 39 40 44 47 57 53 45 43 38 59 77 80 74 70 69 67 68
90 89 86 81 82 76 70 83 70 64 69 74 75 70 59 46 42 41 42 41 42 43 42 43 42 45 43 45 50 54 56 65 58 50 49 54 69 68 66 66 69 68 70
85 81 81 78 71 78 75 79 67 75 79 76 68 57 50 45 44 44 44 44 43 42 42 44 44 44 45 45 48 48 46 58 54 62 66 62 73 66 69 66 63 66 74
82 81 76 73 77 69 69 69 75 76 71 63 58 54 52 51 49 46 41 38 35 34 33 32 32 31 32 32 34 40 38 52 53 68 68 66 69 65 64 63 65 77 78
72 70 70 70 69 68 70 74 72 66 62 63 60 56 53 49 46 43 39 35 33 33 33 36 39 39 38 36 36 40 48 52 72 68 76 78 69 64 62 62 70 80 80
66 69 69 68 69 74 74 71 68 67 66 63 56 50 48 48 46 44 41 38 36 36 38 39 42 41 40 33 30 31 38 57 77 70 76 81 78 71 62 62 73 80 79

GFSMA_prec_cthk_084.txt.gz
RH
65 69 70 68 60 60 71 64 58 54 62 54 38 28 29 28 25 24 23 24 24 25 25 23 20 21 21 21 21 21 22 29 24 28 27 26 27 29 29 28 28 29 28
71 69 72 64 59 65 71 65 57 61 59 48 32 31 30 27 25 25 26 26 27 27 26 22 24 26 24 24 23 25 26 25 28 28 27 27 30 35 30 31 27 24 24
72 71 69 62 62 67 69 58 59 64 58 37 33 31 29 28 30 29 26 28 29 30 29 25 28 28 25 25 25 25 23 22 22 24 28 32 35 25 25 24 23 19 28
72 69 64 64 64 66 58 59 73 61 46 36 34 32 31 33 33 31 30 30 31 33 33 31 32 33 33 30 29 27 24 22 22 21 24 22 23 24 22 22 20 20 19
74 70 67 63 66 60 62 80 70 49 40 35 33 33 34 36 39 39 39 39 38 38 38 36 36 37 36 33 33 31 27 24 21 18 17 16 16 18 19 18 20 20 20
82 75 71 66 68 67 80 70 55 45 41 36 35 36 38 41 46 47 47 47 46 46 43 41 40 40 41 40 38 36 32 27 22 21 19 18 16 14 13 12 14 20 20
81 73 71 72 71 81 71 62 51 45 41 38 35 37 41 46 51 53 53 53 53 51 49 44 43 45 46 45 42 41 35 29 29 25 22 20 19 18 16 15 14 19 20
72 73 81 82 86 79 65 53 51 47 42 41 40 41 44 49 53 60 60 59 56 54 51 50 48 50 52 50 48 43 34 30 27 26 23 21 21 19 18 18 17 18 21
76 80 82 78 83 76 70 66 64 60 56 51 49 50 53 56 59 61 65 65 62 61 59 59 59 61 59 56 51 43 36 34 30 26 24 23 22 22 21 21 22 20 18
75 84 81 78 82 86 88 87 83 80 76 70 65 62 62 63 64 63 65 66 70 67 64 62 64 59 56 51 49 44 38 34 30 26 24 23 23 23 23 24 24 23 23
65 75 75 80 87 86 88 85 85 83 79 77 75 75 74 74 76 75 73 77 76 71 66 66 63 62 58 55 50 41 36 31 27 26 28 28 26 27 27 28 28 28 27
64 73 75 80 83 89 90 86 81 82 82 83 85 86 86 86 86 85 80 82 77 73 67 65 68 69 66 58 46 37 31 27 27 30 32 33 34 37 35 33 33 32 31
70 75 79 81 78 74 72 75 81 81 82 85 90 94 94 93 93 86 84 80 79 79 77 73 75 64 56 45 36 29 27 27 28 29 32 36 39 40 40 38 36 36 36
77 77 76 77 65 68 76 85 79 83 81 97 96 97 97 96 93 90 90 89 84 80 69 64 64 53 45 35 26 25 26 25 26 28 32 35 37 41 42 38 40 44 41
80 81 80 79 74 78 82 78 79 79 91 92 97 97 97 95 92 89 87 91 86 68 61 59 55 45 35 27 29 31 31 30 31 34 36 38 39 43 47 49 49 45 43
76 83 89 89 89 86 84 83 78 83 77 78 89 94 92 87 77 82 84 83 71 61 55 56 49 38 32 34 35 34 35 38 40 42 45 46 50 60 70 71 64 50 52
78 85 90 92 91 85 85 83 82 85 72 71 71 78 78 74 69 70 71 69 66 63 57 51 44 38 39 40 39 41 40 44 48 51 48 52 60 55 57 54 60 51 56
92 92 90 94 89 82 85 87 83 84 72 72 70 70 78 77 71 69 68 68 67 64 55 46 41 41 42 42 40 42 42 47 46 49 49 52 54 51 44 54 59 60 69
84 89 91 90 87 85 87 90 89 84 72 78 75 71 76 73 68 68 70 70 67 60 50 43 41 41 42 42 42 41 40 43 45 48 53 54 54 41 37 42 56 68 71
77 79 86 86 89 89 89 86 87 88 71 80 76 81 75 70 71 73 72 67 58 49 44 45 43 42 42 42 41 42 42 46 47 51 47 55 49 46 43 50 69 77 82
80 80 85 86 86 86 84 82 85 75 81 76 93 88 73 73 75 72 67 59 52 48 48 47 45 44 43 43 44 46 48 48 47 44 45 55 55 53 51 56 63 70 66
73 77 82 86 82 77 76 91 85 80 85 77 78 70 75 78 77 69 60 52 49 49 49 48 48 47 46 45 45 43 45 46 46 40 42 37 45 48 59 62 66 66 65
73 74 75 78 81 77 78 77 76 96 85 73 73 79 83 80 71 59 54 52 51 52 52 52 50 47 41 40 39 40 41 40 40 31 45 37 49 50 61 66 67 66 61
67 71 75 76 76 86 81 69 85 88 76 78 82 85 77 64 60 59 54 54 49 49 49 48 46 44 44 43 46 46 45 42 35 38 48 51 50 64 66 67 67 64 62
67 68 71 78 74 77 68 80 80 81 84 84 81 72 66 66 62 55 51 54 53 50 50 48 47 46 46 47 52 51 47 43 36 31 37 52 72 72 70 69 73 70 66
60 60 61 64 75 75 83 88 83 88 86 79 74 69 66 61 58 59 57 55 55 55 54 51 50 49 51 51 50 52 43 43 44 38 32 67 78 78 72 72 74 69 68

GFSMA_prec_cthk_087.txt.gz
RH
61 61 67 62 64 67 65 62 62 61 59 57 53 37 32 30 27 24 23 22 23 24 25 25 21 22 22 20 19 20 24 22 23 27 23 24 26 25 24 23 21 22 21
63 68 72 66 67 67 67 68 67 59 57 56 48 37 31 28 27 26 24 25 25 25 26 24 22 24 25 26 23 22 21 21 22 27 23 24 26 23 21 20 20 18 17
66 70 70 70 69 66 70 70 68 61 56 60 43 36 30 29 29 30 27 27 29 27 27 27 26 27 30 30 26 25 24 22 20 20 23 25 23 23 22 21 21 20 20
71 75 73 72 68 69 72 73 70 61 62 56 39 33 31 31 32 32 31 31 32 30 30 32 33 32 33 32 31 30 29 28 26 23 20 19 19 19 19 19 17 13 17
76 76 74 72 67 69 72 69 62 67 67 45 37 34 31 33 36 39 40 40 41 39 39 38 39 39 35 35 35 35 37 36 30 26 21 18 18 16 14 14 13 12 12
81 79 74 71 69 63 66 64 76 72 52 44 37 34 33 35 39 44 46 46 48 48 49 48 47 46 41 39 42 42 44 45 37 30 25 22 22 20 17 16 15 15 15
83 76 72 65 63 65 67 76 74 59 52 42 37 34 33 35 38 42 49 52 55 56 55 53 52 54 50 51 53 54 48 42 39 34 29 27 23 22 21 20 18 17 17
79 75 68 64 64 70 76 76 63 61 55 46 42 41 41 42 46 51 54 58 59 61 61 60 57 56 58 59 58 53 50 48 46 38 34 27 24 23 22 21 19 19 18
79 79 77 72 78 84 80 74 73 67 68 64 58 55 55 55 57 61 65 66 65 64 63 66 67 67 63 62 56 54 53 54 52 43 34 29 25 24 23 22 21 21 21
76 75 78 81 85 86 82 79 77 79 79 81 80 75 70 67 68 71 73 73 76 75 73 74 71 67 64 58 57 57 54 52 46 41 37 32 29 26 25 24 25 25 24
73 74 78 83 79 79 82 86 86 86 85 86 85 82 79 75 75 77 79 81 82 80 78 74 70 68 67 68 63 56 51 49 45 40 34 32 30 29 29 30 30 28 26
62 65 67 73 76 81 84 87 90 92 92 82 76 78 79 82 81 86 87 89 89 81 79 73 73 73 70 67 60 51 48 45 37 31 31 31 32 33 33 32 32 32 31
58 58 63 71 76 80 82 85 80 77 77 82 83 82 84 86 94 95 95 97 86 77 74 74 77 75 70 60 52 49 46 37 30 29 29 29 30 32 34 36 37 38 42
61 66 70 77 81 78 75 70 69 77 80 87 82 79 91 83 92 96 97 94 84 75 72 79 81 78 66 58 53 46 37 30 30 31 33 34 35 35 37 40 42 46 50
61 69 78 79 77 81 79 77 79 81 82 75 79 85 72 74 86 91 93 81 74 69 69 73 70 71 64 56 49 40 35 33 35 37 36 41 41 40 42 43 48 46 49
66 67 75 82 83 84 89 91 88 90 88 87 78 96 69 71 73 75 73 72 67 64 62 67 67 63 59 54 45 39 38 39 40 39 40 40 41 42 44 47 52 59 51
79 81 83 86 93 97 97 91 86 83 84 85 83 82 73 72 68 67 69 71 69 65 63 66 67 63 59 51 44 43 43 42 42 43 43 45 43 45 47 50 48 49 45
76 88 94 94 97 98 96 96 90 88 87 87 89 87 75 72 69 71 68 70 69 68 68 68 69 64 59 51 45 45 46 45 45 44 44 45 47 49 51 52 51 49 44
89 98 98 93 92 93 94 93 90 87 89 83 81 85 84 76 75 76 77 81 76 74 75 71 66 60 53 49 49 49 48 47 46 47 48 50 51 50 51 49 52 46 45
93 74 75 78 81 88 92 92 85 86 86 83 84 87 80 71 75 77 86 85 77 78 77 70 61 55 52 51 51 49 47 46 46 48 47 49 50 52 44 50 47 46 48
87 79 69 80 78 82 85 86 86 81 79 79 91 87 74 73 85 80 83 78 80 78 73 64 56 51 51 53 53 54 49 45 42 42 40 40 48 42 48 49 43 41 47
66 71 71 71 74 75 79 85 83 83 78 88 98 79 82 93 94 86 80 82 83 79 70 58 56 54 55 55 55 50 47 45 44 47 45 43 46 43 47 43 46 47 51
67 64 64 64 69 78 87 84 82 80 90 95 95 86 88 92 92 82 83 86 84 70 62 61 59 59 55 55 54 54 52 52 51 52 55 46 42 42 41 50 53 55 61
57 60 65 70 75 87 85 87 84 96 90 91 82 85 94 93 88 87 89 81 70 64 64 57 52 55 56 58 59 59 60 60 58 59 60 52 41 36 39 51 57 64 68
60 63 65 67 75 85 88 89 95 86 83 91 95 94 97 95 92 85 76 65 60 63 59 61 60 59 63 64 64 66 68 69 64 57 58 54 42 34 35 47 65 72 68
58 59 63 63 70 75 82 80 81 92 95 95 96 98 95 87 80 72 66 60 64 65 67 61 62 65 65 63 62 64 66 70 70 63 54 51 44 50 49 59 67 71 75

GFSMA_prec_cthk_093.txt.gz
RH
61 50 52 56 60 61 63 64 65 65 64 61 58 54 51 46 41 35 30 25 21 21 23 22 20 20 20 21 22 19 19 24 22 21 28 27 23 20 17 14 13 12 12
57 51 51 57 61 65 68 69 69 70 68 66 62 57 53 44 39 33 29 25 21 22 24 25 24 23 23 25 25 22 22 24 24 22 29 24 21 19 16 15 15 15 14
55 53 53 59 64 68 72 73 72 74 74 69 63 58 57 47 43 34 32 27 25 26 25 26 25 25 26 28 29 26 23 24 23 24 27 25 23 20 18 19 17 15 13
59 54 59 66 67 71 73 76 79 79 77 73 67 60 56 52 43 36 29 28 31 30 29 30 31 32 34 34 35 35 33 32 30 32 33 32 29 28 27 22 18 16 15
63 61 62 68 69 71 74 76 81 80 80 78 68 54 58 48 40 30 31 38 39 36 38 38 39 40 41 42 42 43 40 39 39 41 41 38 32 30 28 23 20 17 16
73 69 69 71 74 75 77 78 81 84 85 79 65 59 61 41 38 33 37 36 38 38 39 42 43 46 50 49 50 48 46 46 48 49 47 44 39 38 34 30 24 19 18
86 80 77 77 78 81 78 79 80 84 83 77 66 71 51 44 40 33 34 36 40 45 48 49 55 55 56 58 58 58 58 58 58 57 54 53 50 46 41 33 24 21 20
88 86 82 84 84 84 82 81 78 80 80 79 79 62 50 42 37 37 37 41 46 52 58 66 68 70 70 72 73 72 69 66 69 66 64 68 58 46 38 28 26 26 24
91 90 94 90 87 85 83 78 77 74 77 83 70 62 58 56 55 53 52 53 59 67 69 69 71 74 76 77 78 77 72 68 68 65 64 60 53 49 45 39 35 33 31
86 90 91 90 87 86 83 78 70 72 82 80 76 75 75 71 72 71 75 79 77 74 75 76 77 80 83 84 86 81 72 71 63 57 59 57 54 53 50 47 47 43 43
85 89 92 92 87 78 70 69 73 80 84 87 90 87 85 83 83 81 76 68 74 78 81 81 83 85 87 90 87 85 78 68 66 64 61 54 52 52 46 46 46 47 48
84 88 91 88 78 75 72 80 82 88 90 92 93 92 91 92 89 96 94 87 83 84 83 79 87 77 86 90 87 83 70 67 64 60 59 54 49 43 39 41 44 50 51
78 82 82 78 77 78 78 80 82 86 87 89 91 90 93 95 97 93 89 84 88 86 79 70 76 82 85 84 78 69 65 61 60 61 58 50 44 41 38 37 40 44 49
66 66 71 71 72 72 73 79 79 77 77 78 84 88 95 95 95 84 87 85 89 89 84 78 75 80 79 74 65 66 64 58 63 58 53 48 44 42 42 42 42 42 46
63 58 59 60 64 65 67 71 72 70 76 77 75 80 91 93 92 94 93 91 93 91 94 78 75 71 67 65 66 62 59 65 63 58 53 51 49 47 47 48 48 46 47
59 60 60 60 63 65 67 71 71 75 78 79 85 86 88 94 97 98 97 97 96 92 86 82 77 71 68 67 68 69 70 70 68 61 57 56 54 52 52 52 52 49 51
59 62 63 65 67 70 74 78 79 81 86 94 96 95 93 94 97 95 96 96 96 90 89 78 82 77 73 76 76 76 81 80 70 65 59 56 55 55 53 54 51 50 51
64 63 64 66 69 74 76 82 87 91 94 95 96 99 96 96 94 91 97 96 95 82 72 77 84 84 76 79 85 87 89 84 79 68 61 60 59 58 58 54 53 56 56
66 66 67 69 76 86 94 95 89 82 85 91 96 94 95 93 93 90 95 89 82 77 83 83 88 92 85 88 88 90 86 86 76 68 62 60 59 58 57 53 57 56 58
66 65 72 75 78 84 90 88 77 83 82 77 81 80 86 89 86 97 98 79 80 87 95 97 94 92 97 91 92 92 91 85 73 64 61 59 57 57 56 60 64 62 60
61 67 74 83 86 87 85 86 86 83 80 77 75 77 75 82 93 91 89 84 86 89 99 99 95 96 98 97 97 97 91 80 68 65 62 61 59 59 65 69 68 67 64
62 69 74 76 74 75 75 79 74 73 77 76 73 69 73 80 88 97 89 92 99 99 98 94 97 96 97 96 97 96 80 74 73 68 69 62 65 69 71 70 69 67 62
68 67 68 70 65 67 69 67 68 68 72 70 71 73 78 79 99 96 97 98 92 96 96 98 98 97 97 98 94 83 76 66 65 76 74 72 75 75 74 72 69 65 61
65 62 62 67 68 67 62 64 66 68 69 67 72 75 80 83 88 95 97 98 96 96 97 98 98 97 91 83 82 74 68 69 77 78 84 79 81 79 80 74 67 64 57
63 63 63 63 62 57 60 60 61 62 61 62 64 68 72 82 86 93 92 95 98 96 97 95 91 93 88 80 79 81 86 87 87 89 92 87 87 87 81 78 72 59 55
65 67 66 64 62 65 66 66 67 72 71 77 77 86 91 93 94 98 97 95 96 97 96 95 91 91 93 91 91 88 92 95 96 90 97 96 98 95 82 75 71 63 52

GFSMA_prec_cthk_096.txt.gz
RH
78 73 72 55 57 64 65 70 69 65 60 58 64 61 57 56 53 48 43 35 30 26 25 23 20 20 21 21 22 20 20 17 18 20 20 19 19 18 16 14 13 13 12
77 76 73 56 58 66 69 69 67 68 65 64 64 62 63 61 54 49 45 35 30 27 29 28 25 23 22 24 25 25 22 21 21 21 23 22 23 21 19 18 16 15 16
86 81 66 60 59 63 64 67 69 70 70 68 65 66 61 60 56 48 44 39 35 33 28 27 29 27 29 26 28 28 27 26 24 25 26 29 31 29 26 25 23 20 16
86 83 64 63 60 62 63 66 72 71 73 73 72 68 64 58 59 52 47 46 43 40 31 34 35 37 33 34 34 34 35 35 33 32 34 35 36 36 34 32 27 25 24
85 77 64 62 60 62 65 67 73 75 78 79 75 73 66 61 57 52 49 49 45 39 44 49 39 38 38 38 40 43 45 43 41 40 41 42 45 43 39 36 34 31 27
90 70 60 63 63 65 69 72 76 78 82 83 80 76 67 60 59 49 47 44 41 49 51 43 38 41 40 42 47 49 49 51 51 51 52 52 51 49 46 45 38 29 22
86 67 68 64 67 68 73 74 78 80 83 85 83 78 68 64 59 45 43 45 47 41 40 43 47 48 50 56 59 61 62 63 63 61 60 57 56 54 50 43 31 26 22
82 72 69 69 71 74 77 78 80 81 79 84 86 82 76 72 57 46 44 37 37 38 40 45 50 56 64 64 62 63 65 70 71 68 65 62 61 58 50 43 40 33 26
86 78 78 76 77 80 81 83 82 82 80 82 86 84 84 70 61 58 53 49 47 48 54 59 68 69 68 68 65 67 68 71 76 74 71 72 66 56 53 46 41 37 33
94 90 86 84 85 84 84 84 84 83 81 81 85 84 82 69 70 70 73 67 65 66 76 75 70 70 71 72 71 74 74 76 78 78 75 73 65 58 52 49 48 45 46
92 94 92 89 90 92 88 86 85 80 77 73 76 87 86 80 82 81 80 81 79 77 75 69 74 75 79 73 70 72 69 74 78 79 78 59 53 49 52 51 49 47 48
94 94 93 89 91 91 88 80 76 73 64 71 82 86 89 93 92 89 89 93 97 94 91 90 84 83 81 67 64 69 74 77 76 70 62 55 50 51 51 51 50 47 50
92 89 89 87 86 83 73 70 69 67 72 82 85 90 89 92 95 94 93 95 94 98 91 82 76 84 82 76 71 70 75 76 73 64 63 54 52 56 53 48 45 46 47
76 75 74 75 74 76 74 78 81 78 77 81 84 85 85 84 83 85 94 98 99 98 89 82 86 87 84 84 70 69 71 68 63 59 57 51 57 57 52 46 43 42 41
65 65 64 63 65 69 75 74 73 71 73 77 76 75 74 75 76 78 84 92 99 93 93 90 89 90 90 84 75 71 66 62 63 61 62 65 63 57 49 49 49 48 46
59 59 60 61 64 65 66 67 68 70 74 76 77 79 78 77 80 83 90 93 98 99 97 96 97 95 92 88 79 69 62 61 64 71 73 68 64 58 55 52 51 49 49
56 59 60 62 64 65 67 73 75 76 78 80 82 81 83 86 90 96 98 96 96 97 98 98 95 97 92 84 69 71 72 79 69 71 77 75 71 65 61 56 52 52 50
62 65 69 70 71 72 74 76 76 78 82 83 85 88 85 91 97 99 97 98 98 98 97 96 98 96 94 83 80 86 88 89 87 87 89 87 81 72 62 61 57 55 52
64 66 68 71 72 71 70 70 72 78 86 92 91 84 82 84 78 84 89 94 97 98 96 93 98 95 90 86 88 93 94 96 95 95 95 92 86 73 70 63 61 58 55
70 68 69 69 67 69 76 83 86 88 90 89 89 85 85 91 80 80 79 81 85 84 92 98 97 97 92 92 94 98 98 98 97 97 98 94 90 80 66 62 59 63 61
69 75 76 67 69 75 83 84 89 91 90 86 85 89 81 83 82 79 78 77 75 78 83 92 98 97 99 97 99 99 98 97 98 97 96 95 82 70 67 72 76 71 69
47 50 55 65 71 75 80 81 88 85 80 76 76 76 69 70 73 73 73 74 72 87 83 99 98 99 98 98 98 98 97 97 97 97 95 93 89 80 73 74 75 76 76
56 61 68 73 74 72 72 74 76 73 72 73 68 65 67 66 68 69 72 75 74 78 85 97 97 97 98 98 97 97 98 97 97 97 95 89 86 84 84 84 82 81 78
69 69 73 75 74 69 68 70 69 71 67 64 64 62 62 67 71 71 70 78 82 79 82 88 95 95 96 96 97 97 97 96 96 93 90 88 92 93 93 92 90 87 85
75 77 77 74 69 66 66 67 66 65 62 65 69 71 74 72 75 80 82 83 88 90 96 98 97 97 97 97 97 97 97 97 96 96 98 96 95 96 94 93 94 95 90
71 75 73 68 67 67 71 74 75 71 76 78 79 81 83 87 90 91 93 95 97 97 97 97 97 97 97 96 97 96 97 97 97 95 98 97 98 99 93 92 94 97 95

GFSMA_prec_cthk_102.txt.gz
RH
66 72 69 64 54 51 51 50 49 54 55 55 60 57 60 62 54 52 41 40 37 36 34 29 26 24 22 19 19 18 19 18 18 18 17 17 17 17 17 17 17 18 20
69 72 81 72 64 55 52 52 54 61 62 61 59 56 60 60 58 54 45 42 37 36 34 32 27 26 22 21 21 21 25 25 21 18 18 19 23 24 23 24 24 26 27
74 75 82 81 77 64 57 55 60 65 67 63 60 62 62 62 61 61 54 47 39 35 34 33 27 25 24 24 25 27 31 30 23 23 22 26 28 29 29 30 30 31 33
83 79 78 81 84 73 64 60 69 65 64 63 62 63 63 65 68 64 59 52 46 36 34 31 27 26 28 33 36 38 36 29 28 28 31 35 35 35 38 39 38 38 37
94 88 79 78 83 76 73 76 77 68 64 62 63 66 67 68 69 68 63 58 51 46 40 35 33 36 39 40 42 40 37 32 33 34 42 44 46 46 45 45 43 41 40
96 91 83 87 87 84 90 88 79 71 68 64 67 68 68 71 70 71 66 65 61 52 44 43 46 44 44 40 37 35 33 36 39 47 51 50 48 48 51 52 49 45 45
97 95 88 87 94 89 91 85 79 77 71 68 74 73 75 75 75 73 68 63 62 52 46 45 42 43 41 35 36 34 37 42 48 54 53 54 53 53 56 58 57 52 49
97 96 91 87 87 89 97 86 81 78 74 76 80 75 78 78 78 73 72 65 65 56 49 47 43 38 38 39 41 42 47 53 61 61 60 61 60 60 61 60 59 61 58
97 96 94 89 87 87 90 87 83 81 79 82 83 77 80 79 77 72 71 70 66 61 59 58 58 56 54 48 49 55 66 68 60 64 67 70 62 58 57 59 62 63 63
98 98 94 92 88 90 91 88 86 86 87 84 84 83 81 82 80 75 73 72 70 65 63 65 65 66 65 66 68 73 73 76 74 76 70 70 69 68 60 67 67 67 66
98 98 95 93 91 94 93 91 90 87 84 88 87 82 82 79 76 75 73 70 71 66 67 71 76 74 75 78 80 84 87 86 86 79 77 76 75 77 68 62 68 71 69
99 98 97 92 94 95 95 92 92 86 87 86 84 79 77 76 72 68 69 71 75 77 80 82 80 80 83 82 78 80 89 87 91 90 85 86 84 81 80 67 68 68 68
98 97 94 92 93 96 96 93 86 89 86 81 80 81 79 76 74 68 70 75 77 79 80 77 76 78 78 81 83 84 84 89 91 89 88 90 91 92 85 77 74 71 67
92 94 94 94 94 96 94 89 96 90 80 76 74 77 82 81 74 72 72 81 79 78 75 74 77 80 84 86 92 93 86 90 94 95 93 94 94 95 91 84 82 74 67
93 93 92 92 92 92 89 93 90 85 78 75 75 79 83 87 86 81 80 79 79 78 80 84 86 88 88 87 90 95 94 94 95 97 98 97 97 97 95 93 92 88 80
78 81 82 81 82 83 84 77 75 74 74 72 75 75 78 82 81 83 87 88 88 86 83 87 82 82 90 86 82 77 83 90 93 96 97 99 98 97 97 95 93 93 90
60 65 67 72 73 72 71 69 70 70 66 66 65 69 75 82 88 86 89 91 91 87 81 81 86 90 87 90 89 81 83 78 78 83 88 90 93 97 98 97 96 96 93
68 67 62 63 62 62 64 65 67 67 70 73 73 78 79 82 87 89 92 90 89 90 88 89 87 87 93 92 82 77 80 78 74 70 70 75 86 98 99 99 99 98 98
72 74 75 70 67 66 66 69 72 73 75 79 83 83 82 87 91 94 95 95 95 97 93 96 84 83 81 77 72 78 68 70 79 73 75 76 76 85 82 82 94 98 98
68 74 74 78 77 76 75 74 76 79 85 86 81 84 90 91 90 88 91 99 91 99 93 82 78 81 74 74 66 70 74 78 78 73 76 78 83 80 77 81 86 97 98
62 64 65 77 80 80 81 86 86 86 73 68 76 82 86 89 88 97 85 97 87 82 82 86 76 69 67 69 74 77 79 79 85 86 89 87 85 86 87 90 94 98 98
56 57 56 55 57 59 52 55 59 67 72 78 83 88 88 89 89 84 89 75 76 97 74 78 75 77 77 83 81 87 90 91 91 93 96 95 97 95 95 97 98 98 98
62 64 64 64 66 66 67 72 78 82 85 86 91 91 91 87 81 76 75 87 73 81 80 81 82 84 86 88 88 90 92 93 92 92 90 84 88 87 90 89 91 94 97
68 68 70 74 76 76 79 85 91 94 91 88 84 89 87 85 83 85 80 89 89 86 84 84 87 89 92 95 96 94 91 88 87 88 91 84 88 86 87 88 91 94 95
75 78 79 79 79 79 81 81 82 83 83 83 92 90 89 91 87 90 92 91 85 82 83 85 87 89 91 90 87 87 88 88 85 87 90 85 86 84 83 85 88 93 95
79 80 76 77 73 77 80 84 88 89 94 98 97 94 89 92 92 89 85 81 80 79 80 82 83 81 79 77 76 76 74 71 70 68 74 75 76 80 73 71 78 88 93

GFSMA_prec_cthk_105.txt.gz
RH
85 79 62 56 44 46 46 43 44 47 48 45 48 53 52 51 51 47 42 38 35 34 35 32 29 26 25 24 21 17 16 16 16 18 19 17 17 17 21 22 21 21 22
86 75 65 60 51 48 47 46 47 49 50 49 51 57 53 55 52 52 47 43 39 36 33 31 29 27 27 26 21 18 18 21 24 23 19 18 19 24 26 26 27 28 28
77 71 68 62 58 52 52 51 51 54 52 54 56 61 57 59 56 54 51 46 43 38 34 32 31 29 28 26 21 21 24 28 30 29 24 24 25 29 33 33 36 37 36
72 75 69 73 63 61 59 58 57 58 60 58 57 58 61 58 59 59 56 54 49 42 37 33 32 29 28 27 26 29 35 35 38 33 30 29 34 40 44 45 45 42 41
84 87 75 79 76 70 69 65 65 61 63 62 60 59 64 61 62 64 62 58 54 50 44 37 33 32 32 34 35 39 39 39 38 35 34 36 46 50 48 46 46 46 46
85 84 86 77 82 75 74 73 69 70 67 65 64 65 67 67 64 65 66 63 58 53 51 45 40 39 40 40 40 39 36 35 36 37 40 44 53 53 53 52 51 51 50
90 91 89 85 78 80 77 77 81 78 76 75 72 71 68 71 74 73 68 67 64 61 54 46 41 40 41 39 40 38 33 38 40 44 48 56 59 59 57 58 56 54 53
89 93 92 86 85 89 82 84 86 88 81 77 72 73 72 75 75 76 77 72 69 64 61 53 47 48 49 47 46 44 45 48 49 51 59 60 57 60 62 60 56 52 52
92 95 94 89 87 92 91 93 94 91 79 77 78 77 77 79 78 78 76 75 71 69 66 63 60 56 56 57 56 53 52 56 63 71 73 76 73 71 66 65 65 63 60
95 96 97 92 90 94 98 95 95 93 85 86 85 86 84 84 81 80 78 77 73 70 72 69 64 61 63 64 62 64 71 76 77 82 83 82 84 82 77 79 75 75 75
97 96 97 94 93 92 94 93 92 91 92 92 94 88 88 89 83 80 77 75 75 72 73 74 72 71 75 76 78 78 78 77 77 77 78 80 83 84 83 85 88 86 86
98 98 98 96 95 97 94 93 95 94 94 94 91 91 92 87 83 78 77 75 70 71 73 78 80 83 83 80 74 74 75 78 80 87 89 86 85 84 90 88 89 92 92
99 99 98 97 95 93 91 91 93 96 95 92 94 85 86 84 80 78 76 76 73 73 74 79 82 78 76 76 80 87 90 87 89 84 87 92 94 92 94 94 94 95 96
98 99 99 99 98 95 93 94 96 95 92 93 94 85 83 81 78 76 78 77 75 72 73 75 73 75 80 84 84 85 83 85 85 81 78 84 87 91 95 98 98 95 98
98 98 98 98 95 95 95 97 95 92 91 93 87 85 84 82 81 80 82 84 88 85 80 79 84 86 87 86 92 89 87 90 92 94 88 84 80 83 87 92 95 96 97
88 94 96 94 94 95 96 94 93 90 89 84 84 82 79 77 77 78 83 82 84 84 85 89 87 89 86 88 92 90 93 95 92 91 82 78 76 77 72 80 81 77 87
77 80 85 88 86 85 86 89 88 82 78 80 76 75 74 74 73 75 78 84 87 89 88 88 90 91 92 93 94 97 86 81 75 75 72 69 60 63 69 69 73 84 89
60 66 68 69 70 70 72 73 70 69 74 72 72 74 74 78 79 82 83 87 90 94 93 88 95 94 99 98 93 86 81 76 73 65 68 61 62 70 74 71 76 83 84
67 68 69 67 67 68 68 66 66 69 74 79 81 79 81 85 86 85 88 91 92 93 90 92 95 92 86 98 86 80 75 70 66 66 68 73 73 74 78 83 81 89 91
64 68 73 77 76 78 75 74 77 80 83 86 89 90 91 87 79 78 80 84 96 84 92 90 94 90 80 85 85 78 71 72 75 78 80 79 80 81 83 84 86 89 92
66 68 67 67 64 81 82 84 87 92 93 86 78 72 72 74 80 85 85 80 80 81 94 81 79 79 86 77 77 80 78 75 77 77 78 81 84 84 84 84 83 84 85
59 58 57 61 62 58 59 73 74 71 69 73 75 83 83 84 83 80 78 99 87 85 84 83 92 85 89 91 82 77 77 77 78 80 78 78 81 77 77 78 80 82 84
58 61 63 66 69 70 71 75 77 82 86 89 91 92 89 84 84 85 87 97 89 88 85 85 84 88 89 85 79 78 80 81 82 80 76 72 76 75 76 77 80 81 83
66 68 72 77 77 77 77 79 83 87 89 86 83 84 83 84 89 89 98 96 97 92 84 85 85 80 78 77 77 76 75 72 70 68 63 59 58 55 54 58 61 66 71
72 76 78 78 81 79 81 84 82 86 87 93 94 90 87 95 98 97 87 80 79 79 79 75 72 71 68 62 56 51 46 44 41 38 38 38 36 31 29 30 34 38 43
79 78 80 86 90 89 89 87 87 91 91 95 91 90 98 89 82 77 76 74 70 66 60 52 47 45 44 42 43 43 40 35 32 28 29 26 25 25 22 21 19 19 23

GFSMA_prec_cthk_108.txt.gz
RH
90 92 80 65 61 54 58 56 45 38 45 50 49 50 51 48 46 45 38 36 36 34 32 31 32 31 28 24 23 22 19 15 14 16 18 18 18 18 18 18 22 22 23
93 85 74 64 42 40 44 44 41 45 50 57 53 54 52 52 52 50 45 42 40 36 33 33 31 30 28 25 25 23 19 18 19 20 19 21 21 19 20 24 27 30 32
97 85 80 65 49 39 41 45 45 50 53 61 56 56 55 56 58 51 46 43 42 41 36 34 32 31 31 28 25 25 21 22 25 26 26 27 24 23 25 32 37 40 41
92 85 86 63 54 47 45 46 47 52 54 63 58 57 59 57 61 55 55 47 46 44 39 37 36 33 33 28 27 26 27 29 31 34 35 35 28 29 34 44 44 43 41
94 89 83 64 53 53 49 48 49 55 57 62 60 61 60 61 62 60 60 57 54 50 45 41 40 35 34 31 32 31 31 33 33 37 39 40 35 37 40 49 48 49 49
93 82 79 65 57 60 57 52 53 55 58 59 61 64 62 65 62 66 67 64 63 60 55 51 47 41 38 38 38 38 38 36 38 40 39 39 42 45 48 55 56 54 56
91 83 75 64 68 65 65 63 64 65 70 67 67 72 69 71 71 72 77 75 71 67 62 56 52 45 42 41 40 39 38 39 42 45 48 50 49 50 55 57 55 61 62
91 83 81 73 70 73 72 70 69 70 74 76 72 72 73 74 76 76 79 79 79 78 71 63 57 53 50 53 55 52 51 53 54 57 56 57 59 65 70 70 70 69 67
88 90 89 86 82 77 80 72 75 72 77 80 78 75 75 74 77 80 83 82 83 80 79 72 66 66 65 62 61 61 61 60 61 62 63 64 70 73 76 77 78 79 78
87 86 88 91 92 86 82 80 83 79 78 81 81 80 79 81 85 84 86 83 83 82 78 73 71 70 67 66 64 67 74 76 73 75 76 76 76 77 79 79 80 83 85
97 93 92 93 97 89 85 89 87 87 88 92 85 83 83 88 87 84 86 84 81 80 77 72 69 71 76 76 75 81 84 84 81 79 81 84 83 84 83 89 91 86 86
99 98 95 96 97 92 89 93 94 93 96 92 90 90 91 90 89 89 90 88 85 82 81 75 71 72 74 81 83 81 79 82 81 88 88 85 88 84 79 79 85 92 94
98 99 98 98 97 97 94 96 98 98 98 96 95 94 93 93 90 93 90 86 83 83 79 74 74 72 78 81 78 78 81 83 85 86 85 84 84 85 84 82 84 85 85
99 99 99 98 98 98 97 97 99 98 97 95 95 94 94 91 90 88 85 82 79 78 78 76 78 77 79 80 86 87 87 87 90 92 89 91 93 92 88 81 85 80 78
98 98 99 99 99 99 95 96 98 98 97 96 95 94 93 92 90 87 85 84 85 83 80 80 81 84 84 90 89 90 90 89 92 93 92 85 86 84 82 75 74 77 72
97 99 98 98 98 98 98 98 97 96 96 95 94 93 91 90 89 89 86 83 81 81 79 81 82 86 89 88 90 93 96 94 95 96 90 84 80 81 74 74 72 66 67
96 99 98 99 98 99 97 96 97 96 96 95 93 88 87 88 85 80 80 78 78 85 83 78 83 87 90 90 96 92 93 88 91 89 88 82 74 69 66 69 74 75 75
81 85 91 96 96 93 91 91 91 91 90 88 86 83 79 79 76 75 78 81 85 87 88 88 92 93 91 88 88 88 92 93 81 79 77 74 75 72 76 78 80 84 85
62 69 74 80 83 82 82 80 81 80 80 77 75 72 74 78 80 82 84 87 90 89 85 84 86 89 86 96 96 86 82 88 76 77 75 80 78 78 79 79 78 77 80
68 71 69 67 70 71 70 70 71 71 74 74 76 78 85 87 88 87 83 82 79 79 83 86 84 84 91 91 85 86 82 82 80 80 80 74 72 72 75 77 80 81 81
66 65 67 72 79 74 81 84 82 84 84 84 88 87 84 81 79 75 72 73 77 80 88 81 81 96 91 87 89 86 78 75 75 69 65 67 68 67 69 71 71 71 72
59 62 63 63 61 61 64 79 84 88 88 85 85 82 83 76 76 79 92 88 88 79 90 93 97 96 93 92 86 82 75 70 67 65 61 60 61 58 57 59 60 60 62
57 55 56 59 63 65 70 71 74 74 73 77 79 77 77 80 82 82 81 86 94 94 97 98 93 89 86 80 76 71 66 62 56 49 42 36 35 34 35 36 39 42 46
60 59 63 68 72 73 76 78 79 80 80 81 83 85 82 85 83 91 92 90 97 97 92 85 79 75 71 64 58 52 48 43 38 34 30 28 27 25 22 18 16 17 19
66 67 69 69 72 74 77 80 81 82 89 89 85 88 86 90 98 95 92 97 92 79 72 65 55 52 51 48 44 42 36 33 30 26 25 26 22 19 15 16 16 16 13
76 80 83 82 82 83 81 88 87 87 87 86 88 90 89 94 97 94 91 80 65 57 52 46 45 43 40 40 39 35 31 28 25 22 22 20 19 18 17 16 16 14 16

GFSMA_prec_cthk_111.txt.gz
RH
97 94 89 73 66 46 44 48 49 51 59 61 48 45 47 52 46 42 37 36 34 33 34 32 33 33 31 30 26 22 21 17 15 16 16 16 17 18 18 18 18 19 22
96 96 94 79 68 46 39 43 51 59 62 61 41 45 49 49 49 49 41 39 38 38 35 35 34 33 31 29 25 23 23 22 20 16 17 19 20 21 22 21 21 27 35
97 95 92 84 71 51 47 52 66 62 58 46 45 51 50 50 52 51 49 42 41 40 39 37 35 34 32 30 28 26 25 27 23 21 24 24 25 25 26 27 32 39 42
94 97 91 79 74 60 54 61 65 58 51 46 54 54 55 56 56 54 53 50 47 43 42 39 36 36 34 32 30 29 31 32 27 29 31 32 31 33 35 36 37 43 48
95 92 93 71 64 47 46 51 51 52 50 53 63 58 59 61 60 58 58 55 54 49 46 43 41 39 36 34 33 35 35 36 31 34 34 35 36 41 46 43 45 47 50
98 95 85 71 68 46 40 42 45 50 52 55 67 66 63 64 63 60 63 65 60 58 54 49 46 44 43 38 41 42 39 34 33 33 36 42 50 52 55 48 49 49 56
95 92 82 79 73 50 50 47 46 53 58 61 66 73 67 68 67 65 68 67 66 66 63 58 54 52 51 49 44 42 38 37 40 45 50 54 57 59 60 57 57 58 65
94 92 87 84 72 52 49 53 52 54 59 63 65 67 70 71 74 79 80 74 75 76 72 70 64 58 54 50 50 52 54 53 56 60 61 63 67 64 62 62 63 67 72
93 92 88 79 74 57 56 58 58 57 58 62 65 68 71 71 73 76 75 80 81 82 82 79 74 69 67 65 65 67 70 69 69 70 72 70 66 64 67 69 74 79 78
92 94 94 85 82 66 63 62 64 64 65 70 75 75 72 77 74 76 78 82 81 83 83 84 83 81 75 75 72 74 74 74 74 71 71 74 76 79 83 82 82 80 76
93 94 92 91 86 75 73 78 75 75 71 73 75 80 81 80 81 80 84 83 82 86 83 81 80 78 74 76 76 78 79 77 77 82 82 82 84 82 83 82 81 82 81
95 95 97 96 95 89 81 83 84 85 81 82 82 84 83 81 84 84 86 86 86 87 87 87 86 83 76 74 76 79 81 80 83 84 85 85 85 88 88 85 84 85 84
95 96 96 97 95 94 91 88 88 89 90 92 91 91 88 88 88 91 90 90 90 92 90 89 89 89 84 81 78 76 80 85 88 86 84 87 91 91 94 90 86 84 85
97 99 96 96 97 94 96 96 95 93 95 96 96 96 93 94 94 94 93 92 94 92 91 88 89 89 86 84 80 83 83 87 90 92 91 95 93 94 93 85 82 80 80
98 98 98 97 97 98 97 99 97 97 97 98 98 97 96 96 95 94 95 95 96 93 86 88 87 88 86 85 86 89 90 95 97 97 97 98 94 93 90 88 88 83 73
98 96 98 96 98 98 97 98 98 97 98 99 98 98 96 95 96 94 95 97 96 96 91 91 87 89 93 91 93 93 95 97 97 97 93 96 89 88 87 83 81 78 74
97 97 98 97 99 97 99 99 99 96 97 99 98 96 96 96 95 95 97 96 96 93 85 78 83 88 87 88 93 96 98 96 94 94 93 91 93 92 94 82 80 81 81
93 97 98 98 97 99 98 98 98 97 98 97 96 96 95 96 96 94 94 92 87 82 80 80 84 86 88 84 86 89 89 88 92 92 91 92 87 82 79 80 83 82 81
74 86 91 95 97 98 98 97 98 93 93 97 96 93 94 93 90 88 83 83 82 85 87 90 90 86 79 81 82 82 95 95 92 92 90 89 86 82 79 79 77 72 69
61 66 73 85 90 91 94 94 92 92 93 91 89 87 82 78 79 82 85 88 91 91 82 76 75 78 84 86 98 92 96 97 92 89 89 86 82 77 71 68 68 68 67
68 72 70 68 73 79 84 85 81 79 76 74 74 77 78 79 82 88 87 85 82 77 77 87 93 91 91 86 91 93 89 92 84 80 76 75 67 65 60 57 52 48 46
60 66 66 70 73 78 79 80 77 77 78 79 79 83 82 82 85 87 84 76 78 82 86 94 87 93 98 96 95 88 79 74 66 57 50 49 43 38 35 33 31 29 26
55 56 57 60 62 62 62 65 67 71 78 78 78 77 78 76 74 77 72 78 83 92 93 93 97 94 91 88 81 66 56 50 47 46 40 34 33 30 27 24 21 18 15
59 58 57 56 57 60 65 70 72 71 73 76 77 76 79 79 75 80 89 84 88 95 98 94 87 80 70 62 54 49 45 41 36 33 30 28 25 20 15 13 12 11 11
65 63 60 62 64 68 72 73 76 77 78 80 79 77 77 80 81 85 89 88 85 91 79 70 64 61 56 51 46 44 39 35 33 30 24 18 15 12 11 12 12 12 11
70 71 71 72 76 76 77 81 83 86 86 88 90 88 83 87 87 83 84 81 78 71 65 60 57 52 54 50 46 42 38 31 21 16 14 13 12 13 16 16 14 12 11

GFSMA_prec_cthk_114.txt.gz
RH
94 94 93 91 90 84 63 57 45 45 46 46 50 50 54 50 38 37 33 34 36 32 33 33 32 32 30 30 29 27 25 20 19 19 18 16 16 16 17 18 19 19 23
96 96 95 94 93 86 74 52 44 47 46 54 54 58 65 49 49 43 36 38 37 36 35 38 37 36 34 33 31 30 28 24 22 19 18 17 18 19 21 22 23 28 32
98 98 98 93 89 87 70 47 47 49 53 61 60 56 47 47 50 46 41 42 41 40 40 43 39 38 35 35 33 31 29 27 26 25 23 22 23 23 24 28 33 36 37
98 98 98 95 92 87 59 50 50 50 59 65 59 62 48 48 50 51 50 45 42 41 42 42 41 36 37 37 35 33 32 32 33 30 29 29 28 29 33 37 40 44 44
98 98 98 98 94 82 54 51 52 52 63 58 59 58 53 50 56 56 54 48 49 47 45 44 42 39 39 38 36 36 37 38 38 38 37 37 36 37 40 44 47 49 49
98 98 98 96 88 89 57 49 52 62 63 59 59 58 61 58 61 60 59 54 55 52 51 50 48 45 42 41 41 43 43 42 42 40 39 40 44 46 47 49 54 57 55
97 99 97 96 87 86 59 55 65 69 69 62 58 65 69 65 63 65 65 62 61 62 65 62 58 55 52 51 53 52 44 44 45 48 47 46 47 48 49 54 60 60 55
96 95 95 97 87 82 64 58 64 67 63 55 60 65 76 74 66 67 68 66 66 69 70 76 70 63 59 57 56 54 55 52 55 57 59 55 55 61 63 65 66 66 63
96 97 98 98 90 71 57 42 45 49 52 59 57 60 68 79 71 68 68 73 82 80 82 80 75 73 69 68 71 70 69 68 70 68 69 65 66 68 72 71 70 71 77
97 98 97 91 81 77 62 52 54 53 51 58 61 67 70 70 69 72 72 75 82 84 83 82 86 87 86 83 80 77 76 74 73 73 72 72 77 73 77 83 84 84 84
92 96 93 91 87 86 72 53 52 54 57 58 59 64 67 67 71 74 73 79 83 83 81 81 82 84 85 85 81 77 81 79 78 78 78 77 79 82 85 87 86 86 87
87 93 95 91 88 84 77 59 54 57 61 63 66 70 71 75 76 74 75 83 85 86 83 83 84 86 85 85 83 79 78 77 81 81 84 83 86 86 87 82 85 89 91
88 89 90 93 92 88 86 79 64 64 65 71 75 74 81 84 85 85 85 89 87 88 88 87 88 89 90 91 88 83 81 80 80 82 85 84 88 87 90 91 93 95 94
87 91 93 91 93 91 91 91 82 75 77 79 81 86 90 93 92 90 90 89 89 90 89 90 91 92 94 95 92 91 87 85 83 83 85 90 93 96 97 97 97 97 95
90 92 96 98 94 93 93 92 92 86 88 91 93 96 96 95 95 91 90 91 93 93 91 89 93 94 96 95 96 97 94 88 88 91 93 95 96 98 95 96 95 93 91
92 97 99 98 99 97 97 98 98 91 90 95 96 98 98 96 95 95 96 95 97 97 94 94 94 96 96 94 93 95 95 91 91 91 95 95 94 91 94 96 91 94 88
89 97 99 98 98 96 98 99 98 97 96 94 96 97 97 98 98 96 96 96 97 97 96 96 96 95 88 87 89 90 91 91 93 92 90 92 94 95 93 94 95 93 91
83 88 98 99 99 98 99 97 98 98 99 97 97 98 97 98 97 97 98 98 97 97 97 95 94 83 83 85 88 95 98 88 83 83 85 87 90 91 94 93 92 92 88
72 78 93 98 98 99 97 99 98 98 98 96 98 98 98 98 97 97 97 97 96 95 94 88 84 85 91 92 94 75 78 87 95 87 92 95 92 92 93 86 83 80 77
65 67 77 87 95 99 98 98 98 99 97 96 95 94 97 96 96 97 97 93 89 84 82 85 90 95 89 75 85 91 97 96 94 90 94 92 83 75 72 67 60 53 47
66 70 69 76 83 89 95 97 97 95 99 97 94 97 98 96 93 89 84 81 81 83 88 91 90 79 76 83 92 93 94 94 92 88 84 77 65 55 51 47 42 38 34
62 65 70 74 75 78 81 86 93 93 94 92 89 83 80 79 80 79 79 81 85 91 91 89 81 85 93 98 94 89 85 79 73 63 58 53 48 44 43 39 35 32 26
59 60 62 66 73 76 77 78 80 79 78 78 78 77 76 77 80 82 84 86 83 83 81 81 86 86 88 90 84 71 63 57 52 50 46 48 49 44 38 32 22 16 13
63 61 60 61 63 64 66 70 71 73 74 74 75 76 77 77 76 77 78 80 83 83 82 86 85 80 70 69 66 58 58 58 54 47 42 38 33 27 21 16 13 10 9
67 66 66 64 63 64 65 66 67 68 71 76 76 80 80 80 80 81 83 82 82 83 83 78 73 68 64 58 58 60 58 52 47 41 33 27 22 17 14 10 9 8 8
68 71 72 71 69 67 68 71 72 74 76 77 80 82 84 87 89 89 89 87 83 83 81 72 64 64 67 66 61 53 48 41 33 28 24 19 13 11 12 12 12 10 11

GFSMA_prec_cthk_117.txt.gz
RH
73 77 88 89 92 85 84 75 55 46 48 47 55 52 54 49 46 48 48 48 44 33 29 33 34 34 34 30 30 28 26 27 24 21 22 21 20 18 17 17 17 18 21
78 86 92 96 93 92 87 76 56 51 51 54 58 58 53 54 45 37 36 34 30 32 40 45 45 45 38 35 34 31 28 27 28 25 23 23 23 20 20 19 20 24 28
86 93 93 96 96 94 89 78 66 52 53 56 56 56 57 62 59 41 38 36 37 41 47 47 46 42 40 38 36 32 31 32 31 29 27 26 24 23 23 23 26 30 34
83 86 93 99 97 94 92 77 71 51 54 54 55 57 62 66 61 46 41 39 45 49 44 42 41 41 41 39 38 34 33 35 35 35 33 32 30 29 29 29 32 36 41
78 85 95 99 99 95 92 84 65 44 50 55 61 64 64 62 54 48 47 44 47 48 49 44 42 41 42 41 38 36 38 38 39 40 39 38 37 36 38 38 39 43 46
80 89 97 98 99 97 94 86 61 48 50 55 68 66 68 65 58 52 53 50 50 50 49 49 46 46 47 44 42 41 42 43 44 43 43 44 45 46 46 45 46 47 48
79 96 99 97 99 99 95 89 63 51 53 62 69 70 71 69 60 56 57 54 56 54 55 55 50 50 52 50 50 51 51 48 49 50 49 49 50 50 49 48 47 49 52
85 97 99 97 98 96 98 89 62 58 57 59 68 67 70 67 61 61 59 61 61 61 61 59 62 64 65 62 59 58 58 58 58 59 61 61 61 58 55 55 56 61 67
86 97 99 97 98 97 95 85 60 56 50 64 65 63 67 67 67 66 63 64 64 66 67 71 82 79 75 71 67 65 70 73 72 72 68 66 66 65 66 67 69 72 72
82 96 98 98 98 97 92 85 59 56 53 66 68 69 61 59 68 78 75 72 70 72 74 79 87 84 83 83 82 82 84 85 81 80 77 75 74 73 71 73 76 77 79
80 88 97 96 98 98 89 86 62 65 70 69 69 60 58 61 64 70 77 71 72 75 79 82 87 84 83 85 88 86 85 85 84 82 81 78 76 73 73 74 76 79 82
82 90 96 99 98 94 88 87 69 55 56 57 57 58 59 59 62 71 71 72 73 78 82 84 84 84 84 86 85 88 88 85 81 80 79 78 78 81 84 81 80 82 84
79 87 90 96 98 98 91 87 71 55 51 50 52 56 60 63 64 68 75 74 78 85 85 85 86 87 87 88 89 87 84 84 82 80 78 78 78 80 82 82 85 88 92
85 87 91 91 95 95 95 94 85 61 55 56 59 61 62 67 70 72 79 82 86 90 87 88 88 90 90 90 91 92 89 90 88 84 79 82 83 84 85 91 94 95 95
86 91 93 95 91 88 89 88 91 80 63 55 58 64 72 78 81 82 87 91 88 92 92 90 90 92 94 95 94 96 93 91 91 92 90 90 90 92 93 93 96 97 90
88 91 92 95 93 90 87 88 88 92 85 67 66 70 79 86 88 89 94 93 94 94 95 94 95 95 94 97 94 93 92 87 87 89 91 92 91 90 91 89 85 87 90
79 86 90 95 97 97 98 97 96 95 95 89 80 80 88 93 94 96 97 97 95 95 96 96 97 95 98 98 98 95 89 85 88 89 92 92 90 87 83 83 88 90 91
67 80 83 90 99 99 98 98 97 97 98 94 91 90 91 93 94 95 98 96 98 97 97 98 98 99 98 97 98 91 87 90 91 97 96 85 78 84 95 90 89 91 91
67 73 77 87 96 98 98 98 99 96 98 99 96 94 95 94 94 97 98 96 97 97 98 98 98 98 97 95 91 88 95 97 91 78 91 93 95 90 92 88 84 83 75
66 74 75 81 93 98 99 98 99 98 99 99 98 98 95 96 97 96 97 98 98 98 99 97 95 93 90 89 94 99 96 82 77 81 84 84 86 82 78 73 65 59 53
63 69 74 77 81 93 98 98 96 99 99 98 99 97 97 98 98 98 97 97 98 98 97 92 89 89 92 97 94 91 84 81 84 87 86 83 77 65 60 55 51 48 46
61 64 68 74 82 80 86 98 99 99 98 97 97 96 97 97 97 96 96 95 90 88 88 89 90 92 92 96 89 80 78 79 70 69 68 64 58 58 55 53 52 45 36
60 63 67 70 72 77 83 84 92 98 94 98 99 98 96 96 92 86 83 83 85 85 85 86 86 85 83 76 69 65 69 69 69 63 61 62 58 54 49 43 34 27 25
63 62 63 65 67 70 74 80 88 92 95 91 89 86 82 80 81 82 85 86 84 85 84 85 82 80 78 74 70 70 66 67 72 69 62 55 48 43 34 29 24 20 18
67 66 65 65 66 66 67 68 71 72 73 74 74 74 75 79 81 83 82 85 87 88 88 86 83 79 71 73 78 82 71 63 57 52 51 45 37 30 25 21 20 20 15
69 68 69 68 68 68 68 69 70 70 71 71 73 76 81 82 83 84 87 88 89 87 79 76 82 86 84 77 72 65 62 57 51 48 42 35 31 30 31 26 18 14 16

GFSMA_prec_cthk_123.txt.gz
RH
50 57 75 77 75 77 76 86 89 89 94 77 55 48 53 54 50 53 49 39 35 35 33 38 35 46 37 35 36 34 31 28 27 26 26 25 22 20 21 22 23 25 28
55 53 77 78 83 88 85 93 90 93 97 89 64 49 57 56 51 54 46 38 37 38 36 37 43 45 40 34 35 34 31 29 29 27 28 27 26 25 23 24 26 29 30
59 54 70 83 85 92 93 92 97 91 92 94 74 55 59 57 53 54 53 46 44 42 44 47 48 50 39 39 37 36 33 31 30 30 29 28 27 26 27 28 29 31 33
58 56 54 77 84 90 97 97 96 98 96 83 66 60 59 54 55 56 64 57 49 46 43 43 42 44 46 40 38 39 37 34 32 31 32 31 31 31 31 32 33 34 36
56 52 46 60 79 84 88 97 96 96 92 82 71 72 64 58 58 57 64 58 52 46 40 41 47 46 42 41 41 40 39 37 36 37 37 37 36 36 37 39 39 39 43
53 51 44 54 71 76 87 95 97 95 94 78 80 78 71 66 63 59 59 58 59 54 49 44 44 44 45 44 45 45 43 43 42 43 43 43 44 45 46 49 51 51 51
50 46 41 50 64 71 83 91 98 97 92 82 75 84 75 72 64 61 61 60 64 57 59 53 47 50 46 47 48 49 51 51 49 49 50 52 53 52 56 60 60 58 56
47 37 39 49 63 74 77 87 98 98 94 86 76 77 81 75 67 62 60 60 60 50 56 57 51 52 55 50 51 54 56 56 57 58 60 62 62 62 65 65 65 63 57
46 35 40 51 62 76 85 93 98 98 94 88 88 72 69 64 62 62 63 58 60 57 53 53 55 58 64 71 65 65 64 63 62 63 65 69 68 69 72 72 71 67 63
40 38 41 52 62 78 91 96 99 97 95 90 88 80 64 52 60 65 64 59 64 59 54 53 54 57 69 70 77 80 71 68 68 70 74 73 70 72 73 74 76 70 69
40 39 44 54 64 82 94 98 98 99 94 93 85 84 62 58 58 63 67 64 61 60 60 60 60 64 66 75 90 85 79 75 73 75 77 79 79 81 81 82 81 76 74
38 38 44 52 67 84 94 99 99 98 93 96 88 77 60 57 61 66 68 67 62 65 64 62 67 76 78 85 88 90 82 80 78 80 80 81 83 81 81 81 81 79 75
35 36 42 51 68 82 98 97 99 99 96 96 91 86 64 59 62 70 72 70 67 70 71 75 75 76 85 92 91 86 81 80 80 81 82 82 83 85 86 84 82 81 79
35 36 42 54 71 82 95 98 99 99 98 96 94 91 73 64 66 70 74 76 80 79 79 79 86 87 90 89 84 82 81 83 84 86 85 88 89 89 90 90 88 84 84
37 37 44 58 78 82 95 98 98 99 99 98 95 94 78 65 64 70 75 78 75 74 79 82 79 82 86 86 84 87 86 87 88 91 90 92 91 92 88 89 86 87 89
40 41 50 66 81 86 92 98 99 98 99 98 97 92 78 74 65 72 76 77 75 70 74 78 79 86 88 90 89 91 92 91 92 93 94 96 94 94 87 87 90 89 88
43 45 54 73 86 90 91 97 98 99 98 98 95 87 74 73 68 76 73 70 69 70 75 82 89 92 94 93 93 94 96 96 94 98 98 98 97 96 96 92 88 87 87
43 50 56 67 83 82 90 95 96 98 98 97 90 91 76 75 79 77 70 68 69 75 81 86 92 94 97 94 96 95 97 97 95 96 96 98 98 96 94 90 88 86 82
46 52 55 58 65 80 82 95 93 94 98 95 93 95 93 83 79 69 62 68 74 80 86 90 95 96 93 98 97 95 96 95 95 96 97 95 94 89 86 79 80 74 64
48 54 55 56 60 71 77 79 89 94 97 95 96 98 95 84 79 77 71 74 82 92 95 95 95 95 95 98 96 95 96 97 97 94 91 87 83 81 77 64 67 68 65
50 53 54 55 61 70 74 75 85 93 99 98 98 99 99 97 97 96 90 89 91 96 98 98 96 96 96 94 96 97 98 97 91 85 82 76 69 67 72 72 65 61 65
52 53 54 57 60 66 73 76 90 97 95 98 98 99 98 98 98 96 97 94 96 98 98 98 97 95 94 96 96 96 92 87 81 75 71 72 84 82 77 77 70 64 57
54 54 55 58 58 60 68 75 92 97 98 99 99 99 99 99 99 98 98 98 98 98 97 98 97 97 96 95 93 86 80 79 76 82 88 82 83 76 73 66 61 54 44
56 56 58 58 57 58 65 73 80 94 98 98 99 99 98 99 98 98 98 98 98 98 97 97 96 91 85 81 79 78 80 86 90 94 83 79 75 66 59 52 42 37 36
60 59 59 59 59 57 59 68 75 79 91 97 97 98 98 98 98 98 98 98 99 97 96 94 85 84 83 84 86 91 92 90 87 85 74 65 61 48 42 40 39 36 33
65 62 61 62 62 62 60 63 66 72 79 90 93 96 97 98 97 98 99 97 98 93 86 83 85 87 90 93 91 90 90 84 74 73 60 53 45 42 40 36 36 34 29

GFSMA_prec_cthk_129.txt.gz
RH
34 40 47 49 51 54 67 82 78 74 77 86 85 75 58 51 48 44 47 50 42 33 30 33 30 24 25 26 26 28 26 32 34 30 27 26 23 21 21 21 22 25 27
34 39 47 51 52 55 58 82 92 88 86 87 89 91 74 56 50 44 45 46 42 34 30 27 25 32 36 29 30 32 34 36 33 29 28 27 24 23 25 27 28 31 32
36 41 49 52 55 56 52 66 89 88 91 90 97 93 86 64 53 50 46 49 45 36 31 25 28 34 36 30 31 39 32 38 33 31 30 28 28 28 30 32 34 35 36
37 43 51 55 57 60 56 54 75 90 89 93 95 90 87 72 63 45 44 45 39 38 33 33 35 45 38 37 40 36 34 37 35 33 32 32 32 32 33 35 38 38 40
42 45 53 57 60 61 59 52 58 77 88 93 95 97 91 85 79 63 47 46 37 38 35 39 38 36 35 39 39 38 38 37 37 36 36 36 36 36 38 39 39 40 42
43 51 56 57 59 60 63 54 56 71 84 90 94 98 93 93 91 65 46 49 44 41 41 39 35 35 37 43 38 42 43 41 39 40 41 42 43 42 42 43 45 47 50
47 52 59 60 58 63 57 56 51 67 77 80 90 98 97 96 92 76 55 56 52 46 45 41 38 34 35 38 44 48 47 47 48 48 49 49 49 49 49 50 53 56 59
48 53 61 62 59 60 59 53 49 59 73 79 84 95 98 97 92 88 71 60 55 52 50 42 42 37 37 38 44 47 50 56 55 54 55 54 56 56 57 57 57 61 63
42 55 61 63 62 62 58 49 48 52 67 74 82 87 86 92 91 90 77 64 59 56 54 47 50 41 39 38 41 46 56 59 66 67 68 66 63 62 63 63 64 65 68
45 53 61 65 68 66 60 47 44 52 62 71 84 85 84 85 90 95 86 73 68 62 57 54 53 44 38 41 46 53 55 57 61 70 73 71 68 68 71 74 75 74 74
49 51 66 66 69 66 58 46 42 54 57 69 78 86 89 90 89 88 88 76 71 67 59 60 58 51 44 46 49 58 56 57 67 74 77 79 80 80 79 78 78 78 80
48 52 63 66 68 65 57 40 45 50 60 74 83 85 91 89 86 85 86 81 69 65 61 65 61 58 53 52 55 59 64 73 81 83 82 82 83 84 82 81 82 83 83
50 53 65 68 67 64 52 44 47 52 61 77 89 94 97 95 91 88 85 85 72 64 67 66 66 64 58 56 57 61 69 86 88 87 86 87 85 85 86 86 87 87 89
55 58 66 70 68 63 54 46 47 52 65 82 95 99 98 96 94 91 85 79 73 67 69 66 69 68 62 58 63 68 80 86 93 92 89 90 88 90 89 88 89 91 92
59 64 70 73 67 58 56 46 49 58 75 86 92 95 98 98 96 95 90 79 67 62 68 69 70 70 70 66 71 77 85 92 93 92 89 91 93 94 95 95 94 96 94
65 67 70 71 67 60 55 48 52 65 82 90 96 99 99 99 98 96 93 87 78 63 66 68 71 74 73 79 81 86 90 89 91 88 91 94 96 96 97 98 98 96 94
65 69 74 71 66 61 54 47 54 67 86 91 96 99 99 99 98 98 97 93 87 79 71 73 82 85 86 90 94 88 87 94 94 94 95 94 97 97 98 98 98 95 94
70 71 71 77 68 62 53 50 56 65 81 87 91 97 98 99 98 97 98 96 92 91 88 90 88 92 94 96 96 92 92 97 95 95 96 97 97 97 98 96 96 94 86
68 71 76 77 73 66 55 53 58 63 68 82 85 92 98 98 98 98 99 99 93 91 89 90 93 94 95 96 93 93 93 97 97 97 97 97 98 98 97 95 88 88 80
70 68 71 80 79 69 58 55 58 61 64 73 76 78 90 97 96 96 98 99 94 86 89 92 90 97 96 93 91 93 96 98 98 97 98 98 98 98 94 89 84 74 70
78 72 74 82 82 71 60 58 59 64 66 73 73 74 74 86 96 98 97 94 98 93 87 91 90 97 94 94 92 92 98 98 98 98 98 98 96 91 88 81 77 80 77
81 73 75 80 84 77 65 58 59 62 67 70 73 75 76 79 92 99 97 98 98 96 93 91 89 97 94 95 92 97 97 98 98 98 98 97 91 84 78 80 80 77 71
75 75 72 83 84 80 71 62 60 65 68 68 72 75 82 94 93 98 99 97 97 96 93 93 93 95 94 94 92 94 98 99 98 99 98 87 83 80 79 84 78 68 59
74 72 72 84 82 79 73 61 61 63 64 69 76 85 95 99 95 97 97 97 98 97 94 96 97 98 97 97 97 98 98 98 98 95 89 87 86 90 83 75 61 57 51
84 72 72 86 83 82 75 66 63 63 64 66 75 85 98 98 98 99 99 99 98 98 98 98 98 98 98 98 98 98 98 98 96 95 91 89 90 81 69 62 55 49 48
82 70 78 85 85 84 77 68 62 63 65 66 69 81 98 98 99 99 99 98 99 98 99 98 98 98 98 98 99 98 98 98 96 93 90 88 73 65 59 53 50 45 40

GFSMA_prec_cthk_132.txt.gz
RH
29 34 39 42 46 50 50 50 65 80 73 76 83 78 79 71 61 51 49 49 48 47 37 33 36 35 28 24 22 22 25 22 27 37 38 32 27 23 21 21 22 25 28
29 32 37 42 46 52 54 52 54 76 89 90 89 89 87 74 63 53 44 45 48 49 42 38 39 31 27 25 25 29 29 29 33 40 33 30 27 24 24 25 29 33 34
30 33 37 42 47 54 57 60 54 58 83 89 90 92 93 87 72 56 43 44 49 47 43 33 37 33 29 27 30 31 34 36 40 37 36 30 27 27 28 30 33 37 38
35 35 38 42 48 57 60 64 61 53 63 83 91 93 95 93 89 60 49 43 48 51 45 34 34 35 34 33 34 35 38 49 39 40 35 31 31 32 33 33 35 38 40
38 38 39 45 50 58 61 65 65 53 57 70 83 93 95 95 94 70 54 47 48 49 42 36 36 38 41 42 42 41 42 40 41 39 36 35 36 36 36 36 37 41 44
40 43 40 49 53 58 63 64 68 57 54 70 85 89 93 91 91 78 64 54 47 46 37 39 41 41 41 38 40 44 51 43 42 40 39 40 39 40 40 40 42 44 48
40 41 53 70 64 59 64 68 69 58 51 66 77 86 90 95 96 93 90 64 46 45 38 39 42 39 37 36 41 48 51 51 47 45 46 47 48 50 50 49 51 53 55
33 39 54 65 69 67 64 68 68 63 51 58 68 78 89 93 97 94 92 80 55 50 43 46 46 41 40 39 40 41 53 59 58 57 55 56 57 56 56 57 58 60 60
28 33 46 58 64 66 65 67 72 63 52 50 62 71 81 89 97 96 96 90 67 57 51 47 47 44 43 39 40 42 47 59 66 65 64 64 65 66 64 63 64 67 69
45 37 40 50 62 69 71 73 77 68 54 49 57 66 75 82 92 90 95 95 82 66 58 54 49 43 46 47 41 43 44 54 66 67 68 69 72 73 73 75 79 78 76
38 36 41 51 59 68 71 75 76 71 57 48 48 63 69 76 85 86 91 92 90 75 66 58 55 48 53 45 43 45 43 53 59 63 68 74 75 82 83 84 83 83 81
46 41 44 51 59 67 74 76 76 70 58 53 47 63 65 77 76 86 88 91 92 76 68 64 65 57 56 48 52 55 54 55 55 62 72 78 82 84 85 84 82 82 86
51 44 50 54 60 70 74 76 76 69 61 44 53 59 67 81 86 88 93 92 93 90 79 73 66 61 61 54 56 58 61 61 63 71 79 81 83 85 85 86 88 85 86
47 47 50 56 64 72 74 75 78 68 54 49 55 63 73 90 95 97 94 92 94 94 85 74 64 64 62 60 57 61 65 67 72 78 87 86 86 86 89 93 91 94 93
50 53 56 56 65 66 73 77 76 67 54 51 54 68 88 95 98 96 98 94 90 93 90 82 70 66 65 61 63 66 66 69 78 90 93 94 89 88 94 96 94 95 97
59 62 58 60 64 66 75 77 72 66 53 52 61 80 96 97 97 99 98 96 95 91 91 83 70 67 65 69 72 69 67 73 83 92 97 96 92 94 96 95 96 95 95
66 66 62 65 68 71 76 75 70 66 51 58 66 90 94 97 98 99 99 98 96 95 91 82 75 69 70 74 76 73 70 79 86 95 97 98 95 96 98 97 96 96 96
62 65 73 66 70 73 74 74 71 66 54 56 65 79 91 95 99 98 98 98 96 96 88 83 79 72 72 79 81 86 93 96 95 95 96 98 96 98 98 98 98 98 95
59 68 79 70 68 72 75 73 71 67 56 59 64 66 81 90 97 98 98 99 97 97 94 87 85 79 79 84 91 98 93 98 97 95 95 98 97 98 98 98 97 94 93
52 71 75 79 73 73 74 76 72 69 59 58 63 66 76 78 89 98 98 99 99 98 98 96 95 92 91 95 97 96 98 97 97 97 98 97 98 98 98 97 93 95 90
46 61 75 78 74 72 75 79 77 72 62 60 61 64 71 75 82 86 94 98 98 98 99 97 96 95 96 96 95 96 97 98 98 95 96 98 97 98 97 98 96 93 87
48 56 72 82 72 71 70 85 82 76 63 58 62 67 74 75 75 82 84 95 98 94 97 98 96 95 94 98 95 98 98 97 96 97 97 97 98 98 97 94 95 86 72
57 50 59 72 81 75 72 83 81 77 65 59 59 65 72 71 80 79 84 93 96 97 98 97 95 94 96 94 91 96 98 98 99 98 98 98 98 98 98 91 90 76 72
63 53 58 73 98 71 74 81 85 80 68 60 65 66 70 73 82 83 96 97 99 98 96 98 98 97 97 96 96 97 98 98 98 98 98 98 98 97 95 90 79 71 66
61 64 57 67 89 77 62 79 82 81 70 62 63 63 67 78 83 94 99 97 98 99 98 99 98 98 98 98 96 97 98 98 98 98 98 98 97 97 92 83 71 66 59
53 73 58 62 67 74 65 77 83 82 72 63 63 66 67 71 93 97 98 99 99 99 98 99 98 99 98 98 98 98 98 98 98 98 98 98 97 95 82 71 65 62 54

GFSMA_prec_cthk_135.txt.gz
RH
29 30 32 37 40 44 48 50 51 52 59 74 82 80 85 93 91 90 69 52 55 45 54 48 41 39 33 30 29 32 31 29 27 28 25 31 30 31 25 25 24 24 28
31 32 33 36 42 44 49 53 55 58 56 60 81 85 89 88 85 72 55 49 50 49 52 48 41 39 41 32 31 31 29 28 32 30 35 39 34 28 27 27 29 32 36
33 33 34 35 41 46 49 57 58 62 57 56 70 81 87 90 90 80 62 48 47 49 52 53 53 46 38 34 34 32 36 40 38 33 34 34 32 30 28 29 32 35 37
35 35 35 37 40 47 50 57 62 63 64 57 63 79 85 88 92 90 75 50 46 46 53 51 53 40 34 34 32 33 37 39 41 39 44 41 34 32 32 33 35 37 38
36 37 36 39 40 46 52 59 63 64 70 58 59 75 81 87 94 94 89 58 48 47 50 56 43 40 35 38 37 40 42 45 49 45 41 40 37 36 35 36 37 39 41
40 40 39 41 41 45 57 62 63 74 75 63 54 75 81 93 98 96 95 70 50 48 52 54 41 38 37 39 43 46 47 47 46 47 46 41 39 40 40 41 42 44 46
41 42 40 43 42 53 59 63 66 78 76 63 57 67 76 95 94 97 95 73 61 53 52 50 38 34 38 42 44 47 50 55 58 46 43 43 44 44 46 49 51 54 56
43 40 38 40 45 61 74 79 68 69 72 67 57 56 71 76 86 95 92 78 80 61 51 48 39 39 41 40 40 47 53 58 56 48 46 51 52 52 53 54 56 59 61
51 41 32 38 43 63 74 85 74 65 71 72 63 52 68 64 81 88 94 96 95 85 65 53 42 41 43 40 41 47 55 54 58 56 56 57 59 60 63 65 64 67 71
47 42 37 33 38 50 63 78 75 72 71 74 67 57 56 57 71 84 95 97 96 93 77 65 53 46 46 42 42 42 42 52 56 60 62 63 64 65 68 71 77 81 79
40 41 47 49 52 45 49 68 76 77 77 78 69 57 55 54 68 73 87 94 96 94 87 74 62 50 48 46 43 45 44 44 53 62 64 66 69 74 76 81 84 85 84
38 40 45 45 44 40 47 64 76 76 83 78 73 58 49 52 54 69 78 85 91 95 96 83 71 62 52 48 43 49 48 43 48 60 64 64 68 77 81 85 85 84 84
50 48 51 59 54 48 51 63 73 78 80 84 74 64 54 49 54 64 76 83 89 96 97 92 81 71 61 56 50 50 54 47 49 57 62 64 70 79 80 86 85 86 89
50 57 64 63 66 49 53 65 75 79 80 83 76 67 57 47 52 72 74 84 96 94 97 94 84 74 70 63 54 53 58 55 55 61 67 67 70 80 87 88 89 91 93
47 59 60 57 62 51 60 68 71 84 82 81 78 68 56 45 60 82 88 90 95 98 98 95 88 82 75 73 61 58 60 59 61 69 72 76 81 88 92 93 92 93 94
43 53 51 51 51 52 55 65 67 77 81 80 78 71 46 52 66 90 96 94 98 97 97 96 95 86 79 77 69 66 63 63 68 73 78 81 87 96 96 94 93 93 96
39 42 50 55 56 57 58 64 68 73 80 80 73 62 49 56 74 94 94 99 98 98 98 96 95 92 87 82 74 68 66 65 69 74 81 84 91 94 99 97 97 95 96
35 41 54 58 68 60 64 65 69 72 81 78 67 63 48 64 70 89 94 99 99 99 98 97 96 95 93 88 82 78 76 74 76 75 81 87 92 94 95 98 98 97 96
33 39 42 57 76 74 67 68 70 75 78 75 70 69 58 62 66 77 95 94 98 99 99 95 95 96 95 92 86 85 84 81 83 83 87 92 95 96 98 97 98 97 96
38 41 39 52 60 72 82 73 71 76 78 79 74 70 60 60 65 71 83 87 99 99 98 98 98 97 96 93 90 87 85 88 92 93 94 99 99 98 98 97 97 97 97
37 43 43 44 60 65 89 84 71 74 79 79 75 72 62 59 64 71 77 82 94 98 99 98 99 98 96 91 90 91 93 96 96 96 97 98 98 98 98 97 98 97 97
35 38 46 45 47 64 76 86 78 75 81 81 80 76 64 61 61 68 72 77 82 88 97 98 98 96 95 95 94 96 96 97 98 98 98 98 99 98 98 97 98 98 98
33 36 45 50 47 49 64 85 88 75 73 78 82 80 64 60 61 69 74 72 75 84 89 95 96 95 95 95 96 97 98 98 98 98 98 98 99 99 98 98 98 98 97
31 35 44 49 54 47 57 80 99 86 72 77 82 82 68 61 64 67 75 72 79 79 90 97 98 97 96 97 98 97 97 98 98 98 98 98 98 98 98 98 98 98 91
35 34 39 54 58 51 51 76 96 83 71 84 87 81 72 65 66 67 69 73 80 81 95 98 99 98 99 99 99 99 98 98 98 98 98 99 98 98 98 98 98 96 87
32 36 39 44 53 60 59 59 87 83 80 85 87 86 77 65 66 66 69 79 83 97 96 96 99 99 98 99 99 98 98 98 98 98 98 98 98 98 97 98 97 89 79